[[{"header":{"parameterUnit":"m.s-1","parameterCategory":1,"la1":31.0,"la2":29.5877,"lo1":-88.7671,"lo2":-86.6584,"dx":0.0162,"dy":0.0185,"nx":115,"ny":88,"refTime":"2023-01-04T06:00:00:Z","depth":0,"parameterNumber":2,"parameterNumberName":"U-component_of_WINDS"},"data":[0.0,0.0,0.0,0.0,0.0,0.0,0.0,0.0,0.0,0.0,0.0,0.0,0.0,0.0,0.0,0.0,0.0,0.0,0.0,0.0,0.0,0.0,0.0,0.0,0.0,0.0,0.0,0.0,0.0,0.0,0.0,0.0,0.0,0.0,0.0,0.0,0.0,0.0,0.0,0.0,0.0,0.0,0.0,0.0,0.0,0.0,0.0,0.0,0.0,0.0,0.0,0.0,0.0,0.0,0.0,0.0,0.0,0.0,0.0,0.0,0.0,0.0,0.0,0.0,0.0,0.0,0.0,0.0,0.0,0.0,0.0,0.0,0.0,0.0,0.0,0.0,0.0,0.0,0.0,0.0,0.0,0.0,0.0,0.0,0.0,0.0,0.0,0.0,0.0,0.0,0.0,0.0,0.0,0.0,0.0,0.0,0.0,0.0,0.0,0.0,0.0,0.0,0.0,0.0,0.0,0.0,0.0,0.0,0.0,0.0,0.0,0.0,0.0,0.0,0.0,0.0,0.0,0.0,0.0,0.0,0.0,0.0,0.0,0.0,0.0,0.0,0.0,0.0,0.0,0.0,0.0,0.0,0.0,0.0,0.0,0.0,0.0,0.0,0.0,0.0,0.0,0.0,0.0,0.0,0.0,0.0,0.0,0.0,0.0,0.0,0.0,0.0,0.0,0.0,0.0,0.0,0.0,0.0,0.0,0.0,0.0,0.0,0.0,0.0,0.0,0.0,0.0,0.0,0.0,0.0,0.0,0.0,0.0,0.0,0.0,0.0,0.0,0.0,0.0,0.0,0.0,0.0,0.0,0.0,0.0,0.0,0.0,0.0,0.0,0.0,0.0,0.0,0.0,0.0,0.0,0.0,0.0,0.0,0.0,0.0,0.0,0.0,0.0,0.0,0.0,0.0,0.0,0.0,0.0,0.0,0.0,0.0,0.0,0.0,0.0,0.0,0.0,0.0,0.0,0.0,0.0,0.0,0.0,0.0,0.0,0.0,0.0,0.0,0.0,0.0,0.0,0.0,0.0,0.0,0.0,0.0,0.0,0.0,0.0,0.0,0.0,0.0,0.0,0.0,0.0,0.0,0.0,0.0,0.0,0.0,0.0,0.0,0.0,0.0,0.0,0.0,0.0,0.0,0.0,0.0,0.0,0.0,0.0,0.0,0.0,0.0,0.0,0.0,0.0,0.0,0.0,0.0,0.0,0.0,0.0,0.0,0.0,0.0,0.0,0.0,0.0,0.0,0.0,0.0,0.0,0.0,0.0,0.0,0.0,0.0,0.0,0.0,0.0,0.0,0.0,0.0,0.0,0.0,0.0,0.0,0.0,0.0,0.0,0.0,0.0,0.0,0.0,0.0,0.0,0.0,0.0,0.0,0.0,0.0,0.0,0.0,0.0,0.0,0.0,0.0,0.0,0.0,0.0,0.0,0.0,0.0,0.0,0.0,0.0,0.0,0.0,0.0,0.0,0.0,0.0,0.0,0.0,0.0,0.0,0.0,0.0,0.0,0.0,0.0,0.0,0.0,0.0,0.0,0.0,0.0,0.0,0.0,0.0,0.0,0.0,0.0,0.0,0.0,0.0,0.0,0.0,0.0,0.0,0.0,0.0,0.0,0.0,0.0,0.0,0.0,0.0,0.0,0.0,0.0,0.0,0.0,0.0,0.0,0.0,0.0,0.0,0.0,0.0,0.0,0.0,0.0,0.0,0.0,0.0,0.0,0.0,0.0,0.0,0.0,0.0,0.0,0.0,0.0,0.0,0.0,0.0,0.0,0.0,0.0,0.0,0.0,0.0,0.0,0.0,0.0,0.0,0.0,0.0,0.0,0.0,0.0,0.0,0.0,0.0,0.0,0.0,0.0,0.0,0.0,0.0,0.0,0.0,0.0,0.0,0.0,0.0,0.0,0.0,0.0,0.0,0.0,0.0,0.0,0.0,0.0,0.0,0.0,0.0,0.0,0.0,0.0,0.0,0.0,0.0,0.0,0.0,0.0,0.0,0.0,0.0,0.0,0.0,0.0,0.0,0.0,0.0,0.0,0.0,0.0,0.0,0.0,0.0,0.0,0.0,0.0,0.0,0.0,0.0,0.0,0.0,0.0,0.0,0.0,0.0,0.0,0.0,0.0,0.0,0.0,0.0,0.0,0.0,0.0,0.0,0.0,0.0,0.0,0.0,0.0,0.0,0.0,0.0,0.0,0.0,0.0,0.0,0.0,0.0,0.0,0.0,0.0,0.0,0.0,0.0,0.0,0.0,0.0,0.0,0.0,0.0,0.0,0.0,0.0,0.0,0.0,0.0,0.0,0.0,0.0,0.0,0.0,0.0,0.0,0.0,0.0,0.0,0.0,0.0,0.0,0.0,0.0,0.0,0.0,0.0,0.0,0.0,0.0,0.0,0.0,0.0,0.0,0.0,0.0,0.0,0.0,0.0,0.0,0.0,0.0,0.0,0.0,0.0,0.0,0.0,0.0,0.0,0.0,0.0,0.0,0.0,0.0,0.0,0.0,0.0,0.0,0.0,0.0,0.0,0.0,0.0,0.0,0.0,0.0,0.0,0.0,0.0,0.0,0.0,0.0,0.0,0.0,0.0,0.0,0.0,0.0,0.0,0.0,0.0,0.0,0.0,0.0,0.0,0.0,0.0,0.0,0.0,0.0,0.0,0.0,0.0,0.0,0.0,0.0,0.0,0.0,0.0,0.0,0.0,0.0,0.0,0.0,0.0,0.0,0.0,0.0,0.0,0.0,0.0,0.0,0.0,0.0,0.0,0.0,0.0,0.0,0.0,0.0,0.0,0.0,0.0,0.0,0.0,0.0,0.0,0.0,0.0,0.0,0.0,0.0,0.0,0.0,0.0,0.0,0.0,0.0,0.0,0.0,0.0,0.0,0.0,0.0,0.0,0.0,0.0,0.0,0.0,0.0,0.0,0.0,0.0,0.0,0.0,0.0,0.0,0.0,0.0,0.0,0.0,0.0,0.0,0.0,0.0,0.0,0.0,0.0,0.0,0.0,0.0,0.0,0.0,0.0,0.0,0.0,0.0,0.0,0.0,0.0,0.0,0.0,0.0,0.0,0.0,0.0,0.0,0.0,0.0,0.0,0.0,0.0,0.0,0.0,0.0,0.0,0.0,0.0,0.0,0.0,0.0,0.0,0.0,0.0,0.0,0.0,0.0,0.0,0.0,0.0,0.0,0.0,0.0,0.0,0.0,0.0,0.0,0.0,0.0,0.0,0.0,0.0,0.0,0.0,0.0,0.0,0.0,0.0,0.0,0.0,0.0,0.0,0.0,0.0,0.0,0.0,0.0,0.0,0.0,0.0,0.0,0.0,0.0,0.0,0.0,0.0,0.0,0.0,0.0,0.0,0.0,0.0,0.0,0.0,0.0,0.0,0.0,0.0,0.0,0.0,0.0,0.0,0.0,0.0,0.0,0.0,0.0,0.0,0.0,0.0,0.0,0.0,0.0,0.0,0.0,0.0,0.0,0.0,0.0,0.0,0.0,0.0,0.0,0.0,0.0,0.0,0.0,0.0,0.0,0.0,0.0,0.0,0.0,0.0,0.0,0.0,0.0,0.0,0.0,0.0,0.0,0.0,0.0,0.0,0.0,0.0,0.0,0.0,0.0,0.0,0.0,0.0,0.0,0.0,0.0,0.0,0.0,0.0,0.0,0.0,0.0,0.0,0.0,0.0,0.0,0.0,0.0,0.0,0.0,0.0,0.0,0.0,0.0,0.0,0.0,0.0,0.0,0.0,0.0,0.0,0.0,0.0,0.0,0.0,0.0,0.0,0.0,0.0,0.0,0.0,0.0,0.0,0.0,0.0,0.0,0.0,0.0,0.0,0.0,0.0,0.0,0.0,0.0,0.0,0.0,0.0,0.0,0.0,0.0,0.0,0.0,0.0,0.0,0.0,0.0,0.0,0.0,0.0,0.0,0.0,0.0,0.0,0.0,0.0,0.0,0.0,0.0,0.0,0.0,0.0,0.0,0.0,0.0,0.0,0.0,0.0,0.0,0.0,0.0,0.0,0.0,0.0,0.0,0.0,0.0,0.0,0.0,0.0,0.0,0.0,0.0,0.0,0.0,0.0,0.0,0.0,0.0,0.0,0.0,0.0,0.0,0.0,0.0,0.0,0.0,0.0,0.0,0.0,0.0,0.0,0.0,0.0,0.0,0.0,0.0,0.0,0.0,0.0,0.0,0.0,0.0,0.0,0.0,0.0,0.0,0.0,0.0,0.0,0.0,0.0,0.8293,0.0,0.0,0.0,0.6021,0.0,0.0,0.0,0.0,0.0,0.0,0.0,0.0,0.0,0.0,0.0,0.0,0.0,0.0,0.0,0.0,0.0,0.0,0.0,0.0,0.0,0.0,0.0,0.0,0.0,0.0,0.0,0.0,0.0,0.0,0.0,0.0,0.0,0.0,0.0,0.0,0.0,0.0,0.0,0.0,0.0,0.0,0.0,0.0,0.0,0.0,0.0,0.0,0.0,0.0,0.0,0.0,0.0,0.0,0.0,0.0,0.0,0.0,0.0,0.0,0.0,0.0,0.0,0.0,0.0,0.0,0.0,0.0,0.0,0.0,0.0,0.0,0.0,0.0,0.0,0.0,0.0,0.0,0.0,0.0,0.0,0.0,0.0,0.0,0.0,0.0,0.0,0.0,0.0,0.0,0.0,0.0,0.0,0.0,0.0,0.0,0.0,0.0,0.0,0.0,0.0,0.0,0.0,0.0,0.0,0.0,0.0,0.0,0.0,0.0,0.8515,0.8209,0.7364,0.6683,0.6256,0.0,0.0,0.0,0.0,0.0,0.0,0.0,0.0,0.0,0.0,0.0,0.0,0.0,0.0,0.0,0.0,0.0,0.0,0.0,0.0,0.0,0.0,0.0,0.0,0.0,0.0,0.0,0.0,0.0,0.0,0.0,0.0,0.0,0.0,0.0,0.0,0.0,0.0,0.0,0.0,0.0,0.0,0.0,0.0,0.0,0.0,0.0,0.0,0.0,0.0,0.0,0.0,0.0,0.0,0.0,0.0,0.0,0.0,0.0,0.0,0.0,0.0,0.0,0.0,0.0,0.0,0.0,0.0,0.0,0.0,0.0,0.0,0.0,0.0,0.0,0.0,0.0,0.0,0.0,0.0,0.0,0.0,0.0,0.0,0.0,0.0,0.0,0.0,0.0,0.0,0.0,0.0,0.0,0.0,0.0,0.0,0.0,0.0,0.0,0.0,0.0,0.0,0.0,0.0,0.0,0.0,0.0,0.0,0.0,0.0,0.0,0.0,0.7697,0.7086,0.6574,0.0,0.0,0.0,0.0,0.0,0.0,0.0,0.0,0.0,0.0,0.0,0.0,0.0,0.0,0.0,0.0,0.0,0.0,0.0,0.0,0.0,0.0,0.0,0.0,0.0,0.0,0.0,0.0,0.0,0.0,0.0,0.0,0.0,0.0,0.0,0.0,0.0,0.0,0.0,0.0,0.0,0.0,0.0,0.0,0.0,0.0,0.0,0.0,0.0,0.0,0.0,0.0,0.0,0.0,0.0,0.0,0.0,0.0,0.0,0.0,0.0,0.0,0.0,0.0,0.0,0.0,0.0,0.0,0.0,0.0,0.0,0.0,0.0,0.0,0.0,0.0,0.0,0.0,0.0,0.0,0.0,0.0,0.0,0.0,0.0,0.0,0.0,0.0,0.0,0.0,0.0,0.0,0.0,0.0,0.0,0.0,0.0,0.0,0.0,0.0,0.0,0.0,0.0,0.0,0.0,0.0,0.0,0.0,0.0,0.0,0.8752,0.8567,0.8127,0.0,0.6957,0.0,0.0,0.0,0.0,0.0,0.0,0.0,0.0,0.0,0.0,0.0,0.0,0.0,0.0,0.0,0.0,0.0,0.0,0.0,0.0,0.0,0.0,0.0,0.0,0.0,0.0,0.0,0.0,0.0,0.0,0.0,0.0,0.0,0.0,0.0,0.0,0.0,0.0,0.0,0.0,0.0,0.0,0.0,0.0,0.0,0.0,0.0,0.0,0.0,0.0,0.0,0.0,0.0,0.0,0.0,0.0,0.0,0.0,0.0,0.0,0.0,0.0,0.0,0.0,0.0,0.0,0.0,0.0,0.0,0.0,0.0,0.0,0.0,0.0,0.0,0.0,0.0,0.0,0.0,0.0,0.0,0.0,0.0,0.0,0.0,0.0,0.0,0.0,0.0,0.0,0.0,0.0,0.0,0.0,0.0,0.0,0.0,0.0,0.0,0.0,0.0,0.0,0.0,0.0,0.0,0.0,0.0,0.0,0.0,0.0,0.8752,0.8633,0.8036,0.7605,0.0,0.0,0.0,0.0,0.0,0.0,0.0,0.0,0.0,0.0,0.0,0.0,0.0,0.0,0.0,0.0,0.0,0.0,0.0,0.0,0.0,0.0,0.0,0.0,0.0,0.0,0.0,0.0,0.0,0.0,0.0,0.0,0.0,0.0,0.0,0.0,0.0,0.0,0.0,0.0,0.0,0.0,0.0,0.0,0.0,0.0,0.0,0.0,0.0,0.0,0.0,0.0,0.0,0.0,0.0,0.0,0.0,0.0,0.0,0.0,0.0,0.0,0.0,0.0,0.0,0.0,0.0,0.0,0.0,0.0,0.0,0.0,0.0,0.0,0.0,0.0,0.0,0.0,0.0,0.0,0.0,0.0,0.0,0.0,0.0,0.0,0.0,0.0,0.0,0.0,0.0,0.0,0.0,0.0,0.0,0.0,0.0,0.0,0.0,0.0,0.0,0.0,0.0,0.0,0.0,0.0,0.0,0.0,0.0,0.0,0.8577,0.8684,0.854,0.8029,0.7693,0.7649,0.0,0.0,0.0,0.0,0.0,0.0,0.0,0.0,0.0,0.0,0.0,0.0,0.0,0.0,0.0,0.0,0.0,0.0,0.0,0.0,0.0,0.0,0.0,0.0,0.0,0.0,0.0,0.0,0.0,0.0,0.0,0.0,0.0,0.0,0.0,0.0,0.0,0.0,0.0,0.0,0.0,0.0,0.0,0.0,0.0,0.0,0.0,0.0,0.0,0.0,0.0,0.0,0.0,0.0,0.0,0.0,0.0,0.0,0.0,0.0,0.0,0.0,0.0,0.0,0.0,0.0,0.0,0.0,0.0,0.0,0.0,0.0,0.0,0.0,0.0,0.0,0.0,0.0,0.0,0.0,0.0,0.0,0.0,0.0,0.0,0.0,0.0,0.0,0.0,0.0,0.0,0.0,0.0,0.0,0.0,0.0,0.0,0.0,0.0,0.0,0.0,0.0,0.0,0.0,0.0,0.0,0.0,0.0,0.8486,0.844,0.844,0.8527,0.8359,0.8068,0.0,0.0,0.0,0.0,0.0,0.0,0.0,0.0,0.0,0.0,0.0,0.0,0.0,0.0,0.0,0.0,0.0,0.0,0.0,0.0,0.0,0.0,0.0,0.0,0.0,0.0,0.0,0.0,0.0,0.0,0.0,0.0,0.0,0.0,0.0,0.0,0.0,0.0,0.0,0.0,0.0,0.0,0.0,0.0,0.0,0.0,0.0,0.0,0.0,0.0,0.0,0.0,0.0,0.0,0.0,0.0,0.0,0.0,0.0,0.0,0.0,0.0,0.0,0.0,0.0,0.0,0.0,0.0,0.0,0.0,0.0,0.0,0.0,0.0,0.0,0.0,0.0,0.0,0.0,0.0,0.0,0.0,0.0,0.0,0.0,0.0,0.0,0.0,0.0,0.0,0.0,0.0,0.0,0.0,0.0,0.0,0.0,0.0,0.0,0.0,0.0,0.0,0.0,0.0,0.0,0.0,0.0,0.0,0.0,0.8228,0.8595,0.8704,0.85,0.8359,0.8101,0.0,0.0,0.0,0.0,0.0,0.0,0.0,0.0,0.0,0.0,0.0,0.0,0.0,0.0,0.0,0.0,0.0,0.0,0.0,0.0,0.0,0.0,0.0,0.0,0.0,0.0,0.0,0.0,0.0,0.0,0.0,0.0,0.0,0.0,0.0,0.0,0.0,0.0,0.0,0.0,0.0,0.0,0.0,0.0,0.0,0.0,0.0,0.0,0.0,0.0,0.0,0.0,0.0,0.0,0.0,0.0,0.0,0.0,0.0,0.0,0.0,0.0,0.0,0.0,0.0,0.0,0.0,0.0,0.0,0.0,0.0,0.0,0.0,0.0,0.0,0.0,0.0,0.0,0.0,0.0,0.0,0.0,0.0,0.0,0.0,0.0,0.0,0.0,0.0,0.0,0.0,0.0,0.0,0.0,0.0,0.0,0.0,0.0,0.0,0.0,0.0,0.0,0.0,0.0,0.0,0.0,0.0,0.0,0.0,0.8546,0.9099,0.9225,0.8853,0.8756,0.84,0.0,0.0,0.0,0.0,0.0,0.0,0.0,0.0,0.0,0.0,0.0,0.0,0.0,0.0,0.0,0.0,0.0,0.0,0.0,0.0,0.0,0.0,0.0,0.0,0.0,0.0,0.0,0.0,0.0,0.0,0.0,0.0,0.0,0.0,0.0,0.0,0.0,0.0,0.0,0.0,0.0,0.0,0.0,0.0,0.0,0.0,0.0,0.0,0.0,0.0,0.0,0.0,0.0,0.0,0.0,0.0,0.0,0.0,0.0,0.0,0.0,0.0,0.0,0.0,0.0,0.0,0.0,0.0,0.0,0.0,0.0,0.0,0.0,0.0,0.0,0.0,0.0,0.0,0.0,0.0,0.0,0.0,0.0,0.0,0.0,0.0,0.0,0.0,0.0,0.0,0.0,0.0,0.0,0.0,0.0,0.0,0.0,0.0,0.0,0.0,0.0,0.0,0.0,0.0,0.0,0.0,0.0,0.0,0.8801,0.951,0.9965,1.0048,0.9643,0.9502,0.9026,0.0,0.0,0.0,0.0,0.0,0.0,0.0,0.0,0.0,0.0,0.0,0.0,0.0,0.0,0.0,0.0,0.0,0.0,0.0,0.0,0.0,0.0,0.0,0.0,0.0,0.0,0.0,0.0,0.0,0.0,0.0,0.0,0.0,0.0,0.0,0.0,0.0,0.0,0.0,0.0,0.0,0.0,0.0,0.0,0.0,0.0,0.0,0.0,0.0,0.0,0.0,0.0,0.0,0.0,0.0,0.0,0.0,0.0,0.0,0.0,0.0,0.0,0.0,0.0,0.0,0.0,0.0,0.0,0.0,0.0,0.0,0.0,0.0,0.0,0.0,0.0,0.0,0.0,0.0,0.0,0.0,0.0,0.0,0.0,0.0,0.0,0.0,0.0,0.0,0.0,0.0,0.0,0.0,0.0,0.0,0.0,0.0,0.0,0.0,0.0,0.0,0.0,0.0,0.0,0.0,0.0,0.0,0.0,0.0,1.1148,1.1172,1.123,1.1236,1.0748,0.9915,0.0,0.0,0.0,0.0,0.0,0.0,0.0,0.0,0.0,0.0,0.0,0.0,0.0,0.0,0.0,0.0,0.0,0.0,0.0,0.0,0.0,0.0,0.0,0.0,0.0,0.0,0.0,0.0,0.0,0.0,0.0,0.0,0.0,0.0,0.0,0.0,0.0,0.0,0.0,0.0,0.0,0.0,0.0,0.0,0.0,0.0,0.0,0.0,0.0,0.0,0.0,0.0,0.0,0.0,0.0,0.0,0.0,0.0,0.0,0.0,0.0,0.0,0.0,0.0,0.0,0.0,0.0,0.0,0.0,0.0,0.0,0.0,0.0,0.0,0.0,0.0,0.0,0.0,0.0,0.0,0.0,0.0,0.0,0.0,0.0,0.0,0.0,0.0,0.0,0.0,0.0,0.0,0.0,0.0,0.0,0.0,0.0,0.0,0.0,0.0,0.0,0.0,0.0,0.0,0.0,0.0,0.0,0.0,0.0,1.3947,1.3487,1.3227,1.3289,1.2537,1.142,0.9878,0.0,0.0,0.0,0.0,0.0,0.0,0.0,0.0,0.0,0.0,0.0,0.0,0.0,0.0,0.0,0.0,0.0,0.0,0.0,0.0,0.0,0.0,0.0,0.0,0.0,0.0,0.0,0.0,0.0,0.0,0.0,0.0,0.0,0.0,0.0,0.0,0.0,0.0,0.0,0.0,0.0,0.0,0.0,0.0,0.0,0.0,0.0,0.0,0.0,0.0,0.0,0.0,0.0,0.0,0.0,0.0,0.0,0.0,0.0,0.0,0.0,0.0,0.0,0.0,0.0,0.0,0.0,0.0,0.0,0.0,0.0,0.0,0.0,0.0,0.0,0.0,0.0,0.0,0.0,0.0,0.0,0.0,0.0,0.0,0.0,0.0,0.0,0.0,0.0,0.0,0.0,0.0,0.0,0.0,0.0,0.0,0.0,0.0,0.0,0.0,0.0,0.0,0.0,0.0,0.0,0.0,0.0,0.0,1.78,1.6652,1.5963,1.5806,1.485,1.3399,0.0,0.0,0.0,0.0,0.0,0.0,0.0,0.0,0.0,0.0,0.0,0.0,0.0,0.0,0.0,0.0,0.0,0.0,0.0,0.0,0.0,0.0,0.0,0.0,0.0,0.0,0.0,0.0,0.0,0.0,0.0,0.0,0.0,0.0,0.0,0.0,0.0,0.0,0.0,0.0,0.0,0.0,0.0,0.0,0.0,0.0,0.0,0.0,0.0,0.0,0.0,0.0,0.0,0.0,0.0,0.0,0.0,0.0,0.0,0.0,0.0,0.0,0.0,0.0,0.0,0.0,0.0,0.0,0.0,0.0,0.0,0.0,0.0,0.0,0.0,0.0,0.0,0.0,0.0,0.0,0.0,0.0,0.0,0.0,0.0,0.0,0.0,0.0,0.0,0.0,0.0,0.0,0.0,0.0,0.0,0.0,0.0,0.0,0.0,0.0,0.0,0.0,0.0,0.0,0.0,0.0,0.0,0.0,0.0,1.9427,2.048,2.0348,1.8944,1.7009,1.5062,0.0,0.0,0.0,0.0,0.0,0.0,0.0,0.0,0.0,0.0,0.0,0.0,0.0,0.0,0.0,0.0,0.0,0.0,0.0,0.0,0.0,0.0,0.0,0.0,0.0,0.0,0.0,0.0,0.0,0.0,0.0,0.0,0.0,0.0,0.0,0.0,0.0,0.0,0.0,0.0,0.0,0.0,0.0,0.0,0.0,0.0,0.0,0.0,0.0,0.0,0.0,0.0,0.0,0.0,0.0,0.0,0.0,0.0,0.0,0.0,0.0,0.0,0.0,0.0,0.0,0.0,0.0,0.0,0.0,0.0,0.0,0.0,0.0,0.0,0.0,0.0,0.0,0.0,0.0,0.0,0.0,0.0,0.0,0.0,0.0,0.0,0.0,0.0,0.0,0.0,0.0,0.0,0.0,0.0,0.0,0.0,0.0,0.0,0.0,0.0,0.0,0.0,0.0,0.0,0.0,0.0,0.0,0.0,1.8479,2.0969,2.284,2.3326,2.2225,1.9627,1.7259,0.0,0.0,0.0,0.0,0.0,0.0,0.0,0.0,0.0,0.0,0.0,0.0,0.0,0.0,0.0,0.0,0.0,0.0,0.0,0.0,0.0,0.0,0.0,0.0,0.0,0.0,0.0,0.0,0.0,0.0,0.0,0.0,0.0,0.0,0.0,0.0,0.0,0.0,0.0,0.0,0.0,0.0,0.0,0.0,0.0,0.0,0.0,0.0,0.0,0.0,0.0,0.0,0.0,0.0,0.0,0.0,0.0,0.0,0.0,0.0,0.0,0.0,0.0,0.0,0.0,0.0,0.0,0.0,0.0,0.0,0.0,0.0,0.0,0.0,0.0,0.0,0.0,0.0,0.0,0.0,0.0,0.0,0.0,0.0,0.0,0.0,0.0,0.0,0.0,0.0,0.0,0.0,0.0,0.0,0.0,0.0,0.0,0.0,0.0,0.0,0.0,0.0,0.0,0.0,0.0,0.0,0.0,0.0,1.9942,2.2358,2.4214,2.5137,2.5059,2.216,1.9403,0.0,0.0,0.0,0.0,0.0,0.0,0.0,0.0,0.0,0.0,0.0,0.0,0.0,0.0,0.0,0.0,0.0,0.0,0.0,0.0,0.0,0.0,0.0,0.0,0.0,0.0,0.0,0.0,0.0,0.0,0.0,0.0,0.0,0.0,0.0,0.0,0.0,0.0,0.0,0.0,0.0,0.0,0.0,0.0,0.0,0.0,0.0,0.0,0.0,0.0,0.0,0.0,0.0,0.0,0.0,0.0,0.0,0.0,0.0,0.0,0.0,0.0,0.0,0.0,0.0,0.0,0.0,0.0,0.0,0.0,0.0,0.0,0.0,0.0,0.0,0.0,0.0,0.0,0.0,0.0,0.0,0.0,0.0,0.0,0.0,0.0,0.0,0.0,0.0,0.0,0.0,0.0,0.0,0.0,0.0,0.0,0.0,0.0,0.0,0.0,0.0,0.0,0.0,0.0,0.0,0.0,0.0,0.0,2.1133,2.3388,2.4813,2.5586,2.5586,2.2955,2.0485,0.0,0.0,0.0,0.0,0.0,0.0,0.0,0.0,0.0,0.0,0.0,0.0,0.0,0.0,0.0,0.0,0.0,0.0,0.0,0.0,0.0,0.0,0.0,0.0,0.0,0.0,0.0,0.0,0.0,0.0,0.0,0.0,0.0,0.0,0.0,0.0,0.0,0.0,0.0,0.0,0.0,0.0,0.0,0.0,0.0,0.0,0.0,0.0,1.0275,0.0,0.0,0.0,0.0,0.0,0.0,0.0,0.0,0.0,0.0,0.0,0.0,0.0,0.0,0.0,0.0,0.0,0.0,0.0,0.0,0.0,0.0,0.0,0.0,0.0,0.0,0.0,0.0,0.0,0.0,0.0,0.0,0.0,0.0,0.0,0.0,0.0,0.0,0.0,0.0,0.0,0.0,0.0,0.0,0.0,0.0,0.0,0.0,0.0,0.0,0.0,0.0,0.0,0.0,0.0,0.0,0.0,0.0,0.0,2.2236,2.4526,2.609,2.6738,2.6309,2.4735,2.2397,0.0,0.0,0.0,0.0,0.0,0.0,0.0,0.0,0.0,0.0,0.0,0.0,0.0,0.0,0.0,0.0,0.0,0.0,0.0,0.0,0.0,0.0,0.0,0.0,0.0,0.0,0.0,0.0,0.0,0.0,0.0,0.0,0.0,0.0,0.0,0.0,0.0,0.0,0.0,0.0,0.0,0.0,0.0,0.0,0.0,0.0,0.0,0.0,0.0,0.0,0.0,0.0,0.0,0.0,0.0,0.0,0.0,0.0,0.0,0.0,0.0,0.0,0.0,0.0,0.0,0.0,0.0,0.0,0.0,0.0,0.0,0.0,0.0,0.0,0.0,0.0,0.0,0.0,0.0,0.0,0.0,0.0,0.0,0.0,0.0,0.0,0.0,0.0,0.0,0.0,0.0,0.0,0.0,0.0,0.0,0.0,0.0,0.0,0.0,0.0,0.0,0.0,0.0,0.0,0.0,0.0,0.0,2.0467,2.3205,2.5681,2.7396,2.791,2.7129,2.652,2.4335,2.054,0.0,0.0,0.0,0.0,0.0,0.0,0.0,0.0,0.0,0.0,0.0,0.0,0.0,0.0,0.0,0.0,0.0,0.0,0.0,0.0,0.0,0.0,0.0,0.0,0.0,0.0,0.0,0.0,0.0,0.0,0.0,0.0,0.0,0.0,0.0,0.0,0.0,0.0,1.0821,1.2838,0.0,0.0,0.0,0.0,0.0,0.0,0.0,0.0,1.1739,0.0,0.0,0.0,0.0,0.0,0.0,0.0,0.0,0.0,0.0,0.0,0.0,0.0,0.0,0.0,0.0,0.0,0.0,0.0,0.0,0.0,0.0,0.0,0.0,0.0,0.0,0.0,0.0,0.0,0.0,0.0,0.0,0.0,0.0,0.0,0.0,0.0,0.0,0.0,0.0,0.0,0.0,0.0,0.0,0.0,0.0,0.0,0.0,0.0,0.0,0.0,0.0,0.0,0.0,0.0,0.0,1.9147,2.1658,2.4371,2.7182,2.7969,2.8047,2.7559,2.6797,2.4813,2.1513,0.0,0.0,0.0,0.0,0.0,0.0,0.0,0.0,0.0,0.0,0.0,0.0,0.0,0.0,0.0,0.0,0.0,0.0,0.0,0.0,0.0,0.0,0.0,0.0,0.0,0.0,0.0,0.0,0.0,0.0,0.0,0.0,0.0,0.0,0.0,0.0,0.0,0.0,0.0,1.5116,1.5527,0.0,0.0,0.0,0.0,0.0,0.0,0.0,0.0,1.3393,0.0,0.0,0.0,0.0,0.0,0.0,0.0,0.0,0.0,0.0,0.0,0.0,0.0,0.0,0.0,0.0,0.0,0.0,0.0,0.0,0.0,0.0,0.0,0.0,0.0,0.0,0.0,0.0,0.0,0.0,0.0,0.0,0.0,0.0,0.0,0.0,0.0,0.0,0.0,0.0,0.0,0.0,0.0,0.0,0.0,0.0,0.0,0.0,0.0,0.0,0.0,0.0,0.0,0.0,0.0,1.9598,2.2889,2.5653,2.7949,2.8828,2.8965,2.832,2.75,2.5528,0.0,0.0,0.0,0.0,0.0,0.0,0.0,0.0,0.0,0.0,0.0,0.0,0.0,0.0,0.0,0.0,0.0,0.0,0.0,0.0,0.0,0.0,0.0,0.0,0.0,0.0,0.0,0.0,0.0,0.0,0.0,0.0,0.0,0.0,0.0,0.0,0.0,0.0,0.0,0.0,1.6495,1.8127,1.9989,0.0,0.0,0.0,0.0,0.0,0.0,1.5794,1.4992,0.0,0.0,0.0,0.0,0.0,0.0,0.0,0.0,0.0,0.0,0.0,0.0,0.0,0.0,0.0,0.0,0.0,0.0,0.0,0.0,0.0,0.0,0.0,0.0,0.0,0.0,0.0,0.0,0.0,0.0,0.0,0.0,0.0,0.0,0.0,0.0,0.0,0.0,0.0,0.0,0.0,0.0,0.0,0.0,0.0,0.0,0.0,0.0,0.0,0.0,0.0,0.0,0.0,0.0,0.0,1.997,2.3899,2.6814,2.8535,2.9726,2.9922,2.9062,2.8066,2.5935,0.0,0.0,0.0,0.0,0.0,0.0,0.0,0.0,0.0,0.0,0.0,0.0,0.0,0.0,0.0,0.0,0.0,0.0,0.0,0.0,0.0,0.0,0.0,0.0,0.0,0.0,0.0,0.0,0.0,0.0,0.0,0.0,0.0,0.0,0.0,0.0,0.0,0.0,0.0,0.0,0.0,2.0546,2.4702,2.2187,0.0,0.0,0.0,0.0,1.7863,1.7789,0.0,0.0,0.0,0.0,0.0,0.0,0.0,0.0,0.0,0.0,0.0,0.0,0.0,0.0,0.0,0.0,0.0,0.0,0.0,0.0,0.0,0.0,0.0,0.0,0.0,0.0,0.0,0.0,0.0,0.0,0.0,0.0,0.0,0.0,0.0,0.0,0.0,0.0,0.0,0.0,0.0,0.0,0.0,0.0,0.0,0.0,0.0,0.0,0.0,0.0,0.0,0.0,0.0,0.0,0.0,0.0,2.0771,2.4745,2.768,2.9394,3.0332,3.0391,2.9512,2.793,2.5742,0.0,0.0,0.0,0.0,0.0,0.0,0.0,0.0,0.0,0.0,0.0,0.0,0.0,0.0,0.0,0.0,0.0,0.0,0.0,0.0,0.0,0.0,0.0,0.0,0.0,0.0,0.0,0.0,0.0,0.0,0.0,0.0,0.0,0.0,0.0,0.0,0.0,0.0,0.0,0.0,0.0,2.1688,2.7731,2.4983,2.2227,0.0,0.0,2.219,2.1478,2.1747,0.0,0.0,0.0,0.0,0.0,0.0,0.0,0.0,0.0,0.0,0.0,0.0,0.0,0.0,0.0,0.0,0.0,0.0,0.0,0.0,0.0,0.0,0.0,0.0,0.0,0.0,0.0,0.0,0.0,0.0,0.0,0.0,0.0,0.0,0.0,0.0,0.0,0.0,0.0,0.0,0.0,0.0,0.0,0.0,0.0,0.0,0.0,0.0,0.0,0.0,0.0,0.0,0.0,0.0,0.0,1.7792,2.0934,2.5419,2.8183,2.918,2.9824,2.9844,2.9219,2.7559,2.547,0.0,0.0,0.0,0.0,0.0,0.0,0.0,0.0,0.0,0.0,0.0,0.0,0.0,0.0,0.0,0.0,0.0,0.0,0.0,0.0,0.0,0.0,0.0,0.0,0.0,0.0,0.0,0.0,0.0,0.0,0.0,0.0,0.0,0.0,0.0,0.0,0.0,0.0,0.0,0.0,0.0,0.0,2.5614,2.4958,0.0,0.0,0.0,2.326,2.1627,0.0,0.0,0.0,0.0,0.0,0.0,0.0,0.0,0.0,0.0,0.0,0.0,0.0,0.0,0.0,0.0,0.0,0.0,0.0,0.0,0.0,0.0,0.0,0.0,0.0,0.0,0.0,0.0,0.0,0.0,0.0,0.0,0.0,0.0,0.0,0.0,0.0,0.0,0.0,0.0,0.0,0.0,0.0,0.0,0.0,0.0,0.0,0.0,0.0,0.0,0.0,0.0,0.0,0.0,0.0,0.0,0.0,2.1167,2.5963,2.8594,2.8926,2.9355,2.9355,2.8906,2.748,0.0,0.0,0.0,0.0,0.0,0.0,0.0,0.0,0.0,0.0,0.0,0.0,0.0,0.0,0.0,0.0,0.0,0.0,0.0,0.0,0.0,0.0,0.0,0.0,0.0,0.0,0.0,0.7141,0.0,0.0,0.0,0.0,0.0,0.0,0.0,0.0,0.0,0.0,0.0,0.0,0.0,0.0,2.1411,2.3341,2.4386,2.4951,0.0,0.0,2.3719,2.1691,2.2303,2.1895,0.0,0.0,0.0,0.0,0.0,0.0,0.0,0.0,0.0,0.0,0.0,0.0,0.0,0.0,0.0,0.0,0.0,0.0,0.0,0.0,0.0,0.0,0.0,0.0,0.0,0.0,0.0,0.0,0.6972,0.0,0.0,0.0,0.0,0.0,0.0,0.0,0.0,0.0,0.0,0.0,0.0,0.0,0.0,0.0,0.0,0.0,0.0,0.0,0.0,0.0,0.0,0.0,0.0,0.0,0.0,2.1784,2.6385,2.8887,2.8945,2.9336,2.9355,2.8926,2.8047,2.6387,0.0,0.0,0.0,0.0,0.0,0.0,0.0,0.0,0.0,0.0,0.0,0.0,0.0,0.0,0.0,0.0,0.0,0.0,0.0,0.0,0.0,0.0,0.0,0.0,0.0,0.0,0.0,0.0,0.0,0.0,0.0,0.0,0.0,0.0,0.0,0.0,0.0,0.0,0.0,0.0,0.0,2.0232,2.2754,2.3829,2.4614,0.0,0.0,2.394,2.2814,2.3537,2.3145,2.0039,0.0,0.0,0.0,0.0,0.0,0.0,0.0,0.0,0.0,0.0,0.0,0.0,0.0,0.0,0.0,0.0,0.0,0.0,0.0,0.0,0.0,0.0,0.0,0.0,0.0,0.7482,0.0,0.0,0.6972,0.0,0.0,0.0,0.0,0.0,0.0,0.0,0.0,0.0,0.0,0.0,0.0,0.0,0.0,0.0,0.0,0.0,0.0,0.0,0.0,0.0,0.0,0.0,0.0,1.9512,2.1802,2.6193,2.8652,2.8906,2.9082,2.9219,2.9316,2.8496,2.709,0.0,0.0,0.0,0.0,0.0,0.0,0.0,0.0,0.0,0.0,0.0,0.0,0.0,0.0,0.0,0.0,0.0,0.0,0.0,0.0,0.0,0.0,0.0,0.0,0.0,0.0,0.0,0.0,1.3557,1.3682,1.1503,0.0,0.0,0.0,0.0,0.0,0.0,0.0,0.0,0.0,0.0,2.068,2.2726,2.3935,0.0,0.0,2.479,2.4115,2.2274,2.2807,2.2368,1.9411,1.7683,0.0,0.0,0.0,0.0,0.0,0.0,0.0,0.0,0.0,0.0,0.0,0.0,0.0,0.0,0.0,0.0,0.0,0.0,0.0,0.0,0.0,0.0,0.0,0.0,0.0,0.0,0.0,0.0,0.0,0.0,0.0,0.0,0.0,0.0,0.0,0.0,0.0,0.0,0.0,0.0,0.0,0.0,0.0,0.0,0.0,0.0,0.0,0.0,0.0,0.0,0.0,0.0,1.9813,2.2076,2.6314,2.8691,2.9101,2.9121,2.9258,2.9551,2.8984,2.793,0.0,0.0,0.0,0.0,0.0,0.0,0.0,0.0,0.0,0.0,0.0,0.0,0.0,0.0,0.0,0.0,0.0,0.0,0.0,0.0,0.0,0.0,0.0,0.0,0.0,0.0,0.0,0.0,1.4654,1.4419,1.2291,0.0,0.0,0.0,0.0,0.0,0.0,0.0,0.0,0.0,0.0,2.075,2.2186,2.336,2.4022,2.3806,2.3918,2.3348,2.1602,2.174,2.1274,1.9302,0.0,0.0,0.0,0.0,0.0,0.0,0.0,0.0,0.0,0.0,0.0,0.0,0.0,0.0,0.0,0.0,0.0,0.0,0.0,0.0,0.0,0.0,0.0,0.0,0.0,0.0,0.0,0.9047,0.0,0.0,0.8112,0.0,0.0,0.0,0.0,0.0,0.0,0.0,0.0,0.0,0.0,0.0,0.0,0.0,0.0,0.0,0.0,0.0,0.0,0.0,0.0,0.0,0.0,2.0016,2.2684,2.6737,2.9121,2.9551,2.957,2.959,2.9609,2.957,2.8945,2.7656,0.0,0.0,0.0,0.0,0.0,0.0,0.0,0.0,0.0,0.0,0.0,0.0,0.0,0.0,0.0,0.0,0.0,0.0,0.0,0.0,0.0,0.0,0.0,0.0,0.0,0.0,1.4032,1.4385,1.4245,0.0,0.0,0.0,0.0,0.0,0.0,0.0,0.0,0.0,0.0,1.8874,2.0093,2.1081,2.1809,2.1997,2.133,2.1515,2.1532,2.0873,2.0441,2.0227,0.0,0.0,0.0,0.0,0.0,0.0,0.0,0.0,0.0,0.0,0.0,0.0,0.0,0.0,0.0,0.0,0.0,0.0,0.0,0.0,0.0,0.0,0.0,0.0,0.0,0.0,0.0,1.2929,1.2129,0.0,0.0,0.0,0.0,0.0,0.0,0.0,0.0,0.0,0.0,0.0,2.1621,2.1741,0.0,0.0,0.0,0.0,0.0,0.0,0.0,0.0,0.0,0.0,0.0,0.0,2.0918,2.3168,2.7179,2.957,2.998,3.0293,3.0586,3.0859,3.1152,3.043,2.8358,0.0,0.0,0.0,0.0,0.0,0.0,0.0,0.0,0.0,0.0,0.0,0.0,0.0,0.0,0.0,0.0,0.0,0.0,0.0,0.0,0.0,0.0,0.0,0.0,0.0,1.6168,0.0,0.0,0.0,0.0,0.0,0.0,0.0,0.0,0.0,0.0,0.0,1.67,1.8776,1.9878,2.0668,2.1558,2.2002,2.2284,0.0,0.0,0.0,0.0,0.0,0.0,0.0,0.0,0.0,0.0,0.0,0.0,0.0,0.0,1.7848,1.6584,1.5913,1.552,1.5559,0.0,0.0,0.0,0.0,0.0,0.0,0.0,0.0,0.0,0.0,0.0,0.0,0.0,0.0,1.6499,0.0,1.5566,0.0,0.0,0.0,0.0,0.0,0.0,0.0,0.0,2.2367,2.3994,2.5058,2.5102,2.4928,0.0,2.3568,2.1306,0.0,0.0,0.0,0.0,0.0,0.0,0.0,0.0,2.202,2.4291,2.8095,3.0312,3.0859,3.1172,3.1465,3.1738,3.2012,3.1504,3.0003,2.8211,2.5901,0.0,0.0,0.0,0.0,0.0,0.0,0.0,0.0,0.0,0.0,0.0,0.0,0.0,0.0,0.0,0.0,0.0,0.0,0.0,0.0,0.0,0.0,0.0,1.7821,0.0,0.0,0.0,0.0,0.0,0.0,0.0,0.0,0.0,1.515,1.6593,1.8357,2.0307,2.0975,2.1483,2.2058,0.0,0.0,0.0,0.0,0.0,0.0,0.0,2.1764,2.1884,2.183,2.1857,2.2284,2.2065,2.2079,2.2628,0.0,0.0,1.9821,1.9122,1.8836,1.8842,1.8644,1.8482,1.859,1.8655,1.8918,0.0,0.0,0.0,0.0,0.0,0.0,0.0,0.0,2.0232,1.9931,0.0,1.9342,0.0,0.0,0.0,0.0,0.0,0.0,0.0,0.0,2.7168,2.8622,2.8076,2.8252,2.8272,2.796,2.6377,2.5369,2.473,2.1558,0.0,0.0,0.0,0.0,0.0,0.0,2.3373,2.6144,2.9292,3.1328,3.2109,3.2187,3.2226,3.2266,3.2285,3.2285,3.2226,3.0781,2.9563,2.8435,2.4505,0.0,0.0,0.0,0.0,0.0,0.0,0.0,0.0,0.0,0.0,0.0,0.0,0.0,0.0,0.0,0.0,0.0,0.0,0.0,0.0,1.7751,0.0,0.0,0.0,0.0,0.0,0.0,0.0,0.0,0.0,0.0,1.7368,1.8544,2.0067,2.179,0.0,0.0,0.0,0.0,2.314,2.2579,2.2712,2.2792,2.2539,2.2726,2.3193,2.4062,0.0,0.0,2.535,2.4847,2.4514,2.5105,2.5222,2.4569,2.266,2.2201,2.2019,2.2258,2.1892,2.176,2.1876,2.18,2.1857,2.3582,0.0,0.0,0.0,0.0,2.0631,2.1906,2.3636,2.4635,2.4669,2.4026,2.4515,0.0,0.0,0.0,0.0,0.0,0.0,2.4122,2.6085,2.8122,2.9579,3.047,3.0586,3.0586,3.0431,2.9672,2.9283,2.9133,2.8095,2.4638,1.8807,0.0,0.0,0.0,0.0,2.5534,2.8043,3.0568,3.1914,3.2168,3.2754,3.3359,3.3965,3.3965,3.4121,3.4453,3.3496,3.2163,3.049,2.8066,0.0,0.0,0.0,0.0,0.0,0.0,0.0,0.0,0.0,0.0,0.0,0.0,0.0,0.0,0.0,0.0,0.0,0.0,0.0,1.6782,1.9984,2.0801,0.0,0.0,0.0,0.0,0.0,0.0,0.0,0.0,0.0,2.0762,2.0722,2.1189,0.0,0.0,2.2819,2.3033,2.3394,2.3647,2.3688,2.3594,0.0,0.0,2.3901,2.4048,2.4716,2.5411,2.5985,2.6423,2.6262,2.6195,2.6635,2.6612,2.6423,2.5972,2.5283,2.481,2.462,2.4569,2.473,2.4824,2.4837,2.4783,2.7182,2.5064,2.3648,2.3366,2.3843,2.4411,2.5614,2.7246,2.8172,2.8334,2.7905,2.8435,2.7308,2.4877,2.4085,0.0,0.0,0.0,2.694,2.8868,2.9754,3.0743,3.1738,3.1777,3.1855,3.1992,3.1601,3.1562,3.1894,3.1562,2.9234,2.4808,0.0,0.0,2.3736,2.5928,2.8081,3.0217,3.2085,3.3008,3.3184,3.3672,3.418,3.4668,3.4883,3.5117,3.5371,3.5039,3.4297,3.2855,3.1041,2.8464,0.0,0.0,0.0,0.0,0.0,0.0,0.0,0.0,0.0,0.0,0.0,1.3633,1.1288,0.0,0.0,0.0,1.5914,1.7224,2.0099,2.1628,0.0,0.0,0.0,0.0,0.0,0.0,0.0,1.8624,2.012,2.1563,2.2779,2.2592,2.2752,2.3875,2.3754,2.3634,2.3821,0.0,2.4476,2.4543,2.4502,2.4583,2.493,2.493,2.513,2.5825,2.6466,2.7001,2.7281,2.7255,2.7281,2.7535,2.7615,2.7615,2.7615,2.7175,2.668,2.6293,2.6346,2.6466,2.648,2.648,2.6533,3.0,3.0137,2.7602,2.6956,2.7709,2.8481,2.9385,3.043,3.0879,3.0996,3.0818,3.1463,3.0741,2.8994,2.7995,0.0,2.8937,2.9222,3.02,3.166,3.1699,3.1934,3.2324,3.2363,3.2578,3.293,3.2559,3.2773,3.3457,3.2754,3.2241,3.1938,2.993,2.8477,2.7858,2.9145,3.0776,3.2536,3.3583,3.4316,3.4746,3.4746,3.4766,3.4805,3.5254,3.5508,3.5566,3.5918,3.5937,3.5527,3.356,3.1531,2.9697,0.0,0.0,0.0,0.0,0.0,0.0,0.0,0.0,0.0,0.0,0.0,0.0,0.0,0.0,1.5644,1.9139,0.0,2.4608,2.2763,0.0,0.0,0.0,1.8766,1.9132,1.996,2.0695,2.1256,0.0,0.0,2.3794,0.0,2.4543,2.5104,2.489,2.4676,2.4703,2.517,2.5451,2.5184,2.5411,2.5611,2.5665,2.5919,2.6373,2.7014,2.7509,2.7736,2.7949,2.7802,2.7776,2.8056,2.8136,2.8123,2.8136,2.807,2.7976,2.7402,2.7321,2.7321,2.7321,2.7308,2.7308,3.1621,3.166,3.1035,3.0606,3.0509,3.0704,3.1387,3.2207,3.2637,3.3008,3.3214,3.375,3.3467,3.2739,3.2545,3.237,3.2273,3.2727,3.2863,3.2988,3.3301,3.3516,3.3633,3.3945,3.4141,3.4238,3.4141,3.4199,3.4375,3.4199,3.4101,3.3934,3.3447,3.2545,3.1296,3.1527,3.2478,3.4109,3.4453,3.4766,3.5215,3.5234,3.5391,3.5703,3.6133,3.6523,3.6836,3.6953,3.6953,3.6836,3.5685,3.4212,3.2219,2.9107,0.0,0.0,0.0,0.0,0.0,0.0,0.0,0.0,0.0,1.7083,1.4775,0.0,1.9876,0.0,2.1677,2.3842,2.1905,2.3052,0.0,0.0,2.1576,2.12,2.1523,2.2178,2.2739,2.31,2.3901,2.4609,2.505,2.5358,2.5665,2.6012,2.5438,2.505,2.5277,2.5611,2.5825,2.5812,2.6172,2.6507,2.6533,2.7148,2.7509,2.7295,2.7509,2.7722,2.7789,2.7562,2.7535,2.8016,2.815,2.815,2.8163,2.815,2.811,2.7963,2.7936,2.7936,2.7936,2.7923,2.7936,3.2285,3.2461,3.2656,3.2812,3.291,3.2539,3.2734,3.3398,3.4023,3.4551,3.498,3.5586,3.5625,3.5234,3.5234,3.4883,3.4336,3.4551,3.4414,3.4004,3.4238,3.4355,3.4355,3.459,3.4805,3.5,3.5019,3.5098,3.5273,3.5293,3.5293,3.5293,3.5293,3.4809,3.3979,3.3785,3.407,3.4687,3.5078,3.541,3.5664,3.5859,3.5976,3.6035,3.6483,3.6673,3.6732,3.6765,3.6688,3.648,3.5995,3.5045,3.3514,3.0901,2.8239,0.0,0.0,0.0,0.0,0.0,0.0,0.0,0.0,0.0,0.0,0.0,2.2516,1.9934,2.2745,2.3902,2.202,2.3363,2.4075,2.3527,2.3379,2.344,2.3754,2.4209,2.4609,2.4903,2.5358,2.5825,2.6239,2.644,2.66,2.676,2.636,2.6052,2.6106,2.6346,2.6547,2.656,2.6814,2.7014,2.7014,2.7642,2.7989,2.7589,2.7696,2.7936,2.807,2.7856,2.7843,2.839,2.8537,2.8537,2.8524,2.8537,2.8537,2.8537,2.8537,2.8444,2.8203,2.815,2.815,3.2715,3.3066,3.3437,3.4043,3.4746,3.4043,3.4004,3.4473,3.5273,3.5801,3.6152,3.6894,3.6973,3.6601,3.6641,3.623,3.5488,3.5527,3.5312,3.4883,3.4863,3.4863,3.4863,3.4863,3.5078,3.5469,3.5469,3.5664,3.6016,3.6035,3.6035,3.6035,3.6035,3.5976,3.584,3.5605,3.5273,3.4883,3.5625,3.6035,3.6035,3.6387,3.6406,3.6074,3.6379,3.6329,3.5984,3.5925,3.583,3.5544,3.5448,3.5047,3.4303,3.2152,3.0016,0.0,2.5953,0.0,0.0,0.0,0.0,0.0,0.0,0.0,0.0,2.5371,2.4579,2.2665,2.2965,2.3434,2.361,2.383,2.4276,2.4915,2.5133,2.5424,2.5705,2.5972,2.6226,2.648,2.6507,2.6707,2.7148,2.7268,2.7255,2.7228,2.7241,2.7161,2.7054,2.7121,2.7201,2.7268,2.7295,2.7335,2.7428,2.7856,2.8096,2.7829,2.7923,2.823,2.8457,2.8297,2.8323,2.8672,2.8804,2.9005,2.8857,2.9018,2.9018,2.8991,2.8991,2.8845,2.843,2.831,2.8257,3.4258,3.4336,3.4414,3.4766,3.5273,3.5449,3.5781,3.6211,3.6719,3.6797,3.6562,3.6719,3.6543,3.6172,3.6504,3.6387,3.5918,3.6269,3.6191,3.5762,3.5781,3.5781,3.5762,3.5781,3.582,3.5898,3.5898,3.5937,3.6035,3.6035,3.6035,3.6035,3.6035,3.5664,3.5019,0.0,0.0,0.0,3.5937,3.6035,3.6035,3.6094,3.6094,3.6035,3.5812,0.0,3.5546,3.5037,3.506,3.5481,3.5004,0.0,0.0,0.0,0.0,0.0,0.0,0.0,0.0,0.0,0.0,0.0,2.9079,2.8062,2.7687,2.6983,2.5657,2.3694,2.3379,2.3749,2.4636,2.5039,2.5438,2.6383,2.6426,2.6613,2.6894,2.6987,2.7041,2.7081,2.7094,2.7148,2.7281,2.7268,2.7281,2.7348,2.7482,2.7682,2.7869,2.7549,2.7295,2.7281,2.7522,2.7722,2.7936,2.8283,2.8364,2.7909,2.7949,2.8177,2.8283,2.8257,2.8364,2.8791,2.9032,2.9273,2.9487,2.9259,2.9112,2.9058,2.9072,2.9005,2.8898,2.8871,2.8871,3.4687,0.0,3.4941,3.5176,0.0,3.6074,3.6465,3.6699,3.7324,3.748,3.7285,3.707,3.6738,3.6348,3.6562,3.6445,3.6035,3.625,3.623,3.6035,3.6035,3.6035,3.6035,3.6035,3.6035,3.6035,3.6035,3.6133,3.6328,3.6348,3.6445,3.666,3.6641,3.6426,3.6016,3.6426,3.6543,3.6348,3.6543,3.666,3.666,3.707,3.7187,3.6992,0.0,0.0,0.0,0.0,0.0,0.0,0.0,0.0,0.0,0.0,0.0,3.4023,3.2938,3.2428,3.2746,3.2765,3.3431,3.4815,3.4028,3.1929,2.8305,2.8777,2.8084,2.5437,2.4905,2.5077,2.5665,2.6119,2.6547,2.6987,2.7028,2.7025,2.7589,2.7754,2.7794,2.7883,2.7936,2.7976,2.8123,2.8136,2.8136,2.815,2.827,2.8404,2.8511,2.8021,2.7782,2.7928,2.8243,2.8404,2.8577,2.8845,2.8898,2.8511,2.8604,2.8845,2.9005,2.9018,2.9205,2.937,2.9707,2.9927,3.0299,3.0106,2.9913,2.99,2.9913,2.99,2.9873,2.9459,2.9045,3.4941,3.498,3.5332,3.5508,3.5566,3.6328,3.6719,3.6816,0.0,0.0,0.0,3.7344,3.6953,3.6562,3.6562,3.6367,3.6035,3.6035,3.6035,3.6035,3.6113,3.6133,3.6133,3.6211,3.625,3.625,3.625,3.6426,3.6777,3.6777,3.6953,3.7266,3.7305,3.7305,3.7305,3.7383,3.7285,3.7031,3.7266,3.7422,3.7422,3.8184,3.8418,3.8047,3.8271,3.7408,3.5402,3.4875,3.385,3.2175,3.3707,3.4805,3.4921,3.6085,3.663,3.6302,3.5816,3.5793,3.6726,3.6925,3.7306,3.8484,3.8103,3.5122,2.8882,3.041,3.0267,2.6756,2.6466,2.652,2.668,2.7121,2.7468,2.7562,2.7397,2.7596,2.8217,2.846,2.8528,2.8591,2.8657,2.8764,2.8951,2.8978,2.9045,2.9032,2.8951,2.9072,2.8884,2.8632,2.8486,2.8685,2.8898,2.9005,2.9058,2.9192,2.9299,2.9032,2.9192,2.9499,2.9753,2.9833,2.9853,2.9977,3.0425,3.0608,3.0872,3.0818,3.0742,3.0782,3.0795,3.0795,3.0715,3.0034,2.9432,3.584,3.584,3.5898,3.5937,3.5976,3.6465,3.6875,3.7207,3.7344,3.7187,3.6836,3.6777,3.6504,3.6113,3.6113,3.6074,3.6035,3.6035,3.6035,0.0,3.6406,3.6582,3.6601,3.6953,3.7109,3.7129,3.7109,3.7148,3.7207,3.7207,3.7246,3.7305,3.7305,3.7305,3.7324,3.7656,3.7988,3.8301,3.7988,3.7832,3.7851,3.832,3.8555,3.8496,3.8047,3.7606,3.7089,3.6381,3.6207,3.6622,3.6934,3.7555,3.8443,3.8686,3.8947,3.9207,3.9148,3.9168,3.9434,3.9434,3.9031,3.8126,3.8073,3.6395,3.2233,3.1315,2.9829,2.7054,2.6814,2.7081,2.7776,2.7963,2.8217,2.8671,2.8579,2.8632,2.8898,2.9058,2.9071,2.8991,2.8978,2.8991,2.9072,2.9085,2.9098,2.9058,2.9138,2.8964,2.911,2.8964,2.9005,2.9045,2.9058,2.9045,2.9112,2.9072,2.9152,2.9045,2.9112,2.9299,2.9606,2.9659,2.9793,3.0434,3.0375,3.0442,3.1231,3.1022,3.0778,3.0768,3.0835,3.0849,3.0862,3.0635,3.0501,3.6035,3.6035,3.6035,3.6035,3.6035,3.623,3.6426,3.6621,3.6855,3.6855,3.666,3.6426,3.6211,3.6055,3.6269,3.6367,3.6387,3.6621,3.6719,3.6719,3.6914,3.7012,3.7031,3.7207,3.7305,3.7305,3.7305,3.7402,3.7617,3.7637,3.7754,3.7969,3.7988,3.7988,3.8008,3.8184,3.8613,3.9258,3.8848,3.875,3.9004,3.9648,3.998,4.0,4.0104,3.9546,3.8439,3.8134,3.7593,3.6764,3.7914,3.8658,3.9152,4.0292,4.1113,4.1269,4.1269,4.1269,4.1269,4.1269,4.0936,4.033,3.9033,3.7136,3.4498,3.2373,3.0349,2.8311,2.7883,2.8016,2.8564,2.8631,2.8804,2.9232,2.8964,2.899,2.9432,2.9568,2.9542,2.9486,2.9513,2.9513,2.9513,2.9513,2.9513,2.9513,2.9513,2.9566,2.9495,2.9429,2.9513,2.9526,2.9526,2.9513,2.9499,2.9513,2.9513,2.9513,2.9513,2.9633,2.9887,2.9953,3.0074,3.0523,3.0394,3.063,3.1002,3.0939,3.0875,3.0982,3.1183,3.1249,3.1263,3.1276,3.1169,3.6035,3.6035,3.6035,3.6074,3.6172,3.6172,3.6211,3.6348,3.668,3.6816,3.6777,3.6445,3.6309,3.6348,3.666,3.6816,3.6855,3.7148,3.7305,3.7305,3.7383,3.7441,3.7461,3.7539,3.7578,3.7598,3.7578,3.7754,3.8047,3.8086,3.8301,3.8691,3.8828,3.8867,3.8867,3.8867,3.9316,4.0098,3.9824,3.9863,4.0332,4.1074,4.1445,4.1504,4.207,4.1579,4.0084,3.9995,3.9212,3.7691,3.9285,4.0179,4.0362,4.18,4.2832,4.2754,4.291,4.2969,4.2871,4.2871,4.2651,4.1886,3.9497,3.72,3.5427,3.3056,3.0923,2.946,2.8965,2.9018,2.9299,2.9419,2.9526,2.974,2.9579,2.9619,2.9927,3.0012,2.9931,2.99,2.9913,2.99,2.9927,2.998,3.0034,3.01,3.0114,3.0114,2.992,2.992,3.0114,3.0087,3.0007,2.9887,2.9913,2.9887,2.9887,2.9913,2.9887,2.9953,3.014,3.0221,3.0354,3.0541,3.0635,3.0715,3.0849,3.1036,3.1236,3.1396,3.161,3.1757,3.1851,3.1784,3.161,3.6035,3.6035,3.6035,3.625,3.6582,3.6601,3.6816,3.7129,3.7226,3.7226,3.7226,3.7207,3.7168,3.7187,3.7207,3.7246,3.7246,3.7285,3.7324,3.7383,3.7695,3.7871,3.791,3.8262,3.8457,3.8437,3.8437,3.8457,3.8555,3.8535,3.873,3.9141,3.957,3.9746,3.9746,3.9746,4.0195,4.1035,4.1016,4.1191,4.1621,4.207,4.2305,4.2305,4.2383,4.2261,4.1979,4.2469,4.2682,4.2519,4.2886,4.3244,4.3283,4.3799,4.4023,4.3652,4.4316,4.4629,4.4258,4.4219,4.3131,4.0727,3.8769,3.6529,3.4418,3.218,3.0583,2.97,2.9673,2.9887,3.0207,3.0421,3.0528,3.0528,3.0318,3.0358,3.0327,3.0496,3.0388,2.9927,2.9913,2.9913,2.9967,3.014,3.0381,3.0501,3.0488,3.0332,3.0148,3.0358,3.0608,3.0568,3.0287,2.9993,2.9967,2.9927,2.9993,2.9967,2.994,3.002,3.01,3.0087,3.006,3.0488,3.0474,3.0648,3.1168,3.145,3.1396,3.1677,3.1904,3.2118,3.2332,3.2238,3.1944,3.6035,3.6035,3.6289,3.666,3.7012,3.7051,3.7129,3.7305,3.7559,3.7676,3.7715,3.793,3.7773,3.7324,3.7559,3.7656,3.7695,3.793,3.8047,3.8066,3.8223,3.8301,3.834,3.8476,3.8691,3.8926,3.8945,3.9082,3.9316,3.9355,3.9453,3.9609,3.9824,3.9883,3.9902,4.0137,4.0684,4.1523,4.1777,4.2246,4.2832,4.2851,4.2812,4.2832,4.3047,4.3183,4.3223,4.3613,4.3848,4.3887,4.4258,4.4492,4.4492,4.4668,4.4687,4.4531,4.4824,4.4941,4.4785,4.4785,4.433,4.3084,3.9722,3.7175,3.6095,3.2856,3.0621,3.0368,3.0368,3.0488,3.0608,3.0728,3.0795,3.0768,3.0648,3.0488,3.0576,3.0207,3.0034,2.9927,2.9913,2.9993,3.014,3.0287,3.0327,3.0314,3.0287,3.0381,3.0305,3.0528,3.0818,3.1137,3.0791,3.0474,3.0421,3.0434,3.0421,3.0434,3.0434,3.0434,3.0408,3.0434,3.0501,3.0608,3.0608,3.0675,3.1087,3.1329,3.133,3.1677,3.1971,3.2185,3.2492,3.2452,3.2305,3.6191,3.6269,3.666,3.709,3.7461,3.7461,3.7539,3.7676,3.7969,3.8105,3.8144,3.8437,3.8242,3.7754,3.7969,3.8105,3.8144,3.8437,3.8652,3.873,3.875,3.8809,3.8926,3.8945,3.9101,3.9336,3.9394,3.957,3.9883,4.0039,4.0059,4.0078,4.0195,4.0254,4.0293,4.0664,4.123,4.1933,4.2383,4.2969,4.3555,4.3535,4.3379,4.3301,4.3672,4.3887,4.3906,4.4316,4.457,4.457,4.4863,4.5039,4.5039,4.5137,4.5254,4.5351,4.5254,4.5215,4.5215,4.5195,4.4795,4.3976,4.0841,3.8408,3.6833,3.4044,3.1978,3.1156,3.1156,3.1129,3.0929,3.0982,3.1036,3.1009,3.0782,3.0581,3.0501,3.0221,3.002,2.994,2.9913,3.0034,3.0287,3.0354,3.0314,3.0247,3.0207,3.0221,3.0644,3.0765,3.0912,3.1511,3.138,3.0955,3.0835,3.0742,3.0795,3.0795,3.0742,3.0742,3.0795,3.0782,3.0875,3.0849,3.0889,3.1009,3.1196,3.1316,3.145,3.1637,3.1971,3.2412,3.2799,3.2732,3.2679,3.6641,3.6699,3.709,3.75,3.7891,3.791,3.8125,3.8437,3.8516,3.8535,3.8516,3.8574,3.8555,3.8516,3.8555,3.8555,3.8555,3.8613,3.8848,3.916,3.918,3.9394,3.9824,3.9844,3.9844,3.9863,3.9863,3.9902,3.998,4.0312,4.0508,4.0508,4.084,4.1074,4.1113,4.1465,4.1953,4.2344,4.2832,4.3281,4.3711,4.4121,4.4101,4.3808,4.4121,4.4355,4.4414,4.4766,4.5,4.5,4.5058,4.5058,4.5078,4.543,4.582,4.6113,4.5859,4.5644,4.5644,4.5644,4.478,4.2518,4.1882,4.006,3.6521,3.5314,3.4103,3.2367,3.2162,3.1784,3.1383,3.1503,3.1597,3.1543,3.133,3.1049,3.0768,3.0421,3.0221,2.9993,2.994,3.0047,3.0314,3.0368,3.0448,3.0568,3.0688,3.0702,3.0702,3.0942,3.1329,3.1437,3.1558,3.1436,3.0942,3.0929,3.0902,3.0915,3.0982,3.0862,3.0808,3.0822,3.0982,3.1116,3.1183,3.1316,3.153,3.1717,3.1877,3.2104,3.2438,3.2839,3.2986,3.3026,3.3,3.6992,3.748,3.7637,3.7949,3.832,3.834,3.8437,3.8574,3.8574,3.8574,3.8633,3.8867,3.8984,3.8984,3.9297,3.9258,3.9023,3.9277,3.9512,3.9648,3.9648,3.9746,3.9863,3.9883,4.0059,4.0273,4.0293,4.0449,4.0703,4.0879,4.0937,4.0957,4.1094,4.1172,4.1289,4.1875,4.2285,4.2519,4.3379,4.4004,4.416,4.457,4.4707,4.457,4.4707,4.4805,4.4805,4.5215,4.5449,4.5449,4.5703,4.584,4.5859,4.5996,4.6133,4.6269,4.6172,4.6074,4.6074,4.6074,4.5648,4.4641,4.3494,4.2245,4.0106,3.7786,3.5631,3.4794,3.3133,3.2445,3.2171,3.2171,3.2078,3.1704,3.1396,3.1049,3.0791,3.0455,3.002,2.9967,3.0074,3.0194,3.0167,3.0247,3.0327,3.0261,3.0394,3.0515,3.0385,3.0703,3.1223,3.1276,3.1463,3.1597,3.1436,3.137,3.137,3.1356,3.137,3.137,3.1343,3.1316,3.145,3.1517,3.1557,3.1597,3.1784,3.1797,3.2011,3.2251,3.2612,3.2853,3.3066,3.308,3.316,3.748,3.8086,3.8144,3.8301,3.8555,3.8574,3.8652,3.8769,3.8789,3.8867,3.9043,3.9316,3.9414,3.9492,3.9902,3.9941,3.9648,3.9824,3.9961,4.0098,4.0098,4.0176,4.0293,4.0293,4.0449,4.0684,4.0723,4.0957,4.1328,4.1367,4.1445,4.1582,4.1582,4.166,4.1894,4.25,4.2891,4.3242,4.4082,4.4609,4.4648,4.5019,4.5234,4.5254,4.5371,4.5351,4.5254,4.5644,4.5879,4.5918,4.6152,4.6308,4.6308,4.6308,4.6308,4.6308,4.6308,4.6367,4.6484,4.6504,4.6562,4.6719,4.547,4.4522,4.3433,3.9918,3.7644,3.6238,3.4199,3.2692,3.2679,3.2679,3.2452,3.1891,3.1463,3.1089,3.0886,3.0394,3.0247,3.0261,3.0381,3.0381,3.0261,3.0394,3.0408,3.0221,3.0381,3.0474,3.0358,3.069,3.1223,3.1263,3.1597,3.1784,3.181,3.1837,3.169,3.1664,3.1637,3.1704,3.1797,3.181,3.1837,3.1904,3.1944,3.1944,3.1944,3.1944,3.2078,3.2305,3.2478,3.2719,3.2919,3.312,3.32,3.8164,3.8516,3.8574,3.8574,3.8633,3.8633,3.8828,3.918,3.9199,3.9414,3.9707,3.9883,3.9902,3.998,4.0332,4.0508,4.043,4.0176,4.0215,4.0508,4.0527,4.0723,4.1055,4.1035,4.1035,4.1113,4.1152,4.1387,4.1738,4.1836,4.2051,4.2344,4.2422,4.2598,4.3027,4.3418,4.3887,4.4258,4.4746,4.5019,4.5078,4.5449,4.5664,4.5723,4.6016,4.6035,4.5703,4.6055,4.625,4.625,4.6289,4.6308,4.6308,4.6269,4.6289,4.6348,4.6328,4.6504,4.6875,4.6933,4.7109,4.7363,4.7359,4.6438,4.438,4.1831,3.9542,3.7501,3.5094,3.3157,3.3143,3.2906,3.2652,3.2158,3.157,3.1249,3.0889,3.0743,3.0782,3.0728,3.0742,3.0782,3.0768,3.0728,3.0702,3.0688,3.0755,3.0768,3.0782,3.1062,3.1423,3.1544,3.1853,3.1971,3.2144,3.2278,3.2064,3.1891,3.1851,3.1864,3.2038,3.2104,3.2171,3.2238,3.2278,3.2278,3.2265,3.2278,3.2412,3.2572,3.2639,3.2679,3.2893,3.3106,3.32,3.8457,3.8574,3.8574,3.875,3.8984,3.9004,3.9277,3.9668,3.9687,3.9766,3.9941,4.0195,4.0332,4.043,4.0781,4.0976,4.0957,4.084,4.084,4.0937,4.0957,4.1016,4.1152,4.1172,4.1172,4.123,4.1465,4.166,4.1894,4.2383,4.2773,4.2891,4.3164,4.3359,4.3555,4.3945,4.4277,4.4453,4.5117,4.5469,4.5508,4.5879,4.6094,4.6113,4.623,4.623,4.6133,4.623,4.6308,4.6308,4.6308,4.6308,4.6269,4.6035,4.6152,4.6621,4.6445,4.6641,4.7266,4.7383,4.7441,4.7617,4.7851,4.7606,4.6896,4.4647,4.2347,3.9997,3.7508,3.5336,3.3381,3.2786,3.2438,3.1864,3.1637,3.1356,3.1049,3.1101,3.1218,3.0795,3.0795,3.0795,3.0795,3.0808,3.0849,3.0862,3.0969,3.1049,3.0929,3.1236,3.141,3.1531,3.177,3.2171,3.2318,3.2492,3.2478,3.2305,3.2211,3.2171,3.2318,3.2412,3.2492,3.2585,3.2612,3.2612,3.2599,3.2639,3.2759,3.2759,3.2759,3.2853,3.2986,3.3106,3.3213,3.8574,3.8594,3.875,3.8945,3.9219,3.9375,3.9707,4.0098,4.0137,4.0215,4.041,4.0644,4.0762,4.082,4.1055,4.1172,4.1172,4.1172,4.1172,4.1172,4.1172,4.1172,4.1211,4.1348,4.1504,4.166,4.1914,4.2129,4.2305,4.2949,4.3398,4.3613,4.3984,4.4297,4.4433,4.4726,4.4922,4.5156,4.5625,4.5898,4.5957,4.6172,4.6308,4.6308,4.6308,4.6308,4.6308,4.6445,4.6543,4.6562,4.668,4.6777,4.6758,4.6562,4.6621,4.6973,4.6992,4.7109,4.7715,4.7812,4.791,4.8066,4.8301,4.8437,4.7907,4.5851,4.2673,4.1156,3.7733,3.4858,3.3219,3.2559,3.2171,3.173,3.1664,3.1503,3.1183,3.1529,3.1543,3.1156,3.1142,3.1116,3.1116,3.1116,3.1116,3.1156,3.1263,3.1356,3.1236,3.1436,3.1476,3.1623,3.2024,3.2318,3.2465,3.2652,3.2866,3.2759,3.2639,3.2599,3.2652,3.2692,3.2759,3.2933,3.3,3.3013,3.3013,3.2973,3.3026,3.2973,3.2919,3.2933,3.3026,3.3146,3.3253,3.8594,3.8652,3.9023,3.9238,3.9394,3.9766,4.0176,4.0527,4.0566,4.0762,4.1055,4.1094,4.1133,4.1152,4.1152,4.1211,4.1211,4.125,4.1328,4.1348,4.1348,4.1367,4.1426,4.1699,4.207,4.2461,4.2539,4.2754,4.3164,4.3691,4.4023,4.4473,4.4883,4.5273,4.5527,4.5683,4.582,4.6074,4.623,4.625,4.6269,4.6348,4.6328,4.6328,4.6406,4.6445,4.6445,4.6816,4.7031,4.7031,4.7305,4.7422,4.748,4.7519,4.7402,4.75,4.7558,4.7773,4.8105,4.8242,4.8379,4.8691,4.875,4.8848,4.8235,4.5343,4.2846,4.1632,3.7372,3.3821,3.3324,3.2498,3.1998,3.1744,3.1677,3.1623,3.1664,3.1623,3.157,3.1597,3.165,3.165,3.1583,3.1583,3.1597,3.161,3.161,3.1583,3.1583,3.165,3.1797,3.1984,3.2185,3.2412,3.2559,3.2933,3.312,3.308,3.2973,3.2959,3.2946,3.2973,3.3013,3.32,3.3293,3.3334,3.3334,3.3253,3.324,3.324,3.316,3.304,3.3093,3.3267,3.3387,3.875,3.9043,3.916,3.957,4.0137,4.0332,4.0605,4.0976,4.0996,4.1035,4.1152,4.1172,4.1172,4.1172,4.1191,4.1328,4.1582,4.1641,4.1836,4.207,4.209,4.209,4.2109,4.2226,4.2676,4.3281,4.3398,4.3613,4.4082,4.4707,4.5137,4.5351,4.5664,4.5976,4.6133,4.6113,4.6191,4.6289,4.6308,4.6308,4.6367,4.6601,4.6601,4.6367,4.6894,4.7031,4.6875,4.748,4.7715,4.7441,4.75,4.7422,4.7226,4.7207,4.7344,4.7617,4.7656,4.793,4.8516,4.8672,4.875,4.8828,4.8848,4.8848,4.8848,4.7679,4.5814,4.3686,4.0437,3.7303,3.5148,3.327,3.2149,3.173,3.1677,3.1677,3.1677,3.1677,3.1677,3.1677,3.1677,3.1677,3.1677,3.1677,3.1677,3.1677,3.1677,3.1677,3.1677,3.1677,3.1757,3.1917,3.2118,3.2412,3.2719,3.312,3.3334,3.3334,3.3293,3.3253,3.3253,3.3253,3.3293,3.3374,3.336,3.3387,3.3387,3.336,3.34,3.3414,3.3347,3.3227,3.336,3.3507,3.3627,3.8984,3.9238,3.959,4.0059,4.0527,4.0703,4.0937,4.1133,4.1172,4.1172,4.1172,4.1172,4.1269,4.1426,4.1445,4.168,4.2031,4.207,4.2305,4.2715,4.3086,4.3144,4.3066,4.3144,4.3613,4.418,4.4258,4.4297,4.4512,4.5254,4.5547,4.5508,4.6016,4.6289,4.6269,4.6308,4.6308,4.6308,4.6308,4.6367,4.6582,4.6621,4.6797,4.6777,4.7226,4.7266,4.748,4.7949,4.8086,4.7891,4.7832,4.7812,4.7754,4.7558,4.7676,4.8066,4.8125,4.8359,4.8711,4.8848,4.8848,4.8848,4.8848,4.8848,4.8624,4.7934,4.5946,4.4461,4.0929,3.8088,3.5906,3.3485,3.2041,3.1704,3.1677,3.1677,3.1677,3.1677,3.1677,3.1677,3.1677,3.1677,3.1677,3.1677,3.1677,3.1677,3.1677,3.1677,3.1677,3.1677,3.1784,3.1998,3.2225,3.2545,3.2853,3.324,3.3387,3.34,3.34,3.3414,3.3414,3.3414,3.34,3.34,3.3414,3.3414,3.3414,3.3414,3.3414,3.3414,3.3414,3.3427,3.3494,3.3534,3.3681,3.9258,3.9394,4.0195,4.0547,4.0664,4.0996,4.1133,4.1172,4.1172,4.1172,4.1191,4.123,4.1465,4.1797,4.1816,4.209,4.25,4.2598,4.2949,4.3418,4.3906,4.4082,4.3906,4.416,4.4551,4.4961,4.5078,4.4902,4.4922,4.543,4.5547,4.5566,4.6035,4.6269,4.6308,4.6308,4.6328,4.6406,4.6445,4.6641,4.6914,4.6875,4.7031,4.7324,4.7324,4.7637,4.8047,4.832,4.8301,4.8281,4.8281,4.8359,4.8594,4.8281,4.8379,4.8613,4.8672,4.8769,4.8848,4.8848,4.8848,4.8848,4.8848,4.8808,4.8527,4.6928,4.552,4.5096,3.9511,3.6819,3.4799,3.2924,3.1907,3.1677,3.1677,3.1677,3.1677,3.1677,3.1677,3.1677,3.1677,3.1677,3.1677,3.1677,3.1677,3.1677,3.1677,3.1677,3.1677,3.1677,3.1904,3.2445,3.2478,3.2719,3.304,3.3347,3.3387,3.3414,3.3414,3.3414,3.3414,3.3414,3.3414,3.3414,3.3414,3.3414,3.3414,3.3414,3.3414,3.3414,3.3414,3.3414,3.3427,3.3454,3.3547,3.9609,4.0254,4.0449,4.0723,4.1016,4.1133,4.1172,4.1172,4.1172,4.1172,4.125,4.1504,4.1719,4.1836,4.2187,4.2519,4.2949,4.3262,4.3848,4.4531,4.4375,4.459,4.4648,4.4824,4.5098,4.541,4.5527,4.5469,4.5527,4.5781,4.6113,4.6055,4.6094,4.6308,4.6308,4.6348,4.6484,4.6738,4.6797,4.7012,4.7422,4.7578,4.7617,4.7656,4.7773,4.8164,4.8574,4.8711,4.8711,4.8711,4.8672,4.8496,4.8203,4.8437,4.8555,4.8516,4.8711,4.8848,4.8848,4.8848,4.8848,4.8848,4.8808,4.8711,4.8359,4.7675,4.6906,4.5725,4.1814,3.6978,3.3478,3.2273,3.1677,3.1677,3.1677,3.1677,3.1677,3.1677,3.1677,3.1677,3.1677,3.1677,3.1677,3.1677,3.1677,3.1677,3.1677,3.1677,3.1677,3.169,3.1998,3.2552,3.2599,3.2812,3.3093,3.3347,3.34,3.3414,3.3414,3.3414,3.3414,3.3414,3.3414,3.3414,3.3414,3.3414,3.3414,3.3414,3.3414,3.3414,3.3414,3.3414,3.3414,3.3414,3.3414,3.9922,4.0527,4.0742,4.0957,4.1152,4.1172,4.1172,4.1172,4.1172,4.1289,4.1484,4.1719,4.2012,4.2422,4.2832,4.3183,4.3418,4.3828,4.4258,4.4648,4.4648,4.4824,4.4961,4.5058,4.5254,4.5605,4.5664,4.5683,4.5781,4.6055,4.6172,4.6055,4.6211,4.6289,4.6367,4.6504,4.6699,4.6933,4.7148,4.7441,4.7851,4.7851,4.7988,4.7891,4.8105,4.8418,4.8789,4.8848,4.873,4.8672,4.873,4.8691,4.8262,4.8418,4.8496,4.8594,4.8691,4.8848,4.8848,4.8848,4.8848,4.8828,4.8672,4.8457,4.8125,4.7891,4.7441,4.5904,4.2313,3.7163,3.2421,3.1677,3.1677,3.1677,3.1677,3.1677,3.1677,3.1677,3.1677,3.1677,3.1677,3.1677,3.1677,3.1677,3.1677,3.1677,3.1677,3.1677,3.1744,3.1797,3.2064,3.2372,3.2625,3.2879,3.3133,3.332,3.34,3.3414,3.3414,3.3414,3.3414,3.3414,3.3414,3.3414,3.3414,3.3414,3.3414,3.3414,3.3414,3.3414,3.3414,3.3414,3.3414,3.3414,3.3414,4.0195,4.0566,4.0996,4.1172,4.1172,4.1172,4.1172,4.1172,4.125,4.1484,4.1797,4.1914,4.2461,4.3008,4.3457,4.3691,4.3887,4.4023,4.4297,4.4629,4.459,4.4707,4.4805,4.4805,4.5,4.5508,4.5644,4.5664,4.5781,4.6055,4.6152,4.5918,4.623,4.6445,4.6523,4.6816,4.7109,4.7285,4.7539,4.7871,4.8203,4.8047,4.8086,4.8262,4.834,4.8516,4.8789,4.8828,4.8711,4.8359,4.8652,4.8828,4.8769,4.8594,4.8437,4.8828,4.8848,4.8848,4.8848,4.8848,4.8828,4.8769,4.8457,4.8144,4.7871,4.7422,4.7031,4.528,4.2118,3.7022,3.2408,3.1677,3.1677,3.1677,3.1677,3.1677,3.1677,3.1677,3.1677,3.1677,3.1677,3.1677,3.1677,3.1677,3.1677,3.1677,3.1677,3.169,3.1757,3.1877,3.2104,3.2345,3.2599,3.2933,3.3213,3.332,3.34,3.3414,3.3414,3.3414,3.3414,3.3414,3.3414,3.3414,3.3414,3.3414,3.3414,3.3414,3.3414,3.3414,3.3414,3.3414,3.3414,3.3414,3.3414,4.0449,4.0566,4.0996,4.1172,4.1172,4.1172,4.1172,4.125,4.1543,4.1738,4.1914,4.2539,4.2871,4.3203,4.3516,4.3906,4.4121,4.4082,4.4199,4.4531,4.4355,4.416,4.4414,4.4238,4.4453,4.5058,4.5469,4.5683,4.5801,4.6055,4.6289,4.6308,4.6621,4.6816,4.6933,4.7246,4.7598,4.7734,4.7949,4.8242,4.8418,4.8457,4.8457,4.8594,4.8594,4.8711,4.8808,4.8848,4.8828,4.8769,4.8808,4.8848,4.8828,4.875,4.873,4.8828,4.8848,4.8848,4.8848,4.8848,4.8652,4.8398,4.8203,4.7812,4.7581,4.7031,4.6385,4.4679,4.1634,3.6975,3.2219,3.1677,3.1677,3.1677,3.1677,3.1677,3.1677,3.1677,3.1677,3.1677,3.1677,3.1677,3.1677,3.1677,3.1677,3.1677,3.1677,3.1677,3.1704,3.1851,3.2038,3.2291,3.2545,3.2919,3.3293,3.3347,3.3414,3.3414,3.3414,3.3414,3.3414,3.3414,3.3414,3.3414,3.3414,3.3414,3.3414,3.3414,3.3414,3.3414,3.3414,3.3414,3.3414,3.3414,3.3414,4.0332,4.0566,4.0996,4.1172,4.1172,4.1172,4.1308,4.1504,4.1719,4.207,4.248,4.2891,4.3203,4.3476,4.3867,4.4199,4.4219,4.3926,4.3984,4.418,4.3926,4.3789,4.4043,4.3789,4.4277,4.4922,4.5449,4.582,4.6035,4.6445,4.6601,4.6719,4.7051,4.7266,4.7363,4.7676,4.7851,4.8008,4.8105,4.8183,4.8223,4.8223,4.8301,4.8496,4.8555,4.8633,4.8828,4.8848,4.8848,4.8808,4.8633,4.8672,4.873,4.8691,4.8633,4.8808,4.8848,4.8848,4.8848,4.8848,4.8672,4.8262,4.8027,4.7617,4.7287,4.6758,4.5603,4.2712,4.1186,3.6975,3.2219,3.1853,3.1677,3.1677,3.1677,3.1677,3.1677,3.1677,3.1677,3.1677,3.1677,3.1677,3.1677,3.1677,3.1677,3.1677,3.1677,3.169,3.169,3.1891,3.2104,3.2425,3.2719,3.304,3.3347,3.3374,3.3414,3.3414,3.3414,3.3414,3.3414,3.3414,3.3414,3.3414,3.3414,3.3414,3.3414,3.3414,3.3414,3.3414,3.3414,3.3414,3.3414,3.3414,3.3414,4.0156,4.0449,4.0957,4.1172,4.1191,4.1269,4.1484,4.1777,4.1894,4.2363,4.3008,4.3086,4.3301,4.3691,4.4023,4.4238,4.4238,4.3828,4.3769,4.3769,4.373,4.3711,4.3711,4.3808,4.4219,4.5176,4.5488,4.5957,4.6445,4.6855,4.7031,4.7187,4.75,4.7695,4.7793,4.7988,4.7949,4.8008,4.791,4.7891,4.7773,4.7715,4.791,4.8242,4.8262,4.8437,4.8808,4.8848,4.8848,4.8769,4.8613,4.8516,4.873,4.8535,4.8516,4.8769,4.8848,4.8828,4.8711,4.8691,4.8418,4.7851,4.7617,4.7464,4.7091,4.6171,4.4491,4.0265,3.8794,3.6975,3.2772,3.1677,3.1677,3.1677,3.1677,3.1677,3.1677,3.1677,3.1677,3.1677,3.1677,3.1677,3.1677,3.1677,3.1677,3.1677,3.1677,3.1797,3.1837,3.2064,3.2318,3.2652,3.2959,3.3227,3.3387,3.3387,3.3414,3.3414,3.3414,3.3414,3.3414,3.3414,3.3414,3.3414,3.3414,3.3414,3.3414,3.3414,3.3414,3.3414,3.3414,3.3414,3.3414,3.3414,3.3414,4.0254,4.0039,4.084,4.1172,4.123,4.1543,4.1738,4.1836,4.2187,4.2617,4.3086,4.3105,4.334,4.3652,4.375,4.3808,4.3789,4.3769,4.3691,4.3691,4.3691,4.3691,4.3711,4.3691,4.4492,4.543,4.5703,4.6133,4.6816,4.7344,4.75,4.7598,4.7891,4.8125,4.8144,4.8242,4.8379,4.8496,4.7969,4.7754,4.7969,4.7988,4.8281,4.8457,4.8476,4.8437,4.8808,4.8848,4.8848,4.8789,4.8789,4.8789,4.8848,4.8828,4.8789,4.8848,4.8808,4.8691,4.8398,4.8301,4.7969,4.7422,4.7129,4.7013,4.6562,4.6231,4.4277,3.9523,3.8977,3.6791,3.296,3.1853,3.1677,3.1677,3.1677,3.1677,3.1677,3.1677,3.1677,3.1677,3.1677,3.1677,3.1677,3.1677,3.1677,3.1677,3.1704,3.1824,3.2024,3.2265,3.2559,3.2906,3.3093,3.3334,3.3414,3.3414,3.3414,3.3414,3.3414,3.3414,3.3414,3.3414,3.3414,3.3414,3.3414,3.3414,3.3414,3.3414,3.3414,3.3414,3.3414,3.3414,3.3414,3.3414,3.3414,4.0059,3.9961,4.082,4.1172,4.123,4.1621,4.1797,4.1933,4.25,4.2891,4.3105,4.334,4.3555,4.3672,4.3691,4.3711,4.3691,4.3711,4.3711,4.3691,4.3691,4.3711,4.3848,4.4219,4.498,4.5644,4.6406,4.7129,4.7578,4.7773,4.793,4.7988,4.834,4.8574,4.8476,4.8555,4.8359,4.7988,4.7363,4.6973,4.7187,4.7578,4.7949,4.8164,4.8398,4.8652,4.8789,4.8848,4.8711,4.8574,4.8496,4.8496,4.8476,4.8496,4.8555,4.8828,4.8613,4.8398,4.8223,4.7988,4.7519,4.7129,4.6914,4.6777,4.6426,4.6114,4.4277,3.9523,3.8977,3.6606,3.296,3.1853,3.1677,3.1677,3.1677,3.1677,3.1677,3.1677,3.1677,3.1677,3.1677,3.1677,3.1677,3.1677,3.1677,3.1677,3.1744,3.1877,3.2158,3.2505,3.2826,3.3173,3.3293,3.3387,3.3414,3.3414,3.3414,3.3414,3.3414,3.3414,3.3414,3.3414,3.3414,3.3414,3.3414,3.3414,3.3414,3.3414,3.3414,3.3414,3.3414,3.3414,3.3414,3.3414,3.3414,3.9961,4.0117,4.0859,4.123,4.1348,4.166,4.1933,4.2207,4.2637,4.3027,4.3281,4.3555,4.3691,4.375,4.3808,4.3867,4.3711,4.3808,4.3789,4.375,4.3711,4.3789,4.4082,4.4648,4.5332,4.5976,4.6758,4.7519,4.793,4.8105,4.8066,4.8359,4.8633,4.8711,4.8652,4.8418,4.8066,4.7266,4.7129,4.6875,4.6777,4.7266,4.7598,4.793,4.8301,4.875,4.8828,4.8711,4.8476,4.8516,4.8301,4.832,4.8418,4.8379,4.8379,4.8457,4.8183,4.7832,4.7715,4.7519,4.7207,4.6933,4.6758,4.6601,4.6387,4.6114,4.4277,3.9523,3.8977,3.6437,3.3149,3.1677,3.1677,3.1677,3.1677,3.1677,3.1677,3.1677,3.1677,3.1677,3.1677,3.1677,3.1677,3.1677,3.1677,3.1677,3.1784,3.1957,3.2345,3.2799,3.3053,3.3387,3.34,3.344,3.344,3.3427,3.3427,3.344,3.344,3.3427,3.344,3.3427,3.3414,3.3414,3.3414,3.3414,3.3414,3.3414,3.3414,3.3414,3.3414,3.3414,3.3414,3.3414,3.3414,4.0117,4.0508,4.0976,4.1387,4.1719,4.1777,4.2266,4.2734,4.2617,4.3008,4.3555,4.3691,4.3691,4.3769,4.3984,4.4004,4.373,4.416,4.4004,4.3789,4.373,4.3926,4.4316,4.4902,4.5625,4.6562,4.7168,4.7637,4.7988,4.8027,4.8281,4.8711,4.8652,4.8516,4.834,4.8066,4.75,4.7012,4.7187,4.7324,4.7129,4.7344,4.7773,4.8066,4.8242,4.8437,4.8808,4.8574,4.8437,4.8633,4.8437,4.8262,4.8398,4.832,4.8281,4.8086,4.7598,4.7285,4.7187,4.707,4.6797,4.6504,4.6387,4.6406,4.6308,4.6308,4.3923,4.0265,3.9903,3.716,3.3873,3.1867,3.2219,3.1677,3.1677,3.1677,3.1677,3.1677,3.1677,3.1677,3.1704,3.177,3.1904,3.1957,3.1957,3.1971,3.2412,3.2612,3.2853,3.3041,3.3347,3.3521,3.3494,3.3494,3.348,3.3521,3.3668,3.3641,3.3601,3.3534,3.348,3.3454,3.3414,3.3414,3.3414,3.3414,3.3414,3.3414,3.3414,3.3414,3.3414,3.3414,3.3414,3.3414,3.3414,4.0293,4.0937,4.1113,4.1269,4.1445,4.1973,4.2226,4.2402,4.293,4.3359,4.3691,4.3691,4.3691,4.3769,4.3828,4.3887,4.373,4.3867,4.3828,4.3769,4.375,4.3984,4.4453,4.5117,4.584,4.6601,4.7226,4.7793,4.8144,4.8086,4.8476,4.8691,4.834,4.8457,4.8242,4.7851,4.7226,4.6953,4.7109,4.7187,4.7226,4.7617,4.8047,4.8183,4.8535,4.8652,4.8808,4.8711,4.8594,4.8516,4.8535,4.8418,4.8223,4.8144,4.8027,4.7812,4.7187,4.6953,4.6836,4.6699,4.6465,4.6387,4.6308,4.6308,4.6308,4.6308,4.4649,4.2461,4.0988,3.8611,3.4966,3.3873,3.3685,3.2408,3.184,3.2016,3.169,3.1704,3.1784,3.1824,3.1904,3.1971,3.2144,3.2305,3.2305,3.2332,3.2826,3.3253,3.3253,3.3439,3.3748,3.3814,3.3814,3.3841,3.3841,3.3895,3.3948,3.3868,3.3774,3.3708,3.3627,3.3454,3.3414,3.3414,3.3414,3.3414,3.3414,3.3414,3.3414,3.3414,3.3414,3.3414,3.3414,3.3414,3.3414,4.0508,4.1152,4.1172,4.125,4.1426,4.1992,4.2226,4.2344,4.3105,4.3613,4.3691,4.3691,4.3691,4.373,4.3887,4.3808,4.3808,4.3867,4.3808,4.375,4.375,4.4062,4.4668,4.5312,4.5957,4.6582,4.7187,4.7773,4.7754,4.8125,4.8125,4.7949,4.7773,4.7891,4.8066,4.7793,4.7187,4.6855,4.7031,4.6992,4.709,4.7734,4.8183,4.8262,4.8594,4.8808,4.8789,4.8672,4.8555,4.8476,4.8379,4.8203,4.7969,4.7754,4.7656,4.7363,4.7031,4.6777,4.666,4.6523,4.6308,4.6308,4.6308,4.6308,4.6308,4.6308,4.5021,4.2818,4.2264,4.061,3.6236,3.5695,3.442,3.2947,3.3729,3.3902,3.2449,3.1974,3.2095,3.1998,3.2104,3.2291,3.2692,3.2919,3.3106,3.3093,3.3253,3.3641,3.3868,3.4028,3.4135,3.4189,3.4202,3.4242,3.4295,3.4229,3.4162,3.4122,3.4042,3.3935,3.3828,3.3627,3.3454,3.3414,3.3414,3.3414,3.3414,3.34,3.34,3.3414,3.3414,3.3414,3.3414,3.3414,3.3414,4.0762,4.1152,4.1172,4.1387,4.1738,4.1816,4.2266,4.2812,4.3105,4.3379,4.3672,4.3691,4.3691,4.3789,4.4023,4.3965,4.3828,4.4062,4.4062,4.3769,4.3828,4.4258,4.4863,4.5488,4.6016,4.6719,4.7109,4.7187,4.707,4.7461,4.7363,4.7246,4.7246,4.7207,4.7539,4.7187,4.6738,4.6504,4.7168,4.7226,4.7344,4.791,4.8242,4.8418,4.8652,4.8848,4.8808,4.8613,4.8574,4.8672,4.8144,4.7988,4.8008,4.7383,4.7109,4.6933,4.6582,4.6387,4.6328,4.6308,4.6308,4.6308,4.6308,4.6308,4.6308,4.6114,4.5568,4.3727,4.3175,4.0791,3.8429,3.716,3.5695,3.4592,3.5374,3.4974,3.354,3.2436,3.2559,3.2611,3.2646,3.2692,3.3187,3.3587,3.3895,3.3961,3.3895,3.4028,3.4295,3.4429,3.4549,3.4576,3.4589,3.4589,3.4589,3.4456,3.4376,3.4349,3.4309,3.4242,3.4042,3.3801,3.3627,3.3467,3.3334,3.3267,3.3334,3.34,3.34,3.3414,3.3414,3.3414,3.3414,3.36,3.4,4.0781,4.1172,4.1172,4.1406,4.1816,4.2109,4.2402,4.2715,4.3203,4.3574,4.3672,4.3691,4.3691,4.3769,4.3828,4.3867,4.3789,4.3769,4.3769,4.3789,4.3984,4.4473,4.5019,4.5508,4.5996,4.6445,4.6719,4.6894,4.6973,4.7285,4.748,4.7422,4.6992,4.6855,4.6855,4.6758,4.6816,4.6836,4.7285,4.7617,4.7812,4.8301,4.8613,4.8613,4.8789,4.8848,4.8848,4.8633,4.8711,4.8769,4.8183,4.793,4.7793,4.7168,4.6797,4.6621,4.6308,4.6308,4.6308,4.6308,4.6308,4.6308,4.6308,4.6308,4.6308,4.6308,4.5744,4.5197,4.4826,4.2818,4.1529,4.0988,3.9556,3.7285,3.6837,3.5494,3.432,3.3415,3.3037,3.3035,3.3124,3.3614,3.3975,3.4148,3.4416,3.4603,3.4536,3.4589,3.4817,3.4897,3.4977,3.4977,3.4977,3.495,3.4883,3.4763,3.4736,3.4763,3.4696,3.4603,3.4349,3.4015,3.3492,3.3079,3.3081,3.312,3.3187,3.3267,3.3374,3.3414,3.3414,3.3414,3.3414,3.4186,3.5366,4.0918,4.1172,4.1172,4.1406,4.1836,4.2246,4.2578,4.293,4.3457,4.3691,4.3691,4.3691,4.3691,4.3691,4.3691,4.3691,4.3691,4.3711,4.3906,4.3945,4.4238,4.4746,4.5195,4.5547,4.5918,4.6269,4.6543,4.6738,4.6914,4.748,4.75,4.7226,4.6933,4.6621,4.6484,4.6582,4.6777,4.6933,4.7344,4.7773,4.8125,4.8555,4.8828,4.8828,4.8848,4.8848,4.8848,4.8848,4.8848,4.8711,4.834,4.791,4.75,4.7031,4.6621,4.6367,4.6308,4.6308,4.6308,4.6308,4.6308,4.6308,4.6308,4.6308,4.6308,4.6308,4.6308,4.6114,4.6308,4.4939,4.3339,4.316,4.2568,4.0108,4.0025,3.8852,3.6727,3.6011,3.5337,3.5147,3.4446,3.4802,3.4797,3.4763,3.4897,3.5044,3.5164,3.5204,3.5204,3.5204,3.5204,3.5177,3.5177,3.511,3.5084,3.5084,3.5097,3.5177,3.5044,3.487,3.4603,3.4269,3.3678,3.3079,3.3041,3.308,3.3053,3.3106,3.3426,3.3533,3.3414,3.3414,3.3414,3.4585,3.6144,4.1172,4.1172,4.1191,4.1445,4.1875,4.2363,4.2969,4.3652,4.3691,4.3691,4.3691,4.3691,4.3691,4.3691,4.3691,4.3691,4.3691,4.3691,4.3965,4.4258,4.4473,4.5,4.541,4.5723,4.6016,4.6191,4.6387,4.6582,4.6855,4.6992,4.6973,4.6953,4.666,4.6523,4.6523,4.6562,4.6758,4.709,4.75,4.7949,4.8379,4.8652,4.8828,4.8848,4.8848,4.8848,4.8848,4.8848,4.8808,4.8555,4.8066,4.7734,4.7305,4.6758,4.6465,4.6308,4.6308,4.6308,4.6308,4.6308,4.6308,4.6308,4.6308,4.6308,4.6308,4.6308,4.6308,4.6348,4.6387,4.5148,4.4028,4.4535,4.5063,4.4706,4.5111,4.3278,4.0541,3.9259,3.8395,3.7824,3.672,3.6111,3.5139,3.499,3.5097,3.5137,3.5204,3.5204,3.5204,3.5204,3.5204,3.5204,3.5191,3.5191,3.5204,3.5204,3.5204,3.5191,3.5177,3.503,3.4763,3.4416,3.3745,3.3333,3.3001,3.3013,3.2893,3.3143,3.3872,3.3981,3.4686,3.3987,3.4186,3.5352,3.6963,4.1172,4.1211,4.1484,4.1855,4.2324,4.3027,4.3496,4.3691,4.3691,4.3691,4.3691,4.3691,4.3691,4.3691,4.3691,4.3691,4.3691,4.3769,4.4023,4.4336,4.4746,4.5195,4.5605,4.5957,4.6172,4.625,4.6328,4.6387,4.6484,4.6523,4.6933,4.7226,4.666,4.6699,4.6836,4.6894,4.7109,4.7363,4.7793,4.8183,4.8516,4.8769,4.8848,4.8848,4.8848,4.8848,4.8848,4.8808,4.8711,4.832,4.7891,4.75,4.707,4.6601,4.6308,4.6308,4.6308,4.6308,4.6308,4.6308,4.6308,4.6308,4.6308,4.6308,4.6308,4.6308,4.6308,4.6406,4.6562,4.5713,4.5621,4.6209,4.6638,4.6925,4.7299,4.622,4.3474,4.1638,4.0803,3.9012,3.8081,3.6215,3.5213,3.507,3.5151,3.5191,3.5204,3.5204,3.5204,3.5204,3.5204,3.5204,3.5204,3.5204,3.5204,3.5204,3.5204,3.5191,3.5177,3.5057,3.4723,3.4349,3.3731,3.332,3.3093,3.2839,3.2666,3.3571,3.4955,3.6578,3.7283,3.6042,3.5153,3.6706,3.8111,4.1172,4.123,4.1621,4.2129,4.2754,4.3418,4.3691,4.3691,4.3691,4.3691,4.3691,4.3691,4.3691,4.3691,4.3691,4.3711,4.373,4.3965,4.4258,4.4687,4.5078,4.5527,4.5937,4.6172,4.625,4.6308,4.6348,4.6426,4.6445,4.6562,4.6933,4.7168,4.6699,4.6914,4.7148,4.7363,4.7598,4.7832,4.8105,4.8457,4.8691,4.8848,4.8848,4.8848,4.8848,4.8848,4.8808,4.873,4.8437,4.8125,4.7715,4.7246,4.6875,4.6543,4.6308,4.6308,4.6308,4.6308,4.6308,4.6308,4.6308,4.6308,4.6308,4.6308,4.6308,4.6308,4.6426,4.6582,4.6797,4.6873,4.7363,4.7695,4.8066,4.8418,4.8476,4.8555,4.628,4.4008,4.2174,4.0184,3.8163,3.6037,3.5191,3.5204,3.5204,3.5204,3.5204,3.5204,3.5204,3.5204,3.5204,3.5204,3.5204,3.5204,3.5204,3.5177,3.5124,3.5124,3.5164,3.499,3.4656,3.4295,3.3881,3.3414,3.2919,3.2942,3.3016,3.5104,3.6654,3.828,3.9564,3.9126,3.8441,3.9026,4.0449,4.1172,4.1211,4.166,4.2363,4.3125,4.3555,4.3691,4.3691,4.3691,4.3691,4.3691,4.3691,4.3691,4.3691,4.3691,4.3769,4.3906,4.418,4.459,4.5078,4.5527,4.5957,4.625,4.6406,4.6562,4.6445,4.6406,4.6543,4.6738,4.6738,4.6699,4.6894,4.6894,4.7012,4.7207,4.7754,4.8047,4.8242,4.834,4.8535,4.875,4.8848,4.8848,4.8848,4.8848,4.8828,4.8691,4.8476,4.8164,4.7851,4.75,4.6992,4.6719,4.6543,4.6348,4.6308,4.6308,4.6308,4.6308,4.6308,4.6308,4.6308,4.6328,4.6426,4.6465,4.6484,4.6621,4.6836,4.707,4.7461,4.7812,4.8086,4.8437,4.8613,4.8691,4.8808,4.785,4.4254,3.9976,3.8319,3.7173,3.5388,3.5204,3.5204,3.5204,3.5204,3.5204,3.5204,3.5204,3.5204,3.5191,3.5191,3.5191,3.5191,3.5204,3.5151,3.503,3.503,3.5044,3.479,3.4362,3.4082,3.3828,3.3427,3.3053,3.3388,3.3865,3.6177,3.8457,3.9868,4.0958,4.1857,4.2099,4.229,4.2533,4.1172,4.125,4.1973,4.2773,4.3516,4.3652,4.3691,4.3691,4.3691,4.3691,4.3691,4.3691,4.3691,4.3691,4.375,4.3887,4.4219,4.4473,4.4883,4.541,4.5898,4.6289,4.6738,4.6855,4.6953,4.6855,4.6777,4.6699,4.6601,4.6543,4.6504,4.6562,4.6777,4.7109,4.7441,4.8047,4.8359,4.8594,4.8633,4.8672,4.8808,4.8848,4.8848,4.8848,4.8848,4.8633,4.8476,4.8262,4.7773,4.7305,4.7109,4.6777,4.6465,4.6367,4.6308,4.6308,4.6308,4.6308,4.6308,4.6308,4.6328,4.6445,4.6543,4.6699,4.6797,4.6777,4.6894,4.7148,4.7422,4.7851,4.8223,4.8496,4.8691,4.8789,4.8867,4.8857,4.8827,4.3728,3.855,3.7022,3.6092,3.5585,3.5599,3.5401,3.5204,3.5204,3.5204,3.5204,3.5204,3.5191,3.5151,3.5151,3.5177,3.5177,3.5164,3.503,3.4843,3.479,3.479,3.4469,3.4095,3.4422,3.4592,3.3708,3.3267,3.4605,3.625,3.8489,4.0366,4.1722,4.3484,4.4966,4.5755,4.6149,4.5792,4.1289,4.1543,4.2363,4.3105,4.3633,4.3691,4.3691,4.3691,4.3691,4.3691,4.3691,4.3691,4.3691,4.3769,4.3906,4.4101,4.4473,4.4844,4.5215,4.5703,4.6152,4.6504,4.6855,4.7129,4.7148,4.709,4.7148,4.7031,4.6641,4.6621,4.668,4.6836,4.7148,4.7422,4.7851,4.8262,4.8594,4.8828,4.8848,4.8848,4.8848,4.8848,4.8848,4.8848,4.8652,4.8437,4.8164,4.793,4.7383,4.6973,4.6777,4.6582,4.6367,4.6328,4.6308,4.6308,4.6308,4.6308,4.6308,4.6328,4.6406,4.6601,4.6738,4.6894,4.7285,4.7324,4.7558,4.7773,4.7812,4.8164,4.8457,4.875,4.8789,4.8828,4.8741,4.8505,4.729,4.3952,4.1248,4.0576,3.9462,3.8856,3.8456,3.7652,3.704,3.5191,3.5191,3.5204,3.5204,3.5137,3.511,3.503,3.499,3.499,3.495,3.4776,3.4563,3.4536,3.4536,3.4514,3.4409,3.5034,3.5153,3.5451,3.626,3.787,3.9561,4.1172,4.243,4.3554,4.5906,4.8273,4.8848,4.8848,4.8088,4.1445,4.1973,4.2734,4.332,4.3672,4.3691,4.3691,4.3691,4.3691,4.3691,4.3691,4.3691,4.3691,4.3848,4.416,4.4355,4.4668,4.5176,4.5566,4.5918,4.6348,4.6777,4.6953,4.6992,4.7344,4.7402,4.7324,4.7226,4.7031,4.6953,4.7031,4.748,4.7715,4.7832,4.8223,4.8574,4.8848,4.8848,4.8848,4.8848,4.8848,4.8848,4.8789,4.8652,4.8437,4.8183,4.7851,4.7461,4.6992,4.6738,4.6523,4.6406,4.6328,4.6308,4.6308,4.6308,4.6308,4.6308,4.6328,4.6406,4.6621,4.6816,4.6953,4.7266,4.7656,4.793,4.8164,4.8262,4.8281,4.8398,4.8691,4.8848,4.8848,4.8945,4.8672,4.8343,4.6426,4.4902,4.4471,4.379,4.2506,4.169,4.1077,3.9874,3.8233,3.6188,3.5177,3.5191,3.5164,3.5057,3.4977,3.4803,3.4656,3.4656,3.4736,3.4563,3.4349,3.4309,3.4295,3.434,3.4747,3.5806,3.7066,3.8691,3.9645,4.074,4.2084,4.3503,4.4721,4.5622,4.7102,4.8848,4.8848,4.8848,4.8848,4.1621,4.2344,4.2871,4.332,4.3672,4.3691,4.3691,4.3691,4.3691,4.3691,4.3711,4.3711,4.3711,4.373,4.418,4.4551,4.5,4.5527,4.5898,4.623,4.6758,4.7187,4.748,4.7617,4.8086,4.7832,4.7305,4.7012,4.7148,4.707,4.7168,4.7598,4.7988,4.8125,4.8242,4.8574,4.8848,4.8848,4.8848,4.8848,4.8808,4.875,4.8594,4.8437,4.8262,4.7773,4.7324,4.7051,4.6738,4.6504,4.6367,4.6308,4.6308,4.6308,4.6308,4.6308,4.6308,4.6348,4.6406,4.6601,4.6836,4.7129,4.7363,4.7851,4.8183,4.8418,4.8574,4.8633,4.8652,4.8652,4.8848,4.8848,4.8867,4.8935,4.8904,4.8291,4.701,4.7576,4.7962,4.611,4.4094,4.3471,4.2831,4.1407,3.9341,3.7509,3.5673,3.5477,3.5017,3.4923,3.4817,3.4589,3.4349,3.4496,3.4643,3.4376,3.4189,3.4148,3.4272,3.4747,3.559,3.6787,3.8371,4.0868,4.1981,4.2944,4.4517,4.597,4.644,4.7328,4.7941,4.8848,4.8848,4.8848,4.8848]},{"header":{"parameterUnit":"m.s-1","parameterCategory":1,"la1":31.0,"la2":29.5877,"lo1":-88.7671,"lo2":-86.6584,"dx":0.0162,"dy":0.0185,"nx":115,"ny":88,"refTime":"2023-01-04T06:00:00:Z","depth":0,"parameterNumber":3,"parameterNumberName":"V-component_of_WINDS"},"data":[0.0,0.0,0.0,0.0,0.0,0.0,0.0,0.0,0.0,0.0,0.0,0.0,0.0,0.0,0.0,0.0,0.0,0.0,0.0,0.0,0.0,0.0,0.0,0.0,0.0,0.0,0.0,0.0,0.0,0.0,0.0,0.0,0.0,0.0,0.0,0.0,0.0,0.0,0.0,0.0,0.0,0.0,0.0,0.0,0.0,0.0,0.0,0.0,0.0,0.0,0.0,0.0,0.0,0.0,0.0,0.0,0.0,0.0,0.0,0.0,0.0,0.0,0.0,0.0,0.0,0.0,0.0,0.0,0.0,0.0,0.0,0.0,0.0,0.0,0.0,0.0,0.0,0.0,0.0,0.0,0.0,0.0,0.0,0.0,0.0,0.0,0.0,0.0,0.0,0.0,0.0,0.0,0.0,0.0,0.0,0.0,0.0,0.0,0.0,0.0,0.0,0.0,0.0,0.0,0.0,0.0,0.0,0.0,0.0,0.0,0.0,0.0,0.0,0.0,0.0,0.0,0.0,0.0,0.0,0.0,0.0,0.0,0.0,0.0,0.0,0.0,0.0,0.0,0.0,0.0,0.0,0.0,0.0,0.0,0.0,0.0,0.0,0.0,0.0,0.0,0.0,0.0,0.0,0.0,0.0,0.0,0.0,0.0,0.0,0.0,0.0,0.0,0.0,0.0,0.0,0.0,0.0,0.0,0.0,0.0,0.0,0.0,0.0,0.0,0.0,0.0,0.0,0.0,0.0,0.0,0.0,0.0,0.0,0.0,0.0,0.0,0.0,0.0,0.0,0.0,0.0,0.0,0.0,0.0,0.0,0.0,0.0,0.0,0.0,0.0,0.0,0.0,0.0,0.0,0.0,0.0,0.0,0.0,0.0,0.0,0.0,0.0,0.0,0.0,0.0,0.0,0.0,0.0,0.0,0.0,0.0,0.0,0.0,0.0,0.0,0.0,0.0,0.0,0.0,0.0,0.0,0.0,0.0,0.0,0.0,0.0,0.0,0.0,0.0,0.0,0.0,0.0,0.0,0.0,0.0,0.0,0.0,0.0,0.0,0.0,0.0,0.0,0.0,0.0,0.0,0.0,0.0,0.0,0.0,0.0,0.0,0.0,0.0,0.0,0.0,0.0,0.0,0.0,0.0,0.0,0.0,0.0,0.0,0.0,0.0,0.0,0.0,0.0,0.0,0.0,0.0,0.0,0.0,0.0,0.0,0.0,0.0,0.0,0.0,0.0,0.0,0.0,0.0,0.0,0.0,0.0,0.0,0.0,0.0,0.0,0.0,0.0,0.0,0.0,0.0,0.0,0.0,0.0,0.0,0.0,0.0,0.0,0.0,0.0,0.0,0.0,0.0,0.0,0.0,0.0,0.0,0.0,0.0,0.0,0.0,0.0,0.0,0.0,0.0,0.0,0.0,0.0,0.0,0.0,0.0,0.0,0.0,0.0,0.0,0.0,0.0,0.0,0.0,0.0,0.0,0.0,0.0,0.0,0.0,0.0,0.0,0.0,0.0,0.0,0.0,0.0,0.0,0.0,0.0,0.0,0.0,0.0,0.0,0.0,0.0,0.0,0.0,0.0,0.0,0.0,0.0,0.0,0.0,0.0,0.0,0.0,0.0,0.0,0.0,0.0,0.0,0.0,0.0,0.0,0.0,0.0,0.0,0.0,0.0,0.0,0.0,0.0,0.0,0.0,0.0,0.0,0.0,0.0,0.0,0.0,0.0,0.0,0.0,0.0,0.0,0.0,0.0,0.0,0.0,0.0,0.0,0.0,0.0,0.0,0.0,0.0,0.0,0.0,0.0,0.0,0.0,0.0,0.0,0.0,0.0,0.0,0.0,0.0,0.0,0.0,0.0,0.0,0.0,0.0,0.0,0.0,0.0,0.0,0.0,0.0,0.0,0.0,0.0,0.0,0.0,0.0,0.0,0.0,0.0,0.0,0.0,0.0,0.0,0.0,0.0,0.0,0.0,0.0,0.0,0.0,0.0,0.0,0.0,0.0,0.0,0.0,0.0,0.0,0.0,0.0,0.0,0.0,0.0,0.0,0.0,0.0,0.0,0.0,0.0,0.0,0.0,0.0,0.0,0.0,0.0,0.0,0.0,0.0,0.0,0.0,0.0,0.0,0.0,0.0,0.0,0.0,0.0,0.0,0.0,0.0,0.0,0.0,0.0,0.0,0.0,0.0,0.0,0.0,0.0,0.0,0.0,0.0,0.0,0.0,0.0,0.0,0.0,0.0,0.0,0.0,0.0,0.0,0.0,0.0,0.0,0.0,0.0,0.0,0.0,0.0,0.0,0.0,0.0,0.0,0.0,0.0,0.0,0.0,0.0,0.0,0.0,0.0,0.0,0.0,0.0,0.0,0.0,0.0,0.0,0.0,0.0,0.0,0.0,0.0,0.0,0.0,0.0,0.0,0.0,0.0,0.0,0.0,0.0,0.0,0.0,0.0,0.0,0.0,0.0,0.0,0.0,0.0,0.0,0.0,0.0,0.0,0.0,0.0,0.0,0.0,0.0,0.0,0.0,0.0,0.0,0.0,0.0,0.0,0.0,0.0,0.0,0.0,0.0,0.0,0.0,0.0,0.0,0.0,0.0,0.0,0.0,0.0,0.0,0.0,0.0,0.0,0.0,0.0,0.0,0.0,0.0,0.0,0.0,0.0,0.0,0.0,0.0,0.0,0.0,0.0,0.0,0.0,0.0,0.0,0.0,0.0,0.0,0.0,0.0,0.0,0.0,0.0,0.0,0.0,0.0,0.0,0.0,0.0,0.0,0.0,0.0,0.0,0.0,0.0,0.0,0.0,0.0,0.0,0.0,0.0,0.0,0.0,0.0,0.0,0.0,0.0,0.0,0.0,0.0,0.0,0.0,0.0,0.0,0.0,0.0,0.0,0.0,0.0,0.0,0.0,0.0,0.0,0.0,0.0,0.0,0.0,0.0,0.0,0.0,0.0,0.0,0.0,0.0,0.0,0.0,0.0,0.0,0.0,0.0,0.0,0.0,0.0,0.0,0.0,0.0,0.0,0.0,0.0,0.0,0.0,0.0,0.0,0.0,0.0,0.0,0.0,0.0,0.0,0.0,0.0,0.0,0.0,0.0,0.0,0.0,0.0,0.0,0.0,0.0,0.0,0.0,0.0,0.0,0.0,0.0,0.0,0.0,0.0,0.0,0.0,0.0,0.0,0.0,0.0,0.0,0.0,0.0,0.0,0.0,0.0,0.0,0.0,0.0,0.0,0.0,0.0,0.0,0.0,0.0,0.0,0.0,0.0,0.0,0.0,0.0,0.0,0.0,0.0,0.0,0.0,0.0,0.0,0.0,0.0,0.0,0.0,0.0,0.0,0.0,0.0,0.0,0.0,0.0,0.0,0.0,0.0,0.0,0.0,0.0,0.0,0.0,0.0,0.0,0.0,0.0,0.0,0.0,0.0,0.0,0.0,0.0,0.0,0.0,0.0,0.0,0.0,0.0,0.0,0.0,0.0,0.0,0.0,0.0,0.0,0.0,0.0,0.0,0.0,0.0,0.0,0.0,0.0,0.0,0.0,0.0,0.0,0.0,0.0,0.0,0.0,0.0,0.0,0.0,0.0,0.0,0.0,0.0,0.0,0.0,0.0,0.0,0.0,0.0,0.0,0.0,0.0,0.0,0.0,0.0,0.0,0.0,0.0,0.0,0.0,0.0,0.0,0.0,0.0,0.0,0.0,0.0,0.0,0.0,0.0,0.0,0.0,0.0,0.0,0.0,0.0,0.0,0.0,0.0,0.0,0.0,0.0,0.0,0.0,0.0,0.0,0.0,0.0,0.0,0.0,0.0,0.0,0.0,0.0,0.0,0.0,0.0,0.0,0.0,0.0,0.0,0.0,0.0,0.0,0.0,0.0,0.0,0.0,0.0,0.0,0.0,0.0,0.0,0.0,0.0,0.0,0.0,0.0,0.0,0.0,0.0,0.0,0.0,0.0,0.0,0.0,0.0,0.0,0.0,0.0,0.0,0.0,0.0,0.0,0.0,0.0,0.0,0.0,0.0,0.0,0.0,0.0,0.0,0.0,0.0,0.0,0.0,0.0,0.0,0.0,0.0,0.0,0.0,0.0,0.0,0.0,0.0,0.0,0.0,0.0,0.0,0.0,0.0,0.0,0.0,0.0,0.0,0.0,0.0,0.0,0.0,0.0,0.0,0.0,0.0,0.0,0.0,0.0,0.0,0.0,0.0,0.0,0.0,0.0,0.0,0.0,0.0,0.0,-2.3419,0.0,0.0,0.0,-2.2085,0.0,0.0,0.0,0.0,0.0,0.0,0.0,0.0,0.0,0.0,0.0,0.0,0.0,0.0,0.0,0.0,0.0,0.0,0.0,0.0,0.0,0.0,0.0,0.0,0.0,0.0,0.0,0.0,0.0,0.0,0.0,0.0,0.0,0.0,0.0,0.0,0.0,0.0,0.0,0.0,0.0,0.0,0.0,0.0,0.0,0.0,0.0,0.0,0.0,0.0,0.0,0.0,0.0,0.0,0.0,0.0,0.0,0.0,0.0,0.0,0.0,0.0,0.0,0.0,0.0,0.0,0.0,0.0,0.0,0.0,0.0,0.0,0.0,0.0,0.0,0.0,0.0,0.0,0.0,0.0,0.0,0.0,0.0,0.0,0.0,0.0,0.0,0.0,0.0,0.0,0.0,0.0,0.0,0.0,0.0,0.0,0.0,0.0,0.0,0.0,0.0,0.0,0.0,0.0,0.0,0.0,0.0,0.0,0.0,0.0,-2.3879,-2.4357,-2.2497,-2.1689,-2.2182,0.0,0.0,0.0,0.0,0.0,0.0,0.0,0.0,0.0,0.0,0.0,0.0,0.0,0.0,0.0,0.0,0.0,0.0,0.0,0.0,0.0,0.0,0.0,0.0,0.0,0.0,0.0,0.0,0.0,0.0,0.0,0.0,0.0,0.0,0.0,0.0,0.0,0.0,0.0,0.0,0.0,0.0,0.0,0.0,0.0,0.0,0.0,0.0,0.0,0.0,0.0,0.0,0.0,0.0,0.0,0.0,0.0,0.0,0.0,0.0,0.0,0.0,0.0,0.0,0.0,0.0,0.0,0.0,0.0,0.0,0.0,0.0,0.0,0.0,0.0,0.0,0.0,0.0,0.0,0.0,0.0,0.0,0.0,0.0,0.0,0.0,0.0,0.0,0.0,0.0,0.0,0.0,0.0,0.0,0.0,0.0,0.0,0.0,0.0,0.0,0.0,0.0,0.0,0.0,0.0,0.0,0.0,0.0,0.0,0.0,0.0,0.0,-2.3004,-2.2136,-2.1845,0.0,0.0,0.0,0.0,0.0,0.0,0.0,0.0,0.0,0.0,0.0,0.0,0.0,0.0,0.0,0.0,0.0,0.0,0.0,0.0,0.0,0.0,0.0,0.0,0.0,0.0,0.0,0.0,0.0,0.0,0.0,0.0,0.0,0.0,0.0,0.0,0.0,0.0,0.0,0.0,0.0,0.0,0.0,0.0,0.0,0.0,0.0,0.0,0.0,0.0,0.0,0.0,0.0,0.0,0.0,0.0,0.0,0.0,0.0,0.0,0.0,0.0,0.0,0.0,0.0,0.0,0.0,0.0,0.0,0.0,0.0,0.0,0.0,0.0,0.0,0.0,0.0,0.0,0.0,0.0,0.0,0.0,0.0,0.0,0.0,0.0,0.0,0.0,0.0,0.0,0.0,0.0,0.0,0.0,0.0,0.0,0.0,0.0,0.0,0.0,0.0,0.0,0.0,0.0,0.0,0.0,0.0,0.0,0.0,0.0,-2.4209,-2.4192,-2.3436,0.0,-2.0945,0.0,0.0,0.0,0.0,0.0,0.0,0.0,0.0,0.0,0.0,0.0,0.0,0.0,0.0,0.0,0.0,0.0,0.0,0.0,0.0,0.0,0.0,0.0,0.0,0.0,0.0,0.0,0.0,0.0,0.0,0.0,0.0,0.0,0.0,0.0,0.0,0.0,0.0,0.0,0.0,0.0,0.0,0.0,0.0,0.0,0.0,0.0,0.0,0.0,0.0,0.0,0.0,0.0,0.0,0.0,0.0,0.0,0.0,0.0,0.0,0.0,0.0,0.0,0.0,0.0,0.0,0.0,0.0,0.0,0.0,0.0,0.0,0.0,0.0,0.0,0.0,0.0,0.0,0.0,0.0,0.0,0.0,0.0,0.0,0.0,0.0,0.0,0.0,0.0,0.0,0.0,0.0,0.0,0.0,0.0,0.0,0.0,0.0,0.0,0.0,0.0,0.0,0.0,0.0,0.0,0.0,0.0,0.0,0.0,0.0,-2.4209,-2.421,-2.3012,-2.2087,0.0,0.0,0.0,0.0,0.0,0.0,0.0,0.0,0.0,0.0,0.0,0.0,0.0,0.0,0.0,0.0,0.0,0.0,0.0,0.0,0.0,0.0,0.0,0.0,0.0,0.0,0.0,0.0,0.0,0.0,0.0,0.0,0.0,0.0,0.0,0.0,0.0,0.0,0.0,0.0,0.0,0.0,0.0,0.0,0.0,0.0,0.0,0.0,0.0,0.0,0.0,0.0,0.0,0.0,0.0,0.0,0.0,0.0,0.0,0.0,0.0,0.0,0.0,0.0,0.0,0.0,0.0,0.0,0.0,0.0,0.0,0.0,0.0,0.0,0.0,0.0,0.0,0.0,0.0,0.0,0.0,0.0,0.0,0.0,0.0,0.0,0.0,0.0,0.0,0.0,0.0,0.0,0.0,0.0,0.0,0.0,0.0,0.0,0.0,0.0,0.0,0.0,0.0,0.0,0.0,0.0,0.0,0.0,0.0,0.0,-2.3566,-2.3859,-2.3787,-2.2518,-2.1725,-2.1451,0.0,0.0,0.0,0.0,0.0,0.0,0.0,0.0,0.0,0.0,0.0,0.0,0.0,0.0,0.0,0.0,0.0,0.0,0.0,0.0,0.0,0.0,0.0,0.0,0.0,0.0,0.0,0.0,0.0,0.0,0.0,0.0,0.0,0.0,0.0,0.0,0.0,0.0,0.0,0.0,0.0,0.0,0.0,0.0,0.0,0.0,0.0,0.0,0.0,0.0,0.0,0.0,0.0,0.0,0.0,0.0,0.0,0.0,0.0,0.0,0.0,0.0,0.0,0.0,0.0,0.0,0.0,0.0,0.0,0.0,0.0,0.0,0.0,0.0,0.0,0.0,0.0,0.0,0.0,0.0,0.0,0.0,0.0,0.0,0.0,0.0,0.0,0.0,0.0,0.0,0.0,0.0,0.0,0.0,0.0,0.0,0.0,0.0,0.0,0.0,0.0,0.0,0.0,0.0,0.0,0.0,0.0,0.0,-2.285,-2.3033,-2.3033,-2.296,-2.2063,-2.1296,0.0,0.0,0.0,0.0,0.0,0.0,0.0,0.0,0.0,0.0,0.0,0.0,0.0,0.0,0.0,0.0,0.0,0.0,0.0,0.0,0.0,0.0,0.0,0.0,0.0,0.0,0.0,0.0,0.0,0.0,0.0,0.0,0.0,0.0,0.0,0.0,0.0,0.0,0.0,0.0,0.0,0.0,0.0,0.0,0.0,0.0,0.0,0.0,0.0,0.0,0.0,0.0,0.0,0.0,0.0,0.0,0.0,0.0,0.0,0.0,0.0,0.0,0.0,0.0,0.0,0.0,0.0,0.0,0.0,0.0,0.0,0.0,0.0,0.0,0.0,0.0,0.0,0.0,0.0,0.0,0.0,0.0,0.0,0.0,0.0,0.0,0.0,0.0,0.0,0.0,0.0,0.0,0.0,0.0,0.0,0.0,0.0,0.0,0.0,0.0,0.0,0.0,0.0,0.0,0.0,0.0,0.0,0.0,0.0,-2.2154,-2.3143,-2.3436,-2.2887,-2.2063,-2.1242,0.0,0.0,0.0,0.0,0.0,0.0,0.0,0.0,0.0,0.0,0.0,0.0,0.0,0.0,0.0,0.0,0.0,0.0,0.0,0.0,0.0,0.0,0.0,0.0,0.0,0.0,0.0,0.0,0.0,0.0,0.0,0.0,0.0,0.0,0.0,0.0,0.0,0.0,0.0,0.0,0.0,0.0,0.0,0.0,0.0,0.0,0.0,0.0,0.0,0.0,0.0,0.0,0.0,0.0,0.0,0.0,0.0,0.0,0.0,0.0,0.0,0.0,0.0,0.0,0.0,0.0,0.0,0.0,0.0,0.0,0.0,0.0,0.0,0.0,0.0,0.0,0.0,0.0,0.0,0.0,0.0,0.0,0.0,0.0,0.0,0.0,0.0,0.0,0.0,0.0,0.0,0.0,0.0,0.0,0.0,0.0,0.0,0.0,0.0,0.0,0.0,0.0,0.0,0.0,0.0,0.0,0.0,0.0,0.0,-2.241,-2.3704,-2.4032,-2.3213,-2.2371,-2.1462,0.0,0.0,0.0,0.0,0.0,0.0,0.0,0.0,0.0,0.0,0.0,0.0,0.0,0.0,0.0,0.0,0.0,0.0,0.0,0.0,0.0,0.0,0.0,0.0,0.0,0.0,0.0,0.0,0.0,0.0,0.0,0.0,0.0,0.0,0.0,0.0,0.0,0.0,0.0,0.0,0.0,0.0,0.0,0.0,0.0,0.0,0.0,0.0,0.0,0.0,0.0,0.0,0.0,0.0,0.0,0.0,0.0,0.0,0.0,0.0,0.0,0.0,0.0,0.0,0.0,0.0,0.0,0.0,0.0,0.0,0.0,0.0,0.0,0.0,0.0,0.0,0.0,0.0,0.0,0.0,0.0,0.0,0.0,0.0,0.0,0.0,0.0,0.0,0.0,0.0,0.0,0.0,0.0,0.0,0.0,0.0,0.0,0.0,0.0,0.0,0.0,0.0,0.0,0.0,0.0,0.0,0.0,0.0,-2.1512,-2.3837,-2.4664,-2.4715,-2.3868,-2.3082,-2.1926,0.0,0.0,0.0,0.0,0.0,0.0,0.0,0.0,0.0,0.0,0.0,0.0,0.0,0.0,0.0,0.0,0.0,0.0,0.0,0.0,0.0,0.0,0.0,0.0,0.0,0.0,0.0,0.0,0.0,0.0,0.0,0.0,0.0,0.0,0.0,0.0,0.0,0.0,0.0,0.0,0.0,0.0,0.0,0.0,0.0,0.0,0.0,0.0,0.0,0.0,0.0,0.0,0.0,0.0,0.0,0.0,0.0,0.0,0.0,0.0,0.0,0.0,0.0,0.0,0.0,0.0,0.0,0.0,0.0,0.0,0.0,0.0,0.0,0.0,0.0,0.0,0.0,0.0,0.0,0.0,0.0,0.0,0.0,0.0,0.0,0.0,0.0,0.0,0.0,0.0,0.0,0.0,0.0,0.0,0.0,0.0,0.0,0.0,0.0,0.0,0.0,0.0,0.0,0.0,0.0,0.0,0.0,0.0,0.0,-2.5949,-2.6321,-2.6296,-2.5996,-2.4718,-2.3077,0.0,0.0,0.0,0.0,0.0,0.0,0.0,0.0,0.0,0.0,0.0,0.0,0.0,0.0,0.0,0.0,0.0,0.0,0.0,0.0,0.0,0.0,0.0,0.0,0.0,0.0,0.0,0.0,0.0,0.0,0.0,0.0,0.0,0.0,0.0,0.0,0.0,0.0,0.0,0.0,0.0,0.0,0.0,0.0,0.0,0.0,0.0,0.0,0.0,0.0,0.0,0.0,0.0,0.0,0.0,0.0,0.0,0.0,0.0,0.0,0.0,0.0,0.0,0.0,0.0,0.0,0.0,0.0,0.0,0.0,0.0,0.0,0.0,0.0,0.0,0.0,0.0,0.0,0.0,0.0,0.0,0.0,0.0,0.0,0.0,0.0,0.0,0.0,0.0,0.0,0.0,0.0,0.0,0.0,0.0,0.0,0.0,0.0,0.0,0.0,0.0,0.0,0.0,0.0,0.0,0.0,0.0,0.0,0.0,-2.9571,-2.8924,-2.8528,-2.8499,-2.704,-2.5059,-2.2583,0.0,0.0,0.0,0.0,0.0,0.0,0.0,0.0,0.0,0.0,0.0,0.0,0.0,0.0,0.0,0.0,0.0,0.0,0.0,0.0,0.0,0.0,0.0,0.0,0.0,0.0,0.0,0.0,0.0,0.0,0.0,0.0,0.0,0.0,0.0,0.0,0.0,0.0,0.0,0.0,0.0,0.0,0.0,0.0,0.0,0.0,0.0,0.0,0.0,0.0,0.0,0.0,0.0,0.0,0.0,0.0,0.0,0.0,0.0,0.0,0.0,0.0,0.0,0.0,0.0,0.0,0.0,0.0,0.0,0.0,0.0,0.0,0.0,0.0,0.0,0.0,0.0,0.0,0.0,0.0,0.0,0.0,0.0,0.0,0.0,0.0,0.0,0.0,0.0,0.0,0.0,0.0,0.0,0.0,0.0,0.0,0.0,0.0,0.0,0.0,0.0,0.0,0.0,0.0,0.0,0.0,0.0,0.0,-3.4376,-3.2506,-3.1498,-3.1359,-2.9784,-2.7625,0.0,0.0,0.0,0.0,0.0,0.0,0.0,0.0,0.0,0.0,0.0,0.0,0.0,0.0,0.0,0.0,0.0,0.0,0.0,0.0,0.0,0.0,0.0,0.0,0.0,0.0,0.0,0.0,0.0,0.0,0.0,0.0,0.0,0.0,0.0,0.0,0.0,0.0,0.0,0.0,0.0,0.0,0.0,0.0,0.0,0.0,0.0,0.0,0.0,0.0,0.0,0.0,0.0,0.0,0.0,0.0,0.0,0.0,0.0,0.0,0.0,0.0,0.0,0.0,0.0,0.0,0.0,0.0,0.0,0.0,0.0,0.0,0.0,0.0,0.0,0.0,0.0,0.0,0.0,0.0,0.0,0.0,0.0,0.0,0.0,0.0,0.0,0.0,0.0,0.0,0.0,0.0,0.0,0.0,0.0,0.0,0.0,0.0,0.0,0.0,0.0,0.0,0.0,0.0,0.0,0.0,0.0,0.0,0.0,-3.6345,-3.7329,-3.709,-3.5628,-3.2674,-2.9721,0.0,0.0,0.0,0.0,0.0,0.0,0.0,0.0,0.0,0.0,0.0,0.0,0.0,0.0,0.0,0.0,0.0,0.0,0.0,0.0,0.0,0.0,0.0,0.0,0.0,0.0,0.0,0.0,0.0,0.0,0.0,0.0,0.0,0.0,0.0,0.0,0.0,0.0,0.0,0.0,0.0,0.0,0.0,0.0,0.0,0.0,0.0,0.0,0.0,0.0,0.0,0.0,0.0,0.0,0.0,0.0,0.0,0.0,0.0,0.0,0.0,0.0,0.0,0.0,0.0,0.0,0.0,0.0,0.0,0.0,0.0,0.0,0.0,0.0,0.0,0.0,0.0,0.0,0.0,0.0,0.0,0.0,0.0,0.0,0.0,0.0,0.0,0.0,0.0,0.0,0.0,0.0,0.0,0.0,0.0,0.0,0.0,0.0,0.0,0.0,0.0,0.0,0.0,0.0,0.0,0.0,0.0,0.0,-3.5123,-3.862,-4.0576,-4.1019,-3.989,-3.6148,-3.2631,0.0,0.0,0.0,0.0,0.0,0.0,0.0,0.0,0.0,0.0,0.0,0.0,0.0,0.0,0.0,0.0,0.0,0.0,0.0,0.0,0.0,0.0,0.0,0.0,0.0,0.0,0.0,0.0,0.0,0.0,0.0,0.0,0.0,0.0,0.0,0.0,0.0,0.0,0.0,0.0,0.0,0.0,0.0,0.0,0.0,0.0,0.0,0.0,0.0,0.0,0.0,0.0,0.0,0.0,0.0,0.0,0.0,0.0,0.0,0.0,0.0,0.0,0.0,0.0,0.0,0.0,0.0,0.0,0.0,0.0,0.0,0.0,0.0,0.0,0.0,0.0,0.0,0.0,0.0,0.0,0.0,0.0,0.0,0.0,0.0,0.0,0.0,0.0,0.0,0.0,0.0,0.0,0.0,0.0,0.0,0.0,0.0,0.0,0.0,0.0,0.0,0.0,0.0,0.0,0.0,0.0,0.0,0.0,-3.7309,-4.0754,-4.2581,-4.3538,-4.3403,-3.9569,-3.5736,0.0,0.0,0.0,0.0,0.0,0.0,0.0,0.0,0.0,0.0,0.0,0.0,0.0,0.0,0.0,0.0,0.0,0.0,0.0,0.0,0.0,0.0,0.0,0.0,0.0,0.0,0.0,0.0,0.0,0.0,0.0,0.0,0.0,0.0,0.0,0.0,0.0,0.0,0.0,0.0,0.0,0.0,0.0,0.0,0.0,0.0,0.0,0.0,0.0,0.0,0.0,0.0,0.0,0.0,0.0,0.0,0.0,0.0,0.0,0.0,0.0,0.0,0.0,0.0,0.0,0.0,0.0,0.0,0.0,0.0,0.0,0.0,0.0,0.0,0.0,0.0,0.0,0.0,0.0,0.0,0.0,0.0,0.0,0.0,0.0,0.0,0.0,0.0,0.0,0.0,0.0,0.0,0.0,0.0,0.0,0.0,0.0,0.0,0.0,0.0,0.0,0.0,0.0,0.0,0.0,0.0,0.0,0.0,-3.933,-4.2193,-4.3634,-4.4316,-4.4316,-4.078,-3.7148,0.0,0.0,0.0,0.0,0.0,0.0,0.0,0.0,0.0,0.0,0.0,0.0,0.0,0.0,0.0,0.0,0.0,0.0,0.0,0.0,0.0,0.0,0.0,0.0,0.0,0.0,0.0,0.0,0.0,0.0,0.0,0.0,0.0,0.0,0.0,0.0,0.0,0.0,0.0,0.0,0.0,0.0,0.0,0.0,0.0,0.0,0.0,0.0,-2.7852,0.0,0.0,0.0,0.0,0.0,0.0,0.0,0.0,0.0,0.0,0.0,0.0,0.0,0.0,0.0,0.0,0.0,0.0,0.0,0.0,0.0,0.0,0.0,0.0,0.0,0.0,0.0,0.0,0.0,0.0,0.0,0.0,0.0,0.0,0.0,0.0,0.0,0.0,0.0,0.0,0.0,0.0,0.0,0.0,0.0,0.0,0.0,0.0,0.0,0.0,0.0,0.0,0.0,0.0,0.0,0.0,0.0,0.0,0.0,-4.0954,-4.3571,-4.5648,-4.6312,-4.5568,-4.3498,-4.0197,0.0,0.0,0.0,0.0,0.0,0.0,0.0,0.0,0.0,0.0,0.0,0.0,0.0,0.0,0.0,0.0,0.0,0.0,0.0,0.0,0.0,0.0,0.0,0.0,0.0,0.0,0.0,0.0,0.0,0.0,0.0,0.0,0.0,0.0,0.0,0.0,0.0,0.0,0.0,0.0,0.0,0.0,0.0,0.0,0.0,0.0,0.0,0.0,0.0,0.0,0.0,0.0,0.0,0.0,0.0,0.0,0.0,0.0,0.0,0.0,0.0,0.0,0.0,0.0,0.0,0.0,0.0,0.0,0.0,0.0,0.0,0.0,0.0,0.0,0.0,0.0,0.0,0.0,0.0,0.0,0.0,0.0,0.0,0.0,0.0,0.0,0.0,0.0,0.0,0.0,0.0,0.0,0.0,0.0,0.0,0.0,0.0,0.0,0.0,0.0,0.0,0.0,0.0,0.0,0.0,0.0,0.0,-3.9109,-4.2517,-4.5162,-4.7691,-4.8342,-4.6989,-4.6167,-4.3231,-3.783,0.0,0.0,0.0,0.0,0.0,0.0,0.0,0.0,0.0,0.0,0.0,0.0,0.0,0.0,0.0,0.0,0.0,0.0,0.0,0.0,0.0,0.0,0.0,0.0,0.0,0.0,0.0,0.0,0.0,0.0,0.0,0.0,0.0,0.0,0.0,0.0,0.0,0.0,-2.5494,-2.8834,0.0,0.0,0.0,0.0,0.0,0.0,0.0,0.0,-2.9802,0.0,0.0,0.0,0.0,0.0,0.0,0.0,0.0,0.0,0.0,0.0,0.0,0.0,0.0,0.0,0.0,0.0,0.0,0.0,0.0,0.0,0.0,0.0,0.0,0.0,0.0,0.0,0.0,0.0,0.0,0.0,0.0,0.0,0.0,0.0,0.0,0.0,0.0,0.0,0.0,0.0,0.0,0.0,0.0,0.0,0.0,0.0,0.0,0.0,0.0,0.0,0.0,0.0,0.0,0.0,0.0,-3.6977,-4.0733,-4.4194,-4.7319,-4.8443,-4.8578,-4.7733,-4.6413,-4.3634,-3.9213,0.0,0.0,0.0,0.0,0.0,0.0,0.0,0.0,0.0,0.0,0.0,0.0,0.0,0.0,0.0,0.0,0.0,0.0,0.0,0.0,0.0,0.0,0.0,0.0,0.0,0.0,0.0,0.0,0.0,0.0,0.0,0.0,0.0,0.0,0.0,0.0,0.0,0.0,0.0,-3.187,-3.3489,0.0,0.0,0.0,0.0,0.0,0.0,0.0,0.0,-3.1361,0.0,0.0,0.0,0.0,0.0,0.0,0.0,0.0,0.0,0.0,0.0,0.0,0.0,0.0,0.0,0.0,0.0,0.0,0.0,0.0,0.0,0.0,0.0,0.0,0.0,0.0,0.0,0.0,0.0,0.0,0.0,0.0,0.0,0.0,0.0,0.0,0.0,0.0,0.0,0.0,0.0,0.0,0.0,0.0,0.0,0.0,0.0,0.0,0.0,0.0,0.0,0.0,0.0,0.0,0.0,-3.7447,-4.2156,-4.5806,-4.8409,-4.9932,-5.0168,-4.9052,-4.7631,-4.4665,0.0,0.0,0.0,0.0,0.0,0.0,0.0,0.0,0.0,0.0,0.0,0.0,0.0,0.0,0.0,0.0,0.0,0.0,0.0,0.0,0.0,0.0,0.0,0.0,0.0,0.0,0.0,0.0,0.0,0.0,0.0,0.0,0.0,0.0,0.0,0.0,0.0,0.0,0.0,0.0,-3.4198,-3.6357,-3.7594,0.0,0.0,0.0,0.0,0.0,0.0,-3.4657,-3.3476,0.0,0.0,0.0,0.0,0.0,0.0,0.0,0.0,0.0,0.0,0.0,0.0,0.0,0.0,0.0,0.0,0.0,0.0,0.0,0.0,0.0,0.0,0.0,0.0,0.0,0.0,0.0,0.0,0.0,0.0,0.0,0.0,0.0,0.0,0.0,0.0,0.0,0.0,0.0,0.0,0.0,0.0,0.0,0.0,0.0,0.0,0.0,0.0,0.0,0.0,0.0,0.0,0.0,0.0,0.0,-3.7958,-4.3562,-4.7393,-4.9424,-5.1488,-5.1826,-5.0338,-4.8612,-4.5377,0.0,0.0,0.0,0.0,0.0,0.0,0.0,0.0,0.0,0.0,0.0,0.0,0.0,0.0,0.0,0.0,0.0,0.0,0.0,0.0,0.0,0.0,0.0,0.0,0.0,0.0,0.0,0.0,0.0,0.0,0.0,0.0,0.0,0.0,0.0,0.0,0.0,0.0,0.0,0.0,0.0,-3.8846,-4.0708,-3.9822,0.0,0.0,0.0,0.0,-3.809,-3.7087,0.0,0.0,0.0,0.0,0.0,0.0,0.0,0.0,0.0,0.0,0.0,0.0,0.0,0.0,0.0,0.0,0.0,0.0,0.0,0.0,0.0,0.0,0.0,0.0,0.0,0.0,0.0,0.0,0.0,0.0,0.0,0.0,0.0,0.0,0.0,0.0,0.0,0.0,0.0,0.0,0.0,0.0,0.0,0.0,0.0,0.0,0.0,0.0,0.0,0.0,0.0,0.0,0.0,0.0,0.0,0.0,-3.9479,-4.5103,-4.8923,-5.0913,-5.2536,-5.2638,-5.1116,-4.8376,-4.4812,0.0,0.0,0.0,0.0,0.0,0.0,0.0,0.0,0.0,0.0,0.0,0.0,0.0,0.0,0.0,0.0,0.0,0.0,0.0,0.0,0.0,0.0,0.0,0.0,0.0,0.0,0.0,0.0,0.0,0.0,0.0,0.0,0.0,0.0,0.0,0.0,0.0,0.0,0.0,0.0,0.0,-4.0363,-4.4164,-4.3491,-4.2023,0.0,0.0,-4.1733,-4.0607,-4.0685,0.0,0.0,0.0,0.0,0.0,0.0,0.0,0.0,0.0,0.0,0.0,0.0,0.0,0.0,0.0,0.0,0.0,0.0,0.0,0.0,0.0,0.0,0.0,0.0,0.0,0.0,0.0,0.0,0.0,0.0,0.0,0.0,0.0,0.0,0.0,0.0,0.0,0.0,0.0,0.0,0.0,0.0,0.0,0.0,0.0,0.0,0.0,0.0,0.0,0.0,0.0,0.0,0.0,0.0,0.0,-3.4731,-3.979,-4.5623,-4.9311,-5.0541,-5.1657,-5.1691,-5.0608,-4.7733,-4.4338,0.0,0.0,0.0,0.0,0.0,0.0,0.0,0.0,0.0,0.0,0.0,0.0,0.0,0.0,0.0,0.0,0.0,0.0,0.0,0.0,0.0,0.0,0.0,0.0,0.0,0.0,0.0,0.0,0.0,0.0,0.0,0.0,0.0,0.0,0.0,0.0,0.0,0.0,0.0,0.0,0.0,0.0,-4.5738,-4.5966,0.0,0.0,0.0,-4.4921,-4.4343,0.0,0.0,0.0,0.0,0.0,0.0,0.0,0.0,0.0,0.0,0.0,0.0,0.0,0.0,0.0,0.0,0.0,0.0,0.0,0.0,0.0,0.0,0.0,0.0,0.0,0.0,0.0,0.0,0.0,0.0,0.0,0.0,0.0,0.0,0.0,0.0,0.0,0.0,0.0,0.0,0.0,0.0,0.0,0.0,0.0,0.0,0.0,0.0,0.0,0.0,0.0,0.0,0.0,0.0,0.0,0.0,0.0,-4.002,-4.6124,-4.9526,-5.0101,-5.0845,-5.0845,-5.0067,-4.7597,0.0,0.0,0.0,0.0,0.0,0.0,0.0,0.0,0.0,0.0,0.0,0.0,0.0,0.0,0.0,0.0,0.0,0.0,0.0,0.0,0.0,0.0,0.0,0.0,0.0,0.0,0.0,-1.8974,0.0,0.0,0.0,0.0,0.0,0.0,0.0,0.0,0.0,0.0,0.0,0.0,0.0,0.0,-4.4144,-4.7331,-4.8644,-4.9234,0.0,0.0,-4.8364,-4.8152,-4.7829,-4.6424,0.0,0.0,0.0,0.0,0.0,0.0,0.0,0.0,0.0,0.0,0.0,0.0,0.0,0.0,0.0,0.0,0.0,0.0,0.0,0.0,0.0,0.0,0.0,0.0,0.0,0.0,0.0,0.0,-1.9286,0.0,0.0,0.0,0.0,0.0,0.0,0.0,0.0,0.0,0.0,0.0,0.0,0.0,0.0,0.0,0.0,0.0,0.0,0.0,0.0,0.0,0.0,0.0,0.0,0.0,0.0,-4.0754,-4.6873,-5.0033,-5.0135,-5.0811,-5.0845,-5.0101,-4.8578,-4.5703,0.0,0.0,0.0,0.0,0.0,0.0,0.0,0.0,0.0,0.0,0.0,0.0,0.0,0.0,0.0,0.0,0.0,0.0,0.0,0.0,0.0,0.0,0.0,0.0,0.0,0.0,0.0,0.0,0.0,0.0,0.0,0.0,0.0,0.0,0.0,0.0,0.0,0.0,0.0,0.0,0.0,-4.598,-4.9643,-5.1986,-5.3087,0.0,0.0,-5.2837,-5.1544,-5.1647,-5.0495,-4.6362,0.0,0.0,0.0,0.0,0.0,0.0,0.0,0.0,0.0,0.0,0.0,0.0,0.0,0.0,0.0,0.0,0.0,0.0,0.0,0.0,0.0,0.0,0.0,0.0,0.0,-2.0556,0.0,0.0,-1.9286,0.0,0.0,0.0,0.0,0.0,0.0,0.0,0.0,0.0,0.0,0.0,0.0,0.0,0.0,0.0,0.0,0.0,0.0,0.0,0.0,0.0,0.0,0.0,0.0,-3.6697,-4.0789,-4.6533,-4.9627,-5.0067,-5.0371,-5.0608,-5.0777,-4.9357,-4.6921,0.0,0.0,0.0,0.0,0.0,0.0,0.0,0.0,0.0,0.0,0.0,0.0,0.0,0.0,0.0,0.0,0.0,0.0,0.0,0.0,0.0,0.0,0.0,0.0,0.0,0.0,0.0,0.0,-3.0095,-3.1279,-3.0563,0.0,0.0,0.0,0.0,0.0,0.0,0.0,0.0,0.0,0.0,-4.8425,-5.2265,-5.4721,0.0,0.0,-5.6009,-5.5793,-5.4786,-5.4058,-5.2377,-4.8654,-4.5472,0.0,0.0,0.0,0.0,0.0,0.0,0.0,0.0,0.0,0.0,0.0,0.0,0.0,0.0,0.0,0.0,0.0,0.0,0.0,0.0,0.0,0.0,0.0,0.0,0.0,0.0,0.0,0.0,0.0,0.0,0.0,0.0,0.0,0.0,0.0,0.0,0.0,0.0,0.0,0.0,0.0,0.0,0.0,0.0,0.0,0.0,0.0,0.0,0.0,0.0,0.0,0.0,-3.7068,-4.1085,-4.651,-4.9695,-5.0405,-5.0439,-5.0676,-5.1183,-5.0202,-4.8376,0.0,0.0,0.0,0.0,0.0,0.0,0.0,0.0,0.0,0.0,0.0,0.0,0.0,0.0,0.0,0.0,0.0,0.0,0.0,0.0,0.0,0.0,0.0,0.0,0.0,0.0,0.0,0.0,-3.2343,-3.2577,-3.0044,0.0,0.0,0.0,0.0,0.0,0.0,0.0,0.0,0.0,0.0,-5.1357,-5.4569,-5.6747,-5.7995,-5.7831,-5.7742,-5.7427,-5.6645,-5.5545,-5.4008,-5.1627,0.0,0.0,0.0,0.0,0.0,0.0,0.0,0.0,0.0,0.0,0.0,0.0,0.0,0.0,0.0,0.0,0.0,0.0,0.0,0.0,0.0,0.0,0.0,0.0,0.0,0.0,0.0,-2.2676,0.0,0.0,-2.1697,0.0,0.0,0.0,0.0,0.0,0.0,0.0,0.0,0.0,0.0,0.0,0.0,0.0,0.0,0.0,0.0,0.0,0.0,0.0,0.0,0.0,0.0,-3.7447,-4.1778,-4.7257,-5.0439,-5.1183,-5.1217,-5.1251,-5.1285,-5.1217,-5.0135,-4.7902,0.0,0.0,0.0,0.0,0.0,0.0,0.0,0.0,0.0,0.0,0.0,0.0,0.0,0.0,0.0,0.0,0.0,0.0,0.0,0.0,0.0,0.0,0.0,0.0,0.0,0.0,-3.0437,-3.2121,-3.2184,0.0,0.0,0.0,0.0,0.0,0.0,0.0,0.0,0.0,0.0,-5.1161,-5.4833,-5.6383,-5.7946,-5.8835,-5.8207,-5.793,-5.7591,-5.696,-5.6161,-5.5574,0.0,0.0,0.0,0.0,0.0,0.0,0.0,0.0,0.0,0.0,0.0,0.0,0.0,0.0,0.0,0.0,0.0,0.0,0.0,0.0,0.0,0.0,0.0,0.0,0.0,0.0,0.0,-2.8536,-2.6925,0.0,0.0,0.0,0.0,0.0,0.0,0.0,0.0,0.0,0.0,0.0,-3.9821,-3.9221,0.0,0.0,0.0,0.0,0.0,0.0,0.0,0.0,0.0,0.0,0.0,0.0,-3.9135,-4.2671,-4.8039,-5.1217,-5.1928,-5.2469,-5.2976,-5.345,-5.3957,-5.2706,-4.9616,0.0,0.0,0.0,0.0,0.0,0.0,0.0,0.0,0.0,0.0,0.0,0.0,0.0,0.0,0.0,0.0,0.0,0.0,0.0,0.0,0.0,0.0,0.0,0.0,0.0,-3.2967,0.0,0.0,0.0,0.0,0.0,0.0,0.0,0.0,0.0,0.0,0.0,-4.5883,-5.1238,-5.4246,-5.6785,-5.8831,-6.0041,-6.0811,0.0,0.0,0.0,0.0,0.0,0.0,0.0,0.0,0.0,0.0,0.0,0.0,0.0,0.0,-4.6497,-4.1833,-4.0921,-4.0696,-4.0011,0.0,0.0,0.0,0.0,0.0,0.0,0.0,0.0,0.0,0.0,0.0,0.0,0.0,0.0,-3.3457,0.0,-3.1914,0.0,0.0,0.0,0.0,0.0,0.0,0.0,0.0,-4.1194,-4.351,-4.4975,-4.4368,-4.3837,0.0,-4.1869,-3.8836,0.0,0.0,0.0,0.0,0.0,0.0,0.0,0.0,-4.0982,-4.4506,-4.9406,-5.2503,-5.345,-5.3991,-5.4499,-5.4972,-5.5446,-5.4566,-5.223,-4.961,-4.6249,0.0,0.0,0.0,0.0,0.0,0.0,0.0,0.0,0.0,0.0,0.0,0.0,0.0,0.0,0.0,0.0,0.0,0.0,0.0,0.0,0.0,0.0,0.0,-3.5549,0.0,0.0,0.0,0.0,0.0,0.0,0.0,0.0,0.0,-4.1625,-4.559,-5.0435,-5.5794,-5.7629,-5.9024,-6.0603,0.0,0.0,0.0,0.0,0.0,0.0,0.0,-5.9795,-6.0126,-5.9979,-6.0052,-6.0811,-5.981,-5.9054,-5.9724,0.0,0.0,-5.0969,-4.9815,-4.9715,-4.9086,-4.9537,-5.0098,-5.0391,-5.0908,-5.1977,0.0,0.0,0.0,0.0,0.0,0.0,0.0,0.0,-3.8659,-3.8287,0.0,-3.7756,0.0,0.0,0.0,0.0,0.0,0.0,0.0,0.0,-4.7776,-4.9825,-4.9372,-4.9182,-4.9215,-4.9168,-4.6384,-4.5069,-4.4844,-3.95,0.0,0.0,0.0,0.0,0.0,0.0,-4.3048,-4.741,-5.1511,-5.4262,-5.5615,-5.575,-5.5818,-5.5886,-5.5919,-5.5919,-5.5818,-5.3855,-5.1987,-5.0515,-4.5367,0.0,0.0,0.0,0.0,0.0,0.0,0.0,0.0,0.0,0.0,0.0,0.0,0.0,0.0,0.0,0.0,0.0,0.0,0.0,0.0,-3.6194,0.0,0.0,0.0,0.0,0.0,0.0,0.0,0.0,0.0,0.0,-4.7719,-5.0949,-5.5133,-5.9869,0.0,0.0,0.0,0.0,-6.3576,-6.2034,-6.2401,-6.2622,-6.1924,-6.2438,-6.3723,-6.6109,0.0,0.0,-6.8715,-6.6902,-6.5567,-6.6263,-6.7012,-6.5713,-5.9419,-5.8215,-5.8117,-5.7984,-5.8165,-5.8589,-5.9296,-5.9491,-6.0052,-4.1682,0.0,0.0,0.0,0.0,-3.8801,-4.0556,-4.286,-4.4673,-4.4966,-4.425,-4.4917,0.0,0.0,0.0,0.0,0.0,0.0,-4.4197,-4.6817,-4.9705,-5.1753,-5.3043,-5.2976,-5.2976,-5.2975,-5.1654,-5.0977,-5.0973,-4.9406,-4.4448,-3.6713,0.0,0.0,0.0,0.0,-4.6542,-5.0332,-5.3482,-5.5277,-5.5716,-5.6731,-5.778,-5.8829,-5.8829,-5.9099,-5.9674,-5.8017,-5.599,-5.3617,-5.0632,0.0,0.0,0.0,0.0,0.0,0.0,0.0,0.0,0.0,0.0,0.0,0.0,0.0,0.0,0.0,0.0,0.0,0.0,0.0,-3.7254,-4.0972,-4.2181,0.0,0.0,0.0,0.0,0.0,0.0,0.0,0.0,0.0,-5.7042,-5.6932,-5.8217,0.0,0.0,-6.2695,-6.3282,-6.4273,-6.4971,-6.5081,-6.4824,0.0,0.0,-6.5668,-6.6072,-6.7907,-6.9816,-7.1394,-7.2108,-7.1668,-7.1484,-7.2197,-7.2621,-7.2108,-7.0401,-6.8532,-6.7249,-6.6736,-6.7046,-6.7486,-6.7743,-6.778,-6.8091,-4.7319,-4.43,-4.2227,-4.1938,-4.3013,-4.4038,-4.5738,-4.7912,-4.9542,-5.0079,-4.9828,-5.0515,-4.9266,-4.6542,-4.5061,0.0,0.0,0.0,-4.8353,-5.0764,-5.2058,-5.3517,-5.4972,-5.504,-5.5175,-5.5412,-5.4735,-5.4668,-5.5243,-5.4668,-5.141,-4.5692,0.0,0.0,-4.4406,-4.7261,-5.04,-5.3681,-5.5854,-5.7171,-5.7476,-5.8321,-5.9201,-6.0047,-6.0419,-6.0825,-6.1264,-6.0689,-5.9404,-5.7484,-5.5145,-5.135,0.0,0.0,0.0,0.0,0.0,0.0,0.0,0.0,0.0,0.0,0.0,-2.9071,-2.96,0.0,0.0,0.0,-3.8184,-4.0089,-4.3598,-4.56,0.0,0.0,0.0,0.0,0.0,0.0,0.0,-5.1169,-5.528,-5.9245,-6.2585,-6.2071,-6.2511,-6.5595,-6.5264,-6.4934,-6.5448,0.0,-6.7247,-6.743,-6.732,-6.754,-6.8495,-6.8495,-6.9045,-7.0954,-7.2716,-7.4184,-7.4955,-7.4882,-7.4955,-7.5652,-7.5873,-7.5873,-7.5873,-7.4661,-7.3303,-7.2239,-7.2386,-7.2716,-7.2753,-7.2753,-7.2899,-5.1961,-5.2198,-4.8293,-4.7403,-4.8727,-5.0085,-5.1414,-5.2706,-5.3484,-5.3957,-5.4194,-5.477,-5.4058,-5.2306,-5.1028,0.0,-5.2204,-5.2179,-5.3107,-5.4837,-5.4905,-5.531,-5.5987,-5.6055,-5.6427,-5.7036,-5.6393,-5.6765,-5.7949,-5.6731,-5.6125,-5.6163,-5.2901,-5.085,-5.0256,-5.2043,-5.4397,-5.7216,-5.8462,-5.9438,-6.0182,-6.0182,-6.0216,-6.0283,-6.1061,-6.1501,-6.1603,-6.2212,-6.2245,-6.1535,-5.9016,-5.6303,-5.3301,0.0,0.0,0.0,0.0,0.0,0.0,0.0,0.0,0.0,0.0,0.0,0.0,0.0,0.0,-4.3275,-4.6783,0.0,-5.1882,-5.024,0.0,0.0,0.0,-5.0867,-5.2564,-5.484,-5.6859,-5.84,0.0,0.0,-6.5375,0.0,-6.743,-6.8972,-6.8385,-6.7797,-6.7871,-6.9155,-6.9926,-6.9192,-6.9816,-7.0367,-7.0513,-7.1211,-7.2459,-7.4221,-7.5579,-7.6203,-7.679,-7.6387,-7.6313,-7.7084,-7.7304,-7.7268,-7.7304,-7.7121,-7.6864,-7.5285,-7.5065,-7.5065,-7.5065,-7.5028,-7.5028,-5.4769,-5.4837,-5.3754,-5.328,-5.3111,-5.3449,-5.4363,-5.5784,-5.6528,-5.7171,-5.7819,-5.8457,-5.8259,-5.7281,-5.6942,-5.6636,-5.6467,-5.6972,-5.7209,-5.7137,-5.7679,-5.8051,-5.8254,-5.8795,-5.9133,-5.9302,-5.9133,-5.9235,-5.9539,-5.9235,-5.9066,-5.9072,-5.8225,-5.6942,-5.5315,-5.5723,-5.7114,-5.9377,-5.9674,-6.0216,-6.0994,-6.1028,-6.1298,-6.1839,-6.2584,-6.326,-6.3802,-6.4005,-6.4005,-6.3802,-6.212,-5.9858,-5.6947,-5.2511,0.0,0.0,0.0,0.0,0.0,0.0,0.0,0.0,0.0,-3.6427,-3.7507,0.0,-4.3614,0.0,-5.076,-5.3866,-5.3544,-5.531,0.0,0.0,-5.6948,-5.7464,-5.9134,-6.0933,-6.2475,-6.3466,-6.5668,-6.7614,-6.8825,-6.9669,-7.0513,-7.1468,-6.9889,-6.8825,-6.9449,-7.0367,-7.0954,-7.0917,-7.1908,-7.2826,-7.2899,-7.4588,-7.5579,-7.4992,-7.5579,-7.6166,-7.635,-7.5726,-7.5652,-7.6974,-7.7341,-7.7341,-7.7378,-7.7341,-7.7231,-7.6827,-7.6754,-7.6754,-7.6754,-7.6717,-7.6754,-5.5919,-5.6224,-5.6562,-5.6833,-5.7002,-5.6359,-5.6697,-5.7848,-5.893,-5.9844,-6.0588,-6.1637,-6.1704,-6.1028,-6.1028,-6.0419,-5.9471,-5.9844,-5.9607,-5.8896,-5.9302,-5.9505,-5.9505,-5.9911,-6.0283,-6.0622,-6.0655,-6.0791,-6.1095,-6.1129,-6.1129,-6.1129,-6.1129,-6.0596,-5.9451,-5.9112,-5.9309,-6.008,-6.0757,-6.1332,-6.1772,-6.211,-6.2313,-6.2415,-6.3509,-6.4165,-6.4267,-6.4652,-6.4517,-6.3826,-6.2978,-6.1316,-5.8637,-5.5178,-5.1473,0.0,0.0,0.0,0.0,0.0,0.0,0.0,0.0,0.0,0.0,0.0,-4.9408,-5.126,-5.5944,-5.8425,-5.7364,-5.9692,-6.1511,-6.2099,-6.2947,-6.3965,-6.5264,-6.6512,-6.7614,-6.8421,-6.9669,-7.0954,-7.2092,-7.2642,-7.3083,-7.3523,-7.2422,-7.1578,-7.1725,-7.2386,-7.2936,-7.2973,-7.367,-7.4221,-7.4221,-7.5946,-7.69,-7.5799,-7.6093,-7.6754,-7.7121,-7.6533,-7.6497,-7.8002,-7.8405,-7.8405,-7.8369,-7.8405,-7.8405,-7.8405,-7.8405,-7.8148,-7.7488,-7.7341,-7.7341,-5.6664,-5.7273,-5.7915,-5.8964,-6.0182,-5.8964,-5.8896,-5.9708,-6.1095,-6.2009,-6.2618,-6.3903,-6.4038,-6.3396,-6.3463,-6.2753,-6.1467,-6.1535,-6.1163,-6.0419,-6.0385,-6.0385,-6.0385,-6.0385,-6.0757,-6.1434,-6.1434,-6.1772,-6.2381,-6.2415,-6.2415,-6.2415,-6.2415,-6.2313,-6.2076,-6.167,-6.1095,-6.0419,-6.1704,-6.2415,-6.2415,-6.3024,-6.3057,-6.2482,-6.3973,-6.454,-6.3927,-6.4811,-6.464,-6.3144,-6.2974,-6.1945,-5.9716,-5.7119,-5.4151,0.0,-4.8048,0.0,0.0,0.0,0.0,0.0,0.0,0.0,0.0,-5.2599,-5.5205,-5.791,-6.1017,-6.2676,-6.2318,-6.3737,-6.5364,-6.7085,-6.8587,-6.9853,-7.0624,-7.1358,-7.2055,-7.2753,-7.2826,-7.3377,-7.4588,-7.4918,-7.4882,-7.4808,-7.4845,-7.4625,-7.4331,-7.4515,-7.4735,-7.4918,-7.4992,-7.5102,-7.5359,-7.6533,-7.7194,-7.646,-7.6717,-7.7561,-7.8185,-7.7745,-7.7818,-7.9312,-7.968,-7.969,-7.9827,-7.9727,-7.9727,-7.9653,-7.9653,-7.925,-7.8112,-7.7781,-7.7635,-5.9336,-5.9471,-5.9607,-6.0216,-6.1095,-6.14,-6.1975,-6.2719,-6.3599,-6.3734,-6.3328,-6.3599,-6.3294,-6.2651,-6.3226,-6.3024,-6.2212,-6.2821,-6.2685,-6.1941,-6.1975,-6.1975,-6.1941,-6.1975,-6.2042,-6.2178,-6.2178,-6.2245,-6.2415,-6.2415,-6.2415,-6.2415,-6.2415,-6.1772,-6.0655,0.0,0.0,0.0,-6.2245,-6.2415,-6.2415,-6.2516,-6.2516,-6.2415,-6.3621,0.0,-6.4127,-6.5206,-6.5593,-6.501,-6.4469,0.0,0.0,0.0,0.0,0.0,0.0,0.0,0.0,0.0,0.0,0.0,-5.616,-5.5977,-5.3758,-5.5942,-5.8657,-6.1324,-6.2947,-6.4809,-6.723,-6.833,-6.9889,-7.1998,-7.2606,-7.312,-7.3891,-7.4147,-7.4294,-7.4404,-7.4441,-7.4588,-7.4955,-7.4918,-7.4955,-7.5139,-7.5506,-7.6056,-7.657,-7.5689,-7.4992,-7.4955,-7.5616,-7.6166,-7.6754,-7.7708,-7.7928,-7.668,-7.679,-7.7414,-7.7708,-7.7635,-7.7928,-7.9643,-7.9764,-7.9883,-7.9929,-7.9847,-7.9984,-7.9837,-7.9874,-7.969,-7.9396,-7.9323,-7.9323,-6.008,0.0,-6.052,-6.0926,0.0,-6.2482,-6.3159,-6.3565,-6.4647,-6.4918,-6.458,-6.4208,-6.3632,-6.2956,-6.3328,-6.3125,-6.2415,-6.2787,-6.2753,-6.2415,-6.2415,-6.2415,-6.2415,-6.2415,-6.2415,-6.2415,-6.2415,-6.2584,-6.2922,-6.2956,-6.3125,-6.3497,-6.3463,-6.3091,-6.2381,-6.3091,-6.3294,-6.2956,-6.3294,-6.3497,-6.3497,-6.4208,-6.441,-6.4072,0.0,0.0,0.0,0.0,0.0,0.0,0.0,0.0,0.0,0.0,0.0,-5.9831,-5.8515,-5.7905,-5.8174,-5.8209,-5.9089,-6.1223,-6.2999,-6.3346,-6.1752,-6.2781,-6.4588,-6.714,-6.7963,-6.8898,-7.0513,-7.1762,-7.2936,-7.4147,-7.4258,-7.4757,-7.5799,-7.5739,-7.5849,-7.6607,-7.6754,-7.6864,-7.7268,-7.7304,-7.7304,-7.7341,-7.7671,-7.8038,-7.8332,-7.7512,-7.6851,-7.7255,-7.7598,-7.8038,-7.8516,-7.925,-7.9396,-7.8332,-7.8589,-7.925,-7.969,-7.9727,-8.0241,-8.1801,-8.2178,-8.2223,-8.2128,-8.2157,-8.2186,-8.215,-8.2186,-8.215,-8.2076,-8.0938,-7.98,-6.052,-6.0588,-6.1197,-6.1501,-6.1603,-6.2922,-6.3599,-6.3768,0.0,0.0,0.0,-6.4681,-6.4005,-6.3328,-6.3328,-6.299,-6.2415,-6.2415,-6.2415,-6.2415,-6.255,-6.2584,-6.2584,-6.2719,-6.2787,-6.2787,-6.2787,-6.3091,-6.37,-6.37,-6.4005,-6.4546,-6.4613,-6.4613,-6.4613,-6.4749,-6.458,-6.414,-6.4546,-6.4816,-6.4816,-6.6136,-6.6542,-6.5899,-6.7301,-6.8186,-6.837,-6.8816,-6.9021,-6.9,-6.8351,-6.7579,-6.6727,-6.5436,-6.4415,-6.3838,-6.3305,-6.3587,-6.4585,-6.4606,-6.5603,-6.7675,-6.8739,-6.9304,-6.93,-6.9113,-7.0028,-7.2526,-7.2716,-7.2863,-7.3303,-7.4515,-7.5469,-7.5726,-7.5786,-7.6337,-7.7524,-7.7144,-7.7327,-7.8552,-7.8736,-7.9029,-7.9543,-7.9617,-7.98,-7.9764,-7.9543,-7.9874,-7.99,-7.9202,-7.8798,-7.9349,-7.9396,-7.969,-7.9837,-8.0204,-8.0498,-7.9764,-8.0204,-8.1048,-8.1746,-8.1966,-8.2582,-8.3492,-8.4162,-8.4095,-8.4248,-8.4101,-8.4462,-8.4572,-8.4609,-8.4609,-8.4389,-8.2517,-8.0865,-6.2076,-6.2076,-6.2178,-6.2245,-6.2313,-6.3159,-6.3869,-6.4444,-6.4681,-6.441,-6.3802,-6.37,-6.3226,-6.255,-6.255,-6.2482,-6.2415,-6.2415,-6.2415,0.0,-6.3057,-6.3362,-6.3396,-6.4005,-6.4275,-6.4309,-6.4275,-6.4343,-6.4444,-6.4444,-6.4512,-6.4613,-6.4613,-6.4613,-6.4647,-6.5222,-6.5797,-6.6339,-6.5797,-6.5527,-6.5561,-6.6373,-6.6779,-6.6677,-6.7248,-6.7496,-6.7604,-6.8784,-6.9184,-6.8877,-6.9463,-6.9529,-6.8997,-6.8727,-6.849,-6.8251,-6.815,-6.8183,-6.8301,-6.8301,-6.934,-7.1705,-7.2749,-7.2206,-6.992,-7.0336,-7.1572,-7.3333,-7.367,-7.4404,-7.6313,-7.6827,-7.7524,-7.8772,-7.9055,-7.9202,-7.9396,-7.9297,-7.9333,-7.9653,-7.9617,-7.9653,-7.9874,-7.991,-7.9947,-7.9837,-8.0057,-8.0121,-8.0525,-8.0121,-7.969,-7.98,-7.9837,-7.98,-7.9984,-7.9874,-8.0094,-7.98,-7.9984,-8.0498,-8.1342,-8.1489,-8.1856,-8.2495,-8.2891,-8.3074,-8.3532,-8.3527,-8.3991,-8.4535,-8.4719,-8.4756,-8.4792,-8.4168,-8.3801,-6.2415,-6.2415,-6.2415,-6.2415,-6.2415,-6.2753,-6.3091,-6.3429,-6.3835,-6.3835,-6.3497,-6.3091,-6.2719,-6.2448,-6.2821,-6.299,-6.3024,-6.3429,-6.3599,-6.3599,-6.3937,-6.4106,-6.414,-6.4444,-6.4613,-6.4613,-6.4613,-6.4783,-6.5155,-6.5189,-6.5392,-6.5764,-6.5797,-6.5797,-6.5831,-6.6136,-6.688,-6.7996,-6.7286,-6.7117,-6.7557,-6.8673,-6.9248,-6.9282,-7.0168,-7.0977,-7.1538,-7.2099,-7.2602,-7.2938,-7.2832,-7.2705,-7.2485,-7.1947,-7.1571,-7.1481,-7.1481,-7.1481,-7.1481,-7.1481,-7.1987,-7.3132,-7.4583,-7.4892,-7.3562,-7.4011,-7.5116,-7.6741,-7.6607,-7.6974,-7.8479,-7.8662,-7.914,-8.0314,-8.0121,-8.0194,-8.0865,-8.069,-8.0617,-8.1012,-8.1085,-8.1085,-8.1085,-8.1085,-8.1085,-8.1085,-8.1085,-8.1232,-8.159,-8.1406,-8.1085,-8.1122,-8.1122,-8.1085,-8.1048,-8.1085,-8.1085,-8.1085,-8.1085,-8.1415,-8.2113,-8.2296,-8.2627,-8.3294,-8.3508,-8.3588,-8.4034,-8.4431,-8.4829,-8.5123,-8.5673,-8.5857,-8.5894,-8.593,-8.5637,-6.2415,-6.2415,-6.2415,-6.2482,-6.2651,-6.2651,-6.2719,-6.2956,-6.3531,-6.3768,-6.37,-6.3125,-6.2888,-6.2956,-6.3497,-6.3768,-6.3835,-6.4343,-6.4613,-6.4613,-6.4749,-6.485,-6.4884,-6.5019,-6.5087,-6.5121,-6.5087,-6.5392,-6.5899,-6.5967,-6.6339,-6.7015,-6.7252,-6.732,-6.732,-6.732,-6.8098,-6.9451,-6.8977,-6.9045,-6.9857,-7.1142,-7.1785,-7.1887,-7.2868,-7.3867,-7.46,-7.4825,-7.5326,-7.6012,-7.5465,-7.517,-7.5116,-7.4639,-7.4187,-7.4052,-7.4322,-7.4424,-7.4255,-7.4255,-7.4246,-7.4412,-7.6279,-7.7555,-7.7738,-7.8351,-7.9008,-7.9856,-7.958,-7.9727,-8.0498,-8.0828,-8.1122,-8.1709,-8.1269,-8.1379,-8.2223,-8.1901,-8.1681,-8.215,-8.2186,-8.215,-8.2223,-8.237,-8.2517,-8.27,-8.2737,-8.2737,-8.2766,-8.2766,-8.2737,-8.2663,-8.2443,-8.2113,-8.2186,-8.2113,-8.2113,-8.2186,-8.2113,-8.2296,-8.281,-8.303,-8.3398,-8.3911,-8.4168,-8.4389,-8.4756,-8.527,-8.582,-8.6261,-8.6848,-8.7252,-8.7509,-8.7325,-8.6848,-6.2415,-6.2415,-6.2415,-6.2787,-6.3362,-6.3396,-6.3768,-6.4309,-6.4478,-6.4478,-6.4478,-6.4444,-6.4377,-6.441,-6.4444,-6.4512,-6.4512,-6.458,-6.4647,-6.4749,-6.529,-6.5595,-6.5662,-6.6271,-6.6609,-6.6576,-6.6576,-6.6609,-6.6779,-6.6745,-6.7083,-6.7793,-6.8538,-6.8842,-6.8842,-6.8842,-6.962,-7.1075,-7.1041,-7.1345,-7.209,-7.2868,-7.3274,-7.3274,-7.3409,-7.3569,-7.3821,-7.4305,-7.4678,-7.4771,-7.5417,-7.5662,-7.573,-7.6245,-7.6251,-7.5608,-7.6758,-7.7299,-7.6657,-7.6589,-7.6624,-7.7002,-7.8616,-8.0155,-8.1083,-8.2752,-8.2898,-8.1599,-8.1525,-8.2113,-8.2994,-8.3581,-8.3875,-8.3875,-8.3868,-8.3978,-8.3324,-8.3221,-8.2928,-8.2223,-8.2186,-8.2186,-8.2333,-8.281,-8.3471,-8.3801,-8.3765,-8.3904,-8.397,-8.3978,-8.4095,-8.3985,-8.3214,-8.2406,-8.2333,-8.2223,-8.2406,-8.2333,-8.226,-8.248,-8.27,-8.2663,-8.259,-8.3765,-8.3728,-8.4205,-8.5055,-8.5825,-8.6261,-8.7031,-8.7655,-8.8243,-8.883,-8.8573,-8.7766,-6.2415,-6.2415,-6.2854,-6.3497,-6.4106,-6.4174,-6.4309,-6.4613,-6.5053,-6.5256,-6.5324,-6.5696,-6.5425,-6.4647,-6.5053,-6.5222,-6.529,-6.5696,-6.5899,-6.5933,-6.6203,-6.6339,-6.6406,-6.6643,-6.7015,-6.7421,-6.7455,-6.7692,-6.8098,-6.8166,-6.8335,-6.8605,-6.8977,-6.9079,-6.9113,-6.9519,-7.0466,-7.1921,-7.236,-7.3172,-7.4187,-7.4221,-7.4153,-7.4187,-7.4559,-7.4796,-7.4864,-7.554,-7.5946,-7.6014,-7.6657,-7.7063,-7.7063,-7.7367,-7.7401,-7.713,-7.7638,-7.7841,-7.757,-7.757,-7.7561,-7.7725,-7.967,-8.1105,-8.1548,-8.341,-8.4132,-8.3434,-8.3434,-8.3765,-8.4095,-8.4425,-8.4609,-8.4535,-8.4205,-8.3765,-8.3441,-8.2994,-8.2517,-8.2223,-8.2186,-8.2406,-8.281,-8.3214,-8.3324,-8.3287,-8.3214,-8.3471,-8.3831,-8.3875,-8.4101,-8.44,-8.4028,-8.3728,-8.3581,-8.3618,-8.3581,-8.3618,-8.3618,-8.3618,-8.3544,-8.3618,-8.3801,-8.4095,-8.4095,-8.4278,-8.4835,-8.5495,-8.6077,-8.7031,-8.7839,-8.8426,-8.9271,-8.916,-8.8757,-6.2685,-6.2821,-6.3497,-6.4241,-6.4884,-6.4884,-6.5019,-6.5256,-6.5764,-6.6,-6.6068,-6.6576,-6.6237,-6.5392,-6.5764,-6.6,-6.6068,-6.6576,-6.6948,-6.7083,-6.7117,-6.7218,-6.7421,-6.7455,-6.7726,-6.8132,-6.8233,-6.8538,-6.9079,-6.935,-6.9383,-6.9417,-6.962,-6.9722,-6.9789,-7.0432,-7.1413,-7.2631,-7.3409,-7.4424,-7.5439,-7.5405,-7.5134,-7.4999,-7.5642,-7.6014,-7.6048,-7.6758,-7.7198,-7.7198,-7.7705,-7.801,-7.801,-7.8179,-7.8382,-7.8551,-7.8382,-7.8314,-7.8314,-7.828,-7.8375,-7.8524,-8.0156,-8.1436,-8.2246,-8.3734,-8.4963,-8.56,-8.56,-8.5527,-8.4976,-8.5123,-8.527,-8.5196,-8.4572,-8.4022,-8.3801,-8.303,-8.248,-8.226,-8.2186,-8.2517,-8.3214,-8.3398,-8.3287,-8.3104,-8.2994,-8.303,-8.3625,-8.3955,-8.4358,-8.4845,-8.506,-8.5049,-8.4719,-8.4462,-8.4609,-8.4609,-8.4462,-8.4462,-8.4609,-8.4572,-8.4829,-8.4756,-8.4866,-8.5196,-8.571,-8.604,-8.6407,-8.6921,-8.7839,-8.905,-9.0115,-8.9931,-8.9784,-6.3463,-6.3565,-6.4241,-6.4952,-6.5628,-6.5662,-6.6034,-6.6576,-6.6711,-6.6745,-6.6711,-6.6812,-6.6779,-6.6711,-6.6779,-6.6779,-6.6779,-6.688,-6.7286,-6.7827,-6.7861,-6.8233,-6.8977,-6.9011,-6.9011,-6.9045,-6.9045,-6.9113,-6.9248,-6.9823,-7.0161,-7.0161,-7.0737,-7.1142,-7.121,-7.1819,-7.2665,-7.3341,-7.4187,-7.4965,-7.5709,-7.642,-7.6386,-7.5879,-7.642,-7.6826,-7.6927,-7.7536,-7.7942,-7.7942,-7.8044,-7.8044,-7.8077,-7.8686,-7.9363,-7.987,-7.9431,-7.9058,-7.9058,-7.9058,-7.9148,-7.9545,-8.0454,-8.1682,-8.3495,-8.4732,-8.6026,-8.7735,-8.7769,-8.7325,-8.6224,-8.6554,-8.6811,-8.6664,-8.6077,-8.5306,-8.4535,-8.3581,-8.303,-8.2406,-8.226,-8.2553,-8.3287,-8.3434,-8.3654,-8.3985,-8.4315,-8.4352,-8.4352,-8.5013,-8.5495,-8.5788,-8.6119,-8.6371,-8.5013,-8.4976,-8.4903,-8.4939,-8.5123,-8.4792,-8.4646,-8.4682,-8.5123,-8.549,-8.5673,-8.604,-8.6628,-8.7142,-8.7582,-8.8206,-8.9124,-9.0225,-9.0629,-9.0739,-9.0665,-6.4072,-6.4918,-6.5189,-6.573,-6.6373,-6.6406,-6.6576,-6.6812,-6.6812,-6.6812,-6.6914,-6.732,-6.7523,-6.7523,-6.8064,-6.7996,-6.759,-6.803,-6.8436,-6.8673,-6.8673,-6.8842,-6.9045,-6.9079,-6.9383,-6.9755,-6.9789,-7.006,-7.05,-7.0804,-7.0906,-7.0939,-7.1176,-7.1312,-7.1515,-7.2529,-7.324,-7.3646,-7.5134,-7.6217,-7.6487,-7.7198,-7.7435,-7.7198,-7.7435,-7.7604,-7.7604,-7.8314,-7.872,-7.872,-7.916,-7.9397,-7.9431,-7.9667,-7.9904,-8.0141,-7.9972,-7.9803,-7.9803,-7.9803,-7.9867,-8.0122,-8.1371,-8.2465,-8.3613,-8.537,-8.7095,-8.7769,-8.8618,-8.8539,-8.839,-8.839,-8.8133,-8.7105,-8.6261,-8.5306,-8.4028,-8.3111,-8.248,-8.2333,-8.2627,-8.2957,-8.2884,-8.3104,-8.3324,-8.3141,-8.3508,-8.3838,-8.4051,-8.4933,-8.5783,-8.593,-8.6444,-8.6811,-8.6371,-8.6187,-8.6187,-8.6151,-8.6187,-8.6187,-8.6114,-8.604,-8.6407,-8.6591,-8.6701,-8.6811,-8.7325,-8.7362,-8.7949,-8.861,-8.9601,-9.0262,-9.0849,-9.0886,-9.1106,-6.4918,-6.5967,-6.6068,-6.6339,-6.6779,-6.6812,-6.6948,-6.7151,-6.7184,-6.732,-6.7624,-6.8098,-6.8267,-6.8402,-6.9113,-6.918,-6.8673,-6.8977,-6.9214,-6.9451,-6.9451,-6.9586,-6.9789,-6.9789,-7.006,-7.0466,-7.0534,-7.0939,-7.1582,-7.165,-7.1785,-7.2022,-7.2022,-7.2157,-7.2563,-7.3612,-7.4289,-7.4897,-7.6352,-7.7266,-7.7333,-7.7976,-7.8348,-7.8382,-7.8585,-7.8551,-7.8382,-7.9058,-7.9464,-7.9532,-7.9938,-8.0209,-8.0209,-8.0209,-8.0209,-8.0209,-8.0209,-8.031,-8.0513,-8.0547,-8.0648,-8.0919,-8.203,-8.2859,-8.3434,-8.5603,-8.7095,-8.8028,-8.9091,-8.9821,-8.9784,-8.9784,-8.916,-8.7619,-8.6444,-8.5416,-8.4285,-8.3508,-8.3104,-8.3141,-8.3471,-8.3471,-8.3141,-8.3508,-8.3544,-8.303,-8.3471,-8.3728,-8.3978,-8.4896,-8.5783,-8.5894,-8.6811,-8.7325,-8.7399,-8.7472,-8.7068,-8.6995,-8.6921,-8.7105,-8.7362,-8.7399,-8.7472,-8.7655,-8.7766,-8.7766,-8.7766,-8.7766,-8.8133,-8.8757,-8.9234,-8.9895,-9.0445,-9.0996,-9.1216,-6.6102,-6.6711,-6.6812,-6.6812,-6.6914,-6.6914,-6.7252,-6.7861,-6.7895,-6.8267,-6.8774,-6.9079,-6.9113,-6.9248,-6.9857,-7.0161,-7.0026,-6.9586,-6.9654,-7.0161,-7.0195,-7.0534,-7.1109,-7.1075,-7.1075,-7.121,-7.1278,-7.1684,-7.2293,-7.2462,-7.2834,-7.3341,-7.3477,-7.3781,-7.4525,-7.5202,-7.6014,-7.6657,-7.7502,-7.7976,-7.8077,-7.872,-7.9092,-7.9194,-7.9701,-7.9735,-7.916,-7.9769,-8.0107,-8.0107,-8.0175,-8.0209,-8.0209,-8.0141,-8.0175,-8.0276,-8.0242,-8.0547,-8.119,-8.1291,-8.1596,-8.2035,-8.2443,-8.2921,-8.3908,-8.5294,-8.6766,-8.8347,-8.9666,-9.0483,-9.0447,-9.0408,-8.9711,-8.8353,-8.6738,-8.5857,-8.5447,-8.5043,-8.4572,-8.4425,-8.4462,-8.4572,-8.4535,-8.4425,-8.4352,-8.4315,-8.4499,-8.4535,-8.4572,-8.5343,-8.5752,-8.6082,-8.6925,-8.7839,-8.8316,-8.8683,-8.8096,-8.7619,-8.7509,-8.7545,-8.8023,-8.8206,-8.839,-8.8573,-8.8683,-8.8683,-8.8647,-8.8683,-8.905,-8.9491,-8.9674,-8.9784,-9.0372,-9.0959,-9.1216,-6.6609,-6.6812,-6.6812,-6.7117,-6.7523,-6.7557,-6.803,-6.8707,-6.8741,-6.8876,-6.918,-6.962,-6.9857,-7.0026,-7.0635,-7.0973,-7.0939,-7.0737,-7.0737,-7.0906,-7.0939,-7.1041,-7.1278,-7.1312,-7.1312,-7.1413,-7.1819,-7.2157,-7.2563,-7.3409,-7.4086,-7.4289,-7.4762,-7.51,-7.5439,-7.6115,-7.669,-7.6995,-7.8145,-7.8754,-7.8822,-7.9464,-7.9837,-7.987,-8.0073,-8.0073,-7.9904,-8.0073,-8.0209,-8.0209,-8.0209,-8.0209,-8.0141,-7.9735,-7.9938,-8.075,-8.0445,-8.0784,-8.1866,-8.2069,-8.2171,-8.2475,-8.2881,-8.3293,-8.3739,-8.5312,-8.6825,-8.8275,-8.9446,-9.0284,-9.0484,-9.0078,-8.9124,-8.7545,-8.6921,-8.6151,-8.5306,-8.4872,-8.462,-8.4609,-8.4609,-8.4609,-8.4609,-8.4646,-8.4756,-8.4792,-8.5086,-8.5306,-8.4976,-8.582,-8.6297,-8.6045,-8.7288,-8.839,-8.8793,-8.9271,-8.9234,-8.8757,-8.85,-8.839,-8.8793,-8.905,-8.9271,-8.9528,-8.9601,-8.9601,-8.9564,-8.9674,-9.0005,-9.0005,-9.0005,-9.0262,-9.0629,-9.0959,-9.1253,-6.6812,-6.6846,-6.7117,-6.7455,-6.7929,-6.8199,-6.8774,-6.9451,-6.9519,-6.9654,-6.9992,-7.0398,-7.0601,-7.0703,-7.1109,-7.1312,-7.1312,-7.1312,-7.1312,-7.1312,-7.1312,-7.1312,-7.1379,-7.1616,-7.1887,-7.2157,-7.2597,-7.2969,-7.3274,-7.439,-7.5168,-7.554,-7.6183,-7.6724,-7.6961,-7.7468,-7.7807,-7.8213,-7.9025,-7.9498,-7.96,-7.9972,-8.0209,-8.0209,-8.0209,-8.0209,-8.0209,-8.0445,-8.0615,-8.0648,-8.0851,-8.1021,-8.0987,-8.0648,-8.075,-8.1359,-8.1393,-8.1596,-8.2644,-8.2813,-8.2983,-8.3253,-8.3659,-8.3896,-8.4245,-8.578,-8.7492,-8.8259,-8.9436,-9.0219,-9.0044,-8.9454,-8.839,-8.7178,-8.6995,-8.6554,-8.5673,-8.5463,-8.55,-8.56,-8.5563,-8.549,-8.549,-8.549,-8.549,-8.56,-8.5894,-8.6151,-8.582,-8.6371,-8.6481,-8.6885,-8.7986,-8.8793,-8.9197,-8.9711,-9.0298,-9.0005,-8.9674,-8.9564,-8.9711,-8.9821,-9.0005,-9.0482,-9.0665,-9.0702,-9.0702,-9.0592,-9.0739,-9.0592,-9.0445,-9.0482,-9.0739,-9.1069,-9.1363,-6.6846,-6.6948,-6.759,-6.7963,-6.8233,-6.8876,-6.9586,-7.0195,-7.0263,-7.0601,-7.1109,-7.1176,-7.1244,-7.1278,-7.1278,-7.1379,-7.1379,-7.1447,-7.1582,-7.1616,-7.1616,-7.165,-7.1751,-7.2225,-7.2868,-7.3544,-7.368,-7.4052,-7.4762,-7.5676,-7.6251,-7.7029,-7.7739,-7.8416,-7.8855,-7.9126,-7.9363,-7.9803,-8.0073,-8.0107,-8.0141,-8.0276,-8.0242,-8.0242,-8.0378,-8.0445,-8.0445,-8.1088,-8.146,-8.146,-8.1934,-8.2137,-8.2238,-8.2306,-8.2103,-8.2272,-8.2374,-8.2746,-8.3321,-8.3558,-8.3795,-8.4336,-8.4437,-8.4606,-8.4822,-8.6182,-8.7363,-8.7776,-8.9122,-8.9861,-8.913,-8.8686,-8.7912,-8.7215,-8.7031,-8.6885,-8.6995,-8.6885,-8.6738,-8.6811,-8.6958,-8.6958,-8.6775,-8.6775,-8.6811,-8.6848,-8.6848,-8.6775,-8.6775,-8.6958,-8.7362,-8.7876,-8.8426,-8.905,-8.9454,-9.0482,-9.0996,-9.0886,-9.0592,-9.0555,-9.0519,-9.0592,-9.0702,-9.1216,-9.1473,-9.1583,-9.1583,-9.1363,-9.1326,-9.1326,-9.1106,-9.0776,-9.0922,-9.14,-9.173,-6.7117,-6.7624,-6.7827,-6.8538,-6.9519,-6.9857,-7.0331,-7.0973,-7.1007,-7.1075,-7.1278,-7.1312,-7.1312,-7.1312,-7.1345,-7.1582,-7.2022,-7.2124,-7.2462,-7.2868,-7.2902,-7.2902,-7.2935,-7.3138,-7.3916,-7.4965,-7.5168,-7.554,-7.6352,-7.7435,-7.8179,-7.8551,-7.9092,-7.9634,-7.9904,-7.987,-8.0006,-8.0175,-8.0209,-8.0209,-8.031,-8.0716,-8.0716,-8.031,-8.1224,-8.146,-8.119,-8.2238,-8.2644,-8.2171,-8.2272,-8.2137,-8.1799,-8.1765,-8.2002,-8.2475,-8.2543,-8.3016,-8.4031,-8.4302,-8.4437,-8.4573,-8.4606,-8.4606,-8.4606,-8.5136,-8.5712,-8.6203,-8.7214,-8.7879,-8.7543,-8.7815,-8.7732,-8.7178,-8.7031,-8.7031,-8.7031,-8.7031,-8.7031,-8.7031,-8.7031,-8.7031,-8.7031,-8.7031,-8.7031,-8.7031,-8.7031,-8.7031,-8.7031,-8.7031,-8.7252,-8.7692,-8.8243,-8.905,-8.9895,-9.0996,-9.1583,-9.1583,-9.1473,-9.1363,-9.1363,-9.1363,-9.1473,-9.1693,-9.1657,-9.173,-9.173,-9.1657,-9.1767,-9.1803,-9.162,-9.1289,-9.1657,-9.206,-9.2391,-6.7523,-6.7963,-6.8571,-6.9383,-7.0195,-7.05,-7.0906,-7.1244,-7.1312,-7.1312,-7.1312,-7.1312,-7.1481,-7.1751,-7.1785,-7.2191,-7.28,-7.2868,-7.3274,-7.3984,-7.4627,-7.4728,-7.4593,-7.4728,-7.554,-7.6521,-7.6657,-7.6724,-7.7096,-7.8382,-7.8889,-7.8822,-7.9701,-8.0175,-8.0141,-8.0209,-8.0209,-8.0209,-8.0209,-8.031,-8.0682,-8.075,-8.1054,-8.1021,-8.1799,-8.1866,-8.2238,-8.305,-8.3287,-8.2949,-8.2847,-8.2813,-8.2712,-8.2374,-8.2577,-8.3253,-8.3355,-8.3761,-8.437,-8.4606,-8.4606,-8.4606,-8.4606,-8.4606,-8.4645,-8.4723,-8.5064,-8.5409,-8.6293,-8.6561,-8.6686,-8.7231,-8.7439,-8.7105,-8.7031,-8.7031,-8.7031,-8.7031,-8.7031,-8.7031,-8.7031,-8.7031,-8.7031,-8.7031,-8.7031,-8.7031,-8.7031,-8.7031,-8.7031,-8.7031,-8.7325,-8.7912,-8.8536,-8.9417,-9.0262,-9.1326,-9.173,-9.1767,-9.1767,-9.1803,-9.1803,-9.1803,-9.1767,-9.1767,-9.1803,-9.1803,-9.1803,-9.1803,-9.1803,-9.1803,-9.1803,-9.184,-9.2024,-9.2134,-9.2537,-6.7996,-6.8233,-6.962,-7.0229,-7.0432,-7.1007,-7.1244,-7.1312,-7.1312,-7.1312,-7.1345,-7.1413,-7.1819,-7.2394,-7.2428,-7.2902,-7.3612,-7.3781,-7.439,-7.5202,-7.6048,-7.6352,-7.6048,-7.6487,-7.7164,-7.7874,-7.8077,-7.7773,-7.7807,-7.8686,-7.8889,-7.8923,-7.9735,-8.0141,-8.0209,-8.0209,-8.0242,-8.0378,-8.0445,-8.0784,-8.1257,-8.119,-8.146,-8.1968,-8.1968,-8.2509,-8.3219,-8.3693,-8.3659,-8.3625,-8.3625,-8.3761,-8.4167,-8.3625,-8.3795,-8.42,-8.4302,-8.4471,-8.4606,-8.4606,-8.4606,-8.4606,-8.4606,-8.4539,-8.4476,-8.466,-8.4717,-8.4368,-8.5706,-8.6217,-8.6673,-8.6902,-8.7072,-8.7031,-8.7031,-8.7031,-8.7031,-8.7031,-8.7031,-8.7031,-8.7031,-8.7031,-8.7031,-8.7031,-8.7031,-8.7031,-8.7031,-8.7031,-8.7031,-8.7031,-8.7655,-8.8539,-8.9234,-8.9895,-9.0776,-9.162,-9.173,-9.1803,-9.1803,-9.1803,-9.1803,-9.1803,-9.1803,-9.1803,-9.1803,-9.1803,-9.1803,-9.1803,-9.1803,-9.1803,-9.1803,-9.1803,-9.184,-9.1913,-9.217,-6.8605,-6.9722,-7.006,-7.0534,-7.1041,-7.1244,-7.1312,-7.1312,-7.1312,-7.1312,-7.1447,-7.1887,-7.2259,-7.2462,-7.3071,-7.3646,-7.439,-7.4931,-7.5946,-7.713,-7.686,-7.7232,-7.7333,-7.7638,-7.8111,-7.8653,-7.8855,-7.8754,-7.8855,-7.9295,-7.987,-7.9769,-7.9837,-8.0209,-8.0209,-8.0276,-8.0513,-8.0953,-8.1054,-8.1426,-8.2137,-8.2408,-8.2475,-8.2543,-8.2746,-8.3422,-8.4133,-8.437,-8.437,-8.437,-8.4302,-8.3998,-8.349,-8.3896,-8.4099,-8.4031,-8.437,-8.4606,-8.4606,-8.4606,-8.4606,-8.4606,-8.4539,-8.437,-8.3761,-8.3838,-8.333,-8.2915,-8.3865,-8.5554,-8.6648,-8.6896,-8.7031,-8.7031,-8.7031,-8.7031,-8.7031,-8.7031,-8.7031,-8.7031,-8.7031,-8.7031,-8.7031,-8.7031,-8.7031,-8.7031,-8.7031,-8.7031,-8.7031,-8.7068,-8.7912,-8.8833,-8.9564,-9.0152,-9.0922,-9.162,-9.1767,-9.1803,-9.1803,-9.1803,-9.1803,-9.1803,-9.1803,-9.1803,-9.1803,-9.1803,-9.1803,-9.1803,-9.1803,-9.1803,-9.1803,-9.1803,-9.1803,-9.1803,-9.1803,-6.9147,-7.0195,-7.0567,-7.0939,-7.1278,-7.1312,-7.1312,-7.1312,-7.1312,-7.1515,-7.1853,-7.2259,-7.2766,-7.3477,-7.4187,-7.4796,-7.5202,-7.5912,-7.6657,-7.7333,-7.7333,-7.7638,-7.7874,-7.8044,-7.8382,-7.8991,-7.9092,-7.9126,-7.9295,-7.9769,-7.9972,-7.9769,-8.004,-8.0175,-8.031,-8.0547,-8.0885,-8.1291,-8.1663,-8.2171,-8.2881,-8.2881,-8.3118,-8.2949,-8.3321,-8.3862,-8.4505,-8.4606,-8.4403,-8.4302,-8.4403,-8.4336,-8.3592,-8.3862,-8.3998,-8.4167,-8.4336,-8.4606,-8.4606,-8.4606,-8.4606,-8.4573,-8.4302,-8.393,-8.3355,-8.2949,-8.2171,-8.1967,-8.3044,-8.4962,-8.6715,-8.7031,-8.7031,-8.7031,-8.7031,-8.7031,-8.7031,-8.7031,-8.7031,-8.7031,-8.7031,-8.7031,-8.7031,-8.7031,-8.7031,-8.7031,-8.7031,-8.7031,-8.7215,-8.7362,-8.8096,-8.894,-8.9638,-9.0335,-9.1033,-9.1546,-9.1767,-9.1803,-9.1803,-9.1803,-9.1803,-9.1803,-9.1803,-9.1803,-9.1803,-9.1803,-9.1803,-9.1803,-9.1803,-9.1803,-9.1803,-9.1803,-9.1803,-9.1803,-9.1803,-6.962,-7.0263,-7.1007,-7.1312,-7.1312,-7.1312,-7.1312,-7.1312,-7.1447,-7.1853,-7.2394,-7.2597,-7.3544,-7.4492,-7.527,-7.5676,-7.6014,-7.6251,-7.6724,-7.7299,-7.7232,-7.7435,-7.7604,-7.7604,-7.7942,-7.8822,-7.9058,-7.9092,-7.9295,-7.9769,-7.9938,-7.9532,-8.0073,-8.0445,-8.0581,-8.1088,-8.1596,-8.19,-8.234,-8.2915,-8.349,-8.3219,-8.3287,-8.3592,-8.3727,-8.4031,-8.4505,-8.4573,-8.437,-8.3761,-8.4268,-8.4573,-8.4471,-8.4167,-8.3896,-8.4573,-8.4606,-8.4606,-8.4606,-8.4606,-8.4573,-8.4471,-8.393,-8.3389,-8.2915,-8.2137,-8.146,-8.1688,-8.2662,-8.464,-8.6679,-8.7031,-8.7031,-8.7031,-8.7031,-8.7031,-8.7031,-8.7031,-8.7031,-8.7031,-8.7031,-8.7031,-8.7031,-8.7031,-8.7031,-8.7031,-8.7031,-8.7068,-8.7252,-8.7582,-8.8206,-8.8867,-8.9564,-9.0482,-9.1253,-9.1546,-9.1767,-9.1803,-9.1803,-9.1803,-9.1803,-9.1803,-9.1803,-9.1803,-9.1803,-9.1803,-9.1803,-9.1803,-9.1803,-9.1803,-9.1803,-9.1803,-9.1803,-9.1803,-9.1803,-7.006,-7.0263,-7.1007,-7.1312,-7.1312,-7.1312,-7.1312,-7.1447,-7.1954,-7.2293,-7.2597,-7.368,-7.4255,-7.483,-7.5371,-7.6048,-7.642,-7.6352,-7.6555,-7.713,-7.6826,-7.6487,-7.6927,-7.6623,-7.6995,-7.8044,-7.8754,-7.9126,-7.9329,-7.9769,-8.0175,-8.0209,-8.075,-8.1088,-8.1291,-8.1832,-8.2441,-8.2678,-8.305,-8.3558,-8.3862,-8.393,-8.393,-8.4167,-8.4167,-8.437,-8.4539,-8.4606,-8.4573,-8.4471,-8.4539,-8.4606,-8.4573,-8.4437,-8.4403,-8.4573,-8.4606,-8.4606,-8.4606,-8.4606,-8.4268,-8.3828,-8.349,-8.2813,-8.1999,-8.146,-8.1156,-8.144,-8.26,-8.4532,-8.6749,-8.7031,-8.7031,-8.7031,-8.7031,-8.7031,-8.7031,-8.7031,-8.7031,-8.7031,-8.7031,-8.7031,-8.7031,-8.7031,-8.7031,-8.7031,-8.7031,-8.7031,-8.7105,-8.7509,-8.8023,-8.872,-8.9417,-9.0445,-9.1473,-9.162,-9.1803,-9.1803,-9.1803,-9.1803,-9.1803,-9.1803,-9.1803,-9.1803,-9.1803,-9.1803,-9.1803,-9.1803,-9.1803,-9.1803,-9.1803,-9.1803,-9.1803,-9.1803,-9.1803,-6.9857,-7.0263,-7.1007,-7.1312,-7.1312,-7.1312,-7.1548,-7.1887,-7.2259,-7.2868,-7.3578,-7.4289,-7.483,-7.5303,-7.598,-7.6555,-7.6589,-7.6082,-7.6183,-7.6521,-7.6082,-7.5845,-7.6284,-7.5845,-7.669,-7.7807,-7.872,-7.9363,-7.9735,-8.0445,-8.0716,-8.0919,-8.1494,-8.1866,-8.2035,-8.2577,-8.2881,-8.3152,-8.3321,-8.3456,-8.3524,-8.3524,-8.3659,-8.3998,-8.4099,-8.4234,-8.4573,-8.4606,-8.4606,-8.4539,-8.4234,-8.4302,-8.4403,-8.4336,-8.4234,-8.4539,-8.4606,-8.4606,-8.4606,-8.4606,-8.4302,-8.3592,-8.3186,-8.2475,-8.1493,-8.0987,-8.1015,-8.2048,-8.2606,-8.4532,-8.6749,-8.6925,-8.7031,-8.7031,-8.7031,-8.7031,-8.7031,-8.7031,-8.7031,-8.7031,-8.7031,-8.7031,-8.7031,-8.7031,-8.7031,-8.7031,-8.7031,-8.7068,-8.7068,-8.7619,-8.8206,-8.9087,-8.9895,-9.0776,-9.162,-9.1693,-9.1803,-9.1803,-9.1803,-9.1803,-9.1803,-9.1803,-9.1803,-9.1803,-9.1803,-9.1803,-9.1803,-9.1803,-9.1803,-9.1803,-9.1803,-9.1803,-9.1803,-9.1803,-9.1803,-6.9553,-7.006,-7.0939,-7.1312,-7.1345,-7.1481,-7.1853,-7.236,-7.2563,-7.3375,-7.4492,-7.4627,-7.4999,-7.5676,-7.6251,-7.6623,-7.6623,-7.5912,-7.5811,-7.5811,-7.5743,-7.5709,-7.5709,-7.5879,-7.6589,-7.8247,-7.8788,-7.96,-8.0445,-8.1156,-8.146,-8.1731,-8.2272,-8.2611,-8.278,-8.3118,-8.305,-8.3152,-8.2983,-8.2949,-8.2746,-8.2644,-8.2983,-8.3558,-8.3592,-8.3896,-8.4539,-8.4606,-8.4606,-8.4471,-8.42,-8.4031,-8.4403,-8.4065,-8.4031,-8.4471,-8.4606,-8.4573,-8.437,-8.4336,-8.3862,-8.2881,-8.2475,-8.1797,-8.1155,-8.0783,-8.1097,-8.3016,-8.367,-8.4532,-8.65,-8.7031,-8.7031,-8.7031,-8.7031,-8.7031,-8.7031,-8.7031,-8.7031,-8.7031,-8.7031,-8.7031,-8.7031,-8.7031,-8.7031,-8.7031,-8.7031,-8.7362,-8.7472,-8.8096,-8.8793,-8.9711,-9.0555,-9.1289,-9.173,-9.173,-9.1803,-9.1803,-9.1803,-9.1803,-9.1803,-9.1803,-9.1803,-9.1803,-9.1803,-9.1803,-9.1803,-9.1803,-9.1803,-9.1803,-9.1803,-9.1803,-9.1803,-9.1803,-9.1803,-6.9722,-6.935,-7.0737,-7.1312,-7.1413,-7.1954,-7.2293,-7.2462,-7.3071,-7.3815,-7.4627,-7.4661,-7.5067,-7.5608,-7.5777,-7.5879,-7.5845,-7.5811,-7.5676,-7.5676,-7.5676,-7.5676,-7.5709,-7.5676,-7.7063,-7.8686,-7.916,-7.9904,-8.1088,-8.2002,-8.2272,-8.2441,-8.2949,-8.3355,-8.3389,-8.3558,-8.3795,-8.3998,-8.3084,-8.2712,-8.3084,-8.3118,-8.3625,-8.393,-8.3964,-8.3896,-8.4539,-8.4606,-8.4606,-8.4505,-8.4505,-8.4505,-8.4606,-8.4573,-8.4505,-8.4606,-8.4539,-8.4336,-8.3828,-8.3659,-8.3084,-8.2137,-8.1629,-8.102,-8.0648,-8.0479,-8.1125,-8.3329,-8.3585,-8.4613,-8.6428,-8.6925,-8.7031,-8.7031,-8.7031,-8.7031,-8.7031,-8.7031,-8.7031,-8.7031,-8.7031,-8.7031,-8.7031,-8.7031,-8.7031,-8.7031,-8.7105,-8.7435,-8.7986,-8.8647,-8.9454,-9.0408,-9.0922,-9.1583,-9.1803,-9.1803,-9.1803,-9.1803,-9.1803,-9.1803,-9.1803,-9.1803,-9.1803,-9.1803,-9.1803,-9.1803,-9.1803,-9.1803,-9.1803,-9.1803,-9.1803,-9.1803,-9.1803,-9.1803,-9.1803,-6.9383,-6.9214,-7.0703,-7.1312,-7.1413,-7.209,-7.2394,-7.2631,-7.3612,-7.4289,-7.4661,-7.5067,-7.5439,-7.5642,-7.5676,-7.5709,-7.5676,-7.5709,-7.5709,-7.5676,-7.5676,-7.5709,-7.5946,-7.6589,-7.7908,-7.9058,-8.0378,-8.1629,-8.2408,-8.2746,-8.3016,-8.3118,-8.3727,-8.4133,-8.3964,-8.4099,-8.3761,-8.3118,-8.2035,-8.1359,-8.1731,-8.2408,-8.305,-8.3422,-8.3828,-8.4268,-8.4505,-8.4606,-8.437,-8.4133,-8.3998,-8.3998,-8.3964,-8.3998,-8.4099,-8.4573,-8.42,-8.3828,-8.3524,-8.3118,-8.2306,-8.1629,-8.1257,-8.1021,-8.0412,-8.0276,-8.1125,-8.3329,-8.3585,-8.4693,-8.6428,-8.6925,-8.7031,-8.7031,-8.7031,-8.7031,-8.7031,-8.7031,-8.7031,-8.7031,-8.7031,-8.7031,-8.7031,-8.7031,-8.7031,-8.7031,-8.7215,-8.7582,-8.8353,-8.9307,-9.0188,-9.1143,-9.1473,-9.173,-9.1803,-9.1803,-9.1803,-9.1803,-9.1803,-9.1803,-9.1803,-9.1803,-9.1803,-9.1803,-9.1803,-9.1803,-9.1803,-9.1803,-9.1803,-9.1803,-9.1803,-9.1803,-9.1803,-9.1803,-9.1803,-6.9214,-6.9485,-7.077,-7.1413,-7.1616,-7.2157,-7.2631,-7.3105,-7.3849,-7.4525,-7.4965,-7.5439,-7.5676,-7.5777,-7.5879,-7.598,-7.5709,-7.5879,-7.5845,-7.5777,-7.5709,-7.5845,-7.6352,-7.7333,-7.8517,-7.9634,-8.0987,-8.2306,-8.3016,-8.3321,-8.3253,-8.3761,-8.4234,-8.437,-8.4268,-8.3862,-8.3253,-8.1866,-8.1629,-8.119,-8.1021,-8.1866,-8.2441,-8.3016,-8.3659,-8.4437,-8.4573,-8.437,-8.3964,-8.4031,-8.3659,-8.3693,-8.3862,-8.3795,-8.3795,-8.393,-8.3456,-8.2847,-8.2644,-8.2306,-8.1765,-8.1291,-8.0987,-8.0716,-8.0344,-8.0276,-8.1125,-8.3329,-8.3585,-8.4809,-8.6356,-8.7031,-8.7031,-8.7031,-8.7031,-8.7031,-8.7031,-8.7031,-8.7031,-8.7031,-8.7031,-8.7031,-8.7031,-8.7031,-8.7031,-8.7031,-8.7325,-8.7802,-8.8867,-9.0115,-9.0812,-9.173,-9.1767,-9.1877,-9.1877,-9.184,-9.184,-9.1877,-9.1877,-9.184,-9.1877,-9.184,-9.1803,-9.1803,-9.1803,-9.1803,-9.1803,-9.1803,-9.1803,-9.1803,-9.1803,-9.1803,-9.1803,-9.1803,-9.1803,-6.9485,-7.0161,-7.0973,-7.1684,-7.2259,-7.236,-7.3206,-7.4018,-7.3815,-7.4492,-7.5439,-7.5676,-7.5676,-7.5811,-7.6183,-7.6217,-7.5743,-7.6487,-7.6217,-7.5845,-7.5743,-7.6082,-7.6758,-7.7773,-7.9025,-8.0648,-8.1697,-8.2509,-8.3118,-8.3186,-8.3625,-8.437,-8.4268,-8.4031,-8.3727,-8.3253,-8.2272,-8.1426,-8.1731,-8.1968,-8.1629,-8.2002,-8.2746,-8.3253,-8.3558,-8.3896,-8.4539,-8.4133,-8.3896,-8.4234,-8.3896,-8.3592,-8.3828,-8.3693,-8.3625,-8.3287,-8.2441,-8.19,-8.1731,-8.1528,-8.1054,-8.0547,-8.0344,-8.0378,-8.0209,-8.0209,-8.1318,-8.3016,-8.3191,-8.4452,-8.5991,-8.6962,-8.6749,-8.7031,-8.7031,-8.7031,-8.7031,-8.7031,-8.7031,-8.7031,-8.7105,-8.7288,-8.7655,-8.7802,-8.7802,-8.7839,-8.905,-8.9601,-9.0262,-9.1398,-9.162,-9.2097,-9.2024,-9.2024,-9.1987,-9.2097,-9.2501,-9.2427,-9.2317,-9.2134,-9.1987,-9.1913,-9.1803,-9.1803,-9.1803,-9.1803,-9.1803,-9.1803,-9.1803,-9.1803,-9.1803,-9.1803,-9.1803,-9.1803,-9.1803,-6.9789,-7.0906,-7.121,-7.1481,-7.1785,-7.2699,-7.3138,-7.3443,-7.4356,-7.51,-7.5676,-7.5676,-7.5676,-7.5811,-7.5912,-7.6014,-7.5743,-7.598,-7.5912,-7.5811,-7.5777,-7.6183,-7.6995,-7.8145,-7.9397,-8.0716,-8.1799,-8.278,-8.3389,-8.3287,-8.3964,-8.4336,-8.3727,-8.393,-8.3558,-8.2881,-8.1799,-8.1325,-8.1596,-8.1731,-8.1799,-8.2475,-8.3219,-8.3456,-8.4065,-8.4268,-8.4539,-8.437,-8.4167,-8.4031,-8.4065,-8.3862,-8.3524,-8.3389,-8.3186,-8.2813,-8.1731,-8.1325,-8.1122,-8.0885,-8.0479,-8.0344,-8.0209,-8.0209,-8.0209,-8.0209,-8.0966,-8.2003,-8.2661,-8.3755,-8.5468,-8.5991,-8.6064,-8.6679,-8.6889,-8.6783,-8.7068,-8.7105,-8.7325,-8.7435,-8.7655,-8.7839,-8.8316,-8.8757,-8.8757,-8.883,-9.0188,-9.1363,-9.1986,-9.2501,-9.2721,-9.2905,-9.2905,-9.2978,-9.2978,-9.3125,-9.3272,-9.3051,-9.2794,-9.2611,-9.2391,-9.1913,-9.1803,-9.1803,-9.1803,-9.1803,-9.1803,-9.1803,-9.1803,-9.1803,-9.1803,-9.1803,-9.1803,-9.1803,-9.1803,-7.0161,-7.1278,-7.1312,-7.1447,-7.1751,-7.2732,-7.3138,-7.3341,-7.4661,-7.554,-7.5676,-7.5676,-7.5676,-7.5743,-7.6014,-7.5879,-7.5879,-7.598,-7.5879,-7.5777,-7.5777,-7.6318,-7.7367,-7.8483,-7.96,-8.0682,-8.1731,-8.2746,-8.2712,-8.3355,-8.3355,-8.305,-8.2746,-8.2949,-8.3253,-8.278,-8.1731,-8.1156,-8.146,-8.1393,-8.1562,-8.2678,-8.3456,-8.3592,-8.4167,-8.4539,-8.4505,-8.4302,-8.4099,-8.3964,-8.3795,-8.349,-8.3084,-8.2712,-8.2543,-8.2035,-8.146,-8.1021,-8.0818,-8.0581,-8.0209,-8.0209,-8.0209,-8.0209,-8.0209,-8.0209,-8.0804,-8.1816,-8.206,-8.2804,-8.4852,-8.5123,-8.5731,-8.6392,-8.5627,-8.5517,-8.6788,-8.7256,-8.7586,-8.7912,-8.8206,-8.872,-8.9821,-9.0445,-9.0959,-9.0922,-9.1363,-9.2427,-9.3051,-9.3492,-9.3786,-9.3932,-9.3969,-9.4079,-9.4226,-9.4042,-9.3859,-9.3749,-9.3529,-9.3235,-9.2941,-9.2391,-9.1913,-9.1803,-9.1803,-9.1803,-9.1803,-9.1767,-9.1767,-9.1803,-9.1803,-9.1803,-9.1803,-9.1803,-9.1803,-7.0601,-7.1278,-7.1312,-7.1684,-7.2293,-7.2428,-7.3206,-7.4153,-7.4661,-7.5134,-7.5642,-7.5676,-7.5676,-7.5845,-7.6251,-7.6149,-7.5912,-7.6318,-7.6318,-7.5811,-7.5912,-7.6657,-7.7705,-7.8788,-7.9701,-8.0919,-8.1596,-8.1731,-8.1528,-8.2205,-8.2035,-8.1832,-8.1832,-8.1765,-8.234,-8.1731,-8.0953,-8.0547,-8.1697,-8.1799,-8.2002,-8.2983,-8.3558,-8.3862,-8.4268,-8.4606,-8.4539,-8.42,-8.4133,-8.4302,-8.3389,-8.3118,-8.3152,-8.2069,-8.1596,-8.1291,-8.0682,-8.0344,-8.0242,-8.0209,-8.0209,-8.0209,-8.0209,-8.0209,-8.0209,-8.0276,-8.0542,-8.1379,-8.1629,-8.2715,-8.3839,-8.4452,-8.5123,-8.5619,-8.4876,-8.4958,-8.6247,-8.7335,-8.7665,-8.8395,-8.9089,-8.9821,-9.1179,-9.2281,-9.3125,-9.3308,-9.3125,-9.3492,-9.4226,-9.4593,-9.4923,-9.4997,-9.5034,-9.5034,-9.5034,-9.4666,-9.4446,-9.4373,-9.4263,-9.4079,-9.3529,-9.2868,-9.2391,-9.195,-9.1583,-9.14,-9.1583,-9.1767,-9.1767,-9.1803,-9.1803,-9.1803,-9.1803,-9.1694,-9.1546,-7.0635,-7.1312,-7.1312,-7.1718,-7.2428,-7.2935,-7.3443,-7.3984,-7.483,-7.5473,-7.5642,-7.5676,-7.5676,-7.5811,-7.5912,-7.598,-7.5845,-7.5811,-7.5811,-7.5845,-7.6183,-7.7029,-7.7976,-7.8822,-7.9667,-8.0445,-8.0919,-8.1224,-8.1359,-8.19,-8.2238,-8.2137,-8.1393,-8.1156,-8.1156,-8.0987,-8.1088,-8.1122,-8.19,-8.2475,-8.2813,-8.3659,-8.42,-8.42,-8.4505,-8.4606,-8.4606,-8.4234,-8.437,-8.4471,-8.3456,-8.3016,-8.278,-8.1697,-8.1054,-8.075,-8.0209,-8.0209,-8.0209,-8.0209,-8.0209,-8.0209,-8.0209,-8.0209,-8.0209,-8.0209,-8.0442,-8.0706,-8.0868,-8.1816,-8.2391,-8.2661,-8.3399,-8.4738,-8.472,-8.5165,-8.6024,-8.7049,-8.7778,-8.8946,-8.9788,-9.173,-9.3345,-9.3822,-9.4556,-9.507,-9.4887,-9.5034,-9.5658,-9.5878,-9.6098,-9.6098,-9.6098,-9.6025,-9.5841,-9.5511,-9.5437,-9.5511,-9.5327,-9.507,-9.4373,-9.3455,-9.2647,-9.2132,-9.1509,-9.0996,-9.1179,-9.14,-9.1693,-9.1803,-9.1803,-9.1803,-9.1803,-9.1435,-9.0943,-7.0872,-7.1312,-7.1312,-7.1718,-7.2462,-7.3172,-7.3747,-7.4356,-7.527,-7.5676,-7.5676,-7.5676,-7.5676,-7.5676,-7.5676,-7.5676,-7.5676,-7.5709,-7.6048,-7.6115,-7.6623,-7.7502,-7.828,-7.8889,-7.9532,-8.0141,-8.0615,-8.0953,-8.1257,-8.2238,-8.2272,-8.1799,-8.1291,-8.075,-8.0513,-8.0682,-8.1021,-8.1291,-8.2002,-8.2746,-8.3355,-8.4099,-8.4573,-8.4573,-8.4606,-8.4606,-8.4606,-8.4606,-8.4606,-8.437,-8.3727,-8.2983,-8.2272,-8.146,-8.075,-8.031,-8.0209,-8.0209,-8.0209,-8.0209,-8.0209,-8.0209,-8.0209,-8.0209,-8.0209,-8.0209,-8.0209,-8.0276,-8.0209,-8.1073,-8.194,-8.2034,-8.2651,-8.4088,-8.4387,-8.4762,-8.6001,-8.6938,-8.8015,-8.9225,-9.092,-9.3082,-9.4958,-9.5511,-9.5878,-9.6282,-9.6612,-9.6722,-9.6722,-9.6722,-9.6722,-9.6649,-9.6649,-9.6465,-9.6392,-9.6392,-9.6428,-9.6649,-9.6282,-9.5804,-9.507,-9.4153,-9.3162,-9.2132,-9.1398,-9.0886,-9.0812,-9.0959,-9.1217,-9.151,-9.1803,-9.1803,-9.1803,-9.1285,-9.0595,-7.1312,-7.1312,-7.1345,-7.1785,-7.2529,-7.3375,-7.4424,-7.5608,-7.5676,-7.5676,-7.5676,-7.5676,-7.5676,-7.5676,-7.5676,-7.5676,-7.5676,-7.5676,-7.6149,-7.6657,-7.7029,-7.7942,-7.8653,-7.9194,-7.9701,-8.0006,-8.0344,-8.0682,-8.1156,-8.1393,-8.1359,-8.1325,-8.0818,-8.0581,-8.0581,-8.0648,-8.0987,-8.1562,-8.2272,-8.305,-8.3795,-8.4268,-8.4573,-8.4606,-8.4606,-8.4606,-8.4606,-8.4606,-8.4539,-8.4099,-8.3253,-8.2678,-8.1934,-8.0987,-8.0479,-8.0209,-8.0209,-8.0209,-8.0209,-8.0209,-8.0209,-8.0209,-8.0209,-8.0209,-8.0209,-8.0209,-8.0209,-8.0276,-8.0344,-8.1449,-8.237,-8.2452,-8.2565,-8.3203,-8.3517,-8.4482,-8.5958,-8.7151,-8.8303,-8.9652,-9.1458,-9.3462,-9.5248,-9.6135,-9.6428,-9.6539,-9.6722,-9.6722,-9.6722,-9.6722,-9.6722,-9.6722,-9.6685,-9.6685,-9.6722,-9.6722,-9.6722,-9.6685,-9.6649,-9.6245,-9.5511,-9.4556,-9.3345,-9.2207,-9.1288,-9.0702,-9.0372,-9.0447,-9.0594,-9.0886,-9.0954,-9.1509,-9.1435,-9.0907,-9.0348,-7.1312,-7.1379,-7.1853,-7.2496,-7.3308,-7.4525,-7.5337,-7.5676,-7.5676,-7.5676,-7.5676,-7.5676,-7.5676,-7.5676,-7.5676,-7.5676,-7.5676,-7.5811,-7.6251,-7.6792,-7.7502,-7.828,-7.8991,-7.96,-7.9972,-8.0107,-8.0242,-8.0344,-8.0513,-8.0581,-8.1291,-8.1799,-8.0818,-8.0885,-8.1122,-8.1224,-8.1596,-8.2035,-8.278,-8.3456,-8.4031,-8.4471,-8.4606,-8.4606,-8.4606,-8.4606,-8.4606,-8.4539,-8.437,-8.3693,-8.2949,-8.2272,-8.1528,-8.0716,-8.0209,-8.0209,-8.0209,-8.0209,-8.0209,-8.0209,-8.0209,-8.0209,-8.0209,-8.0209,-8.0209,-8.0209,-8.0209,-8.0378,-8.0648,-8.1626,-8.2303,-8.2512,-8.2854,-8.3364,-8.3602,-8.4248,-8.5785,-8.7297,-8.8508,-9.0802,-9.2507,-9.4342,-9.6095,-9.6355,-9.6575,-9.6685,-9.6722,-9.6722,-9.6722,-9.6722,-9.6722,-9.6722,-9.6722,-9.6722,-9.6722,-9.6722,-9.6722,-9.6685,-9.6649,-9.6318,-9.5401,-9.4373,-9.3309,-9.217,-9.0922,-9.0225,-8.9748,-8.9789,-8.9888,-8.9408,-8.9456,-9.0341,-9.0984,-9.0284,-8.9785,-7.1312,-7.1413,-7.209,-7.2969,-7.4052,-7.5202,-7.5676,-7.5676,-7.5676,-7.5676,-7.5676,-7.5676,-7.5676,-7.5676,-7.5676,-7.5709,-7.5743,-7.6149,-7.6657,-7.7401,-7.8077,-7.8855,-7.9566,-7.9972,-8.0107,-8.0209,-8.0276,-8.0412,-8.0445,-8.0648,-8.1291,-8.1697,-8.0885,-8.1257,-8.1663,-8.2035,-8.2441,-8.2847,-8.3321,-8.393,-8.4336,-8.4606,-8.4606,-8.4606,-8.4606,-8.4606,-8.4539,-8.4403,-8.3896,-8.3355,-8.2644,-8.1832,-8.119,-8.0615,-8.0209,-8.0209,-8.0209,-8.0209,-8.0209,-8.0209,-8.0209,-8.0209,-8.0209,-8.0209,-8.0209,-8.0209,-8.0412,-8.0682,-8.1054,-8.1597,-8.2035,-8.2611,-8.3253,-8.3862,-8.3964,-8.4099,-8.5683,-8.7309,-8.9421,-9.1869,-9.3867,-9.5747,-9.6685,-9.6722,-9.6722,-9.6722,-9.6722,-9.6722,-9.6722,-9.6722,-9.6722,-9.6722,-9.6722,-9.6722,-9.6722,-9.6649,-9.6502,-9.6502,-9.6612,-9.6135,-9.5217,-9.4226,-9.3088,-9.1803,-9.0445,-8.9896,-8.9494,-8.9116,-8.9039,-8.8565,-8.8342,-8.8921,-8.9474,-8.9221,-8.8757,-7.1312,-7.1379,-7.2157,-7.3375,-7.4695,-7.5439,-7.5676,-7.5676,-7.5676,-7.5676,-7.5676,-7.5676,-7.5676,-7.5676,-7.5676,-7.5811,-7.6048,-7.6521,-7.7232,-7.8077,-7.8855,-7.96,-8.0107,-8.0378,-8.0648,-8.0445,-8.0378,-8.0615,-8.0953,-8.0953,-8.0885,-8.1224,-8.1224,-8.1426,-8.1765,-8.2712,-8.3219,-8.3558,-8.3727,-8.4065,-8.4437,-8.4606,-8.4606,-8.4606,-8.4606,-8.4573,-8.4336,-8.3964,-8.3422,-8.2881,-8.2272,-8.1393,-8.0919,-8.0615,-8.0276,-8.0209,-8.0209,-8.0209,-8.0209,-8.0209,-8.0209,-8.0209,-8.0242,-8.0412,-8.0479,-8.0513,-8.075,-8.1122,-8.1528,-8.2205,-8.2813,-8.3287,-8.3896,-8.42,-8.4336,-8.4539,-8.5443,-8.7798,-9.0852,-9.3085,-9.4976,-9.6572,-9.6722,-9.6722,-9.6722,-9.6722,-9.6722,-9.6722,-9.6722,-9.6722,-9.6685,-9.6685,-9.6685,-9.6685,-9.6722,-9.6575,-9.6245,-9.6245,-9.6282,-9.5584,-9.441,-9.3639,-9.2941,-9.184,-9.0812,-8.9898,-8.9386,-8.8981,-8.8446,-8.7991,-8.7834,-8.7755,-8.7769,-8.7677,-8.769,-7.1312,-7.1447,-7.2699,-7.4086,-7.5371,-7.5608,-7.5676,-7.5676,-7.5676,-7.5676,-7.5676,-7.5676,-7.5676,-7.5676,-7.5777,-7.6014,-7.6589,-7.7029,-7.7739,-7.8653,-7.9498,-8.0175,-8.0953,-8.1156,-8.1325,-8.1156,-8.1021,-8.0885,-8.0716,-8.0615,-8.0547,-8.0648,-8.1021,-8.1596,-8.2171,-8.3219,-8.3761,-8.4167,-8.4234,-8.4302,-8.4539,-8.4606,-8.4606,-8.4606,-8.4606,-8.4234,-8.3964,-8.3592,-8.2746,-8.1934,-8.1596,-8.1021,-8.0479,-8.031,-8.0209,-8.0209,-8.0209,-8.0209,-8.0209,-8.0209,-8.0242,-8.0445,-8.0615,-8.0885,-8.1054,-8.1021,-8.1224,-8.1663,-8.2137,-8.2881,-8.3524,-8.3998,-8.4336,-8.4505,-8.464,-8.5052,-8.5429,-8.8671,-9.1932,-9.3986,-9.5894,-9.6458,-9.6494,-9.6608,-9.6722,-9.6722,-9.6722,-9.6722,-9.6722,-9.6685,-9.6575,-9.6575,-9.6649,-9.6649,-9.6612,-9.6245,-9.5731,-9.5584,-9.5584,-9.4703,-9.3675,-9.2681,-9.1909,-9.1987,-9.14,-9.0149,-8.9162,-8.8518,-8.8064,-8.7473,-8.6742,-8.6379,-8.6053,-8.5887,-8.6122,-7.1515,-7.1954,-7.3375,-7.4661,-7.5574,-7.5676,-7.5676,-7.5676,-7.5676,-7.5676,-7.5676,-7.5676,-7.5676,-7.5811,-7.6048,-7.6386,-7.7029,-7.7671,-7.8314,-7.916,-7.9938,-8.0547,-8.1156,-8.1629,-8.1663,-8.1562,-8.1663,-8.146,-8.0784,-8.075,-8.0851,-8.1122,-8.1663,-8.2137,-8.2881,-8.3592,-8.4167,-8.4573,-8.4606,-8.4606,-8.4606,-8.4606,-8.4606,-8.4606,-8.4268,-8.3896,-8.3422,-8.3016,-8.2069,-8.1359,-8.1021,-8.0682,-8.031,-8.0242,-8.0209,-8.0209,-8.0209,-8.0209,-8.0209,-8.0242,-8.0378,-8.0716,-8.0953,-8.1224,-8.19,-8.1968,-8.2374,-8.2746,-8.2813,-8.3422,-8.393,-8.4437,-8.4505,-8.4573,-8.4848,-8.5298,-8.6646,-8.9127,-9.1568,-9.3318,-9.4684,-9.4976,-9.5181,-9.5586,-9.5866,-9.6685,-9.6685,-9.6722,-9.6722,-9.6539,-9.6465,-9.6245,-9.6135,-9.6135,-9.6025,-9.5547,-9.496,-9.4887,-9.4887,-9.4188,-9.3269,-9.1866,-9.0984,-9.1162,-9.0885,-8.976,-8.8856,-8.8294,-8.7479,-8.6881,-8.5884,-8.489,-8.4606,-8.4606,-8.4995,-7.1785,-7.2699,-7.4018,-7.5033,-7.5642,-7.5676,-7.5676,-7.5676,-7.5676,-7.5676,-7.5676,-7.5676,-7.5676,-7.5946,-7.6487,-7.6826,-7.7367,-7.8247,-7.8923,-7.9532,-8.0276,-8.1021,-8.1325,-8.1393,-8.2002,-8.2103,-8.1968,-8.1799,-8.146,-8.1325,-8.146,-8.2238,-8.2644,-8.2847,-8.3524,-8.4133,-8.4606,-8.4606,-8.4606,-8.4606,-8.4606,-8.4606,-8.4505,-8.4268,-8.3896,-8.3456,-8.2881,-8.2205,-8.1393,-8.0953,-8.0581,-8.0378,-8.0242,-8.0209,-8.0209,-8.0209,-8.0209,-8.0209,-8.0242,-8.0378,-8.075,-8.1088,-8.1325,-8.1866,-8.2543,-8.3016,-8.3422,-8.3592,-8.3625,-8.3828,-8.4336,-8.4606,-8.4606,-8.4776,-8.5158,-8.5883,-8.7775,-8.957,-9.1178,-9.2848,-9.3271,-9.3638,-9.3909,-9.4511,-9.5228,-9.6149,-9.6649,-9.6685,-9.6612,-9.6318,-9.6098,-9.5621,-9.5217,-9.5217,-9.5437,-9.496,-9.4373,-9.4263,-9.4226,-9.3711,-9.2935,-9.1484,-9.0602,-9.06,-9.0101,-8.9396,-8.8729,-8.8216,-8.7298,-8.6256,-8.5412,-8.4606,-8.4606,-8.4606,-8.4606,-7.209,-7.3341,-7.4255,-7.5033,-7.5642,-7.5676,-7.5676,-7.5676,-7.5676,-7.5676,-7.5709,-7.5709,-7.5709,-7.5743,-7.6521,-7.7164,-7.7942,-7.8855,-7.9498,-8.0073,-8.0987,-8.1731,-8.2238,-8.2475,-8.3287,-8.2847,-8.1934,-8.1426,-8.1663,-8.1528,-8.1697,-8.2441,-8.3118,-8.3355,-8.3558,-8.4133,-8.4606,-8.4606,-8.4606,-8.4606,-8.4539,-8.4437,-8.4167,-8.3896,-8.3592,-8.2746,-8.1968,-8.1494,-8.0953,-8.0547,-8.031,-8.0209,-8.0209,-8.0209,-8.0209,-8.0209,-8.0209,-8.0276,-8.0378,-8.0716,-8.1122,-8.1629,-8.2035,-8.2881,-8.3456,-8.3862,-8.4133,-8.4234,-8.4268,-8.4268,-8.4606,-8.4606,-8.464,-8.5187,-8.5565,-8.712,-8.888,-8.9951,-9.116,-9.198,-9.2444,-9.2696,-9.2907,-9.355,-9.4395,-9.5222,-9.605,-9.6164,-9.6208,-9.5951,-9.5658,-9.5034,-9.4373,-9.4777,-9.518,-9.4446,-9.3932,-9.3822,-9.3527,-9.2935,-9.2113,-9.1052,-9.0396,-9.0197,-9.0029,-8.953,-8.8802,-8.7839,-8.6883,-8.5823,-8.5168,-8.4606,-8.4606,-8.4606,-8.4606]}]]